<?xml version="1.0" encoding="UTF-8" standalone="no" ?>
<gpx xmlns="http://www.topografix.com/GPX/1/1" xmlns:xsi="http://www.w3.org/2001/XMLSchema-instance" xsi:schemaLocation="http://www.topografix.com/GPX/1/1 http://www.topografix.com/GPX/1/1/gpx.xsd" version="1.1" creator="VisuGPX - https://www.visugpx.com">
  <metadata>
    <name>St Félicien</name>
    <desc><![CDATA[2009-06-17_St Félicien Dist.100Km Asc.807m 5h55.gpx]]></desc>
  </metadata>
  <trk>
    <name><![CDATA[St Félicien]]></name>
    <cmt><![CDATA[Patrick Bernard et Barlet2]]></cmt>
    <trkseg>
      <trkpt lat="45.11983" lon="4.97764">
        <ele>175.43400573731</ele>
        <time>2009-06-17T11:40:03Z</time>
      </trkpt>
      <trkpt lat="45.1195" lon="4.97575">
        <ele>175.25</ele>
        <time>2009-06-17T11:40:24Z</time>
      </trkpt>
      <trkpt lat="45.11914" lon="4.97379">
        <ele>173.7440032959</ele>
        <time>2009-06-17T11:40:45Z</time>
      </trkpt>
      <trkpt lat="45.11888" lon="4.97227">
        <ele>173.95500183106</ele>
        <time>2009-06-17T11:41:02Z</time>
      </trkpt>
      <trkpt lat="45.11879" lon="4.97177">
        <ele>174.31599426269</ele>
        <time>2009-06-17T11:41:08Z</time>
      </trkpt>
      <trkpt lat="45.11879" lon="4.97161">
        <ele>174.58500671387</ele>
        <time>2009-06-17T11:41:10Z</time>
      </trkpt>
      <trkpt lat="45.11882" lon="4.97102">
        <ele>175.78199768066</ele>
        <time>2009-06-17T11:41:18Z</time>
      </trkpt>
      <trkpt lat="45.11902" lon="4.97062">
        <ele>176.4049987793</ele>
        <time>2009-06-17T11:41:25Z</time>
      </trkpt>
      <trkpt lat="45.11888" lon="4.97054">
        <ele>176.38499450684</ele>
        <time>2009-06-17T11:41:29Z</time>
      </trkpt>
      <trkpt lat="45.11808" lon="4.96952">
        <ele>175.88600158691</ele>
        <time>2009-06-17T11:41:48Z</time>
      </trkpt>
      <trkpt lat="45.11774" lon="4.96895">
        <ele>176.23199462891</ele>
        <time>2009-06-17T11:41:58Z</time>
      </trkpt>
      <trkpt lat="45.11763" lon="4.96841">
        <ele>176.00199890137</ele>
        <time>2009-06-17T11:42:06Z</time>
      </trkpt>
      <trkpt lat="45.11753" lon="4.96825">
        <ele>175.94099426269</ele>
        <time>2009-06-17T11:42:09Z</time>
      </trkpt>
      <trkpt lat="45.11725" lon="4.96817">
        <ele>175.85400390625</ele>
        <time>2009-06-17T11:42:14Z</time>
      </trkpt>
      <trkpt lat="45.11665" lon="4.96714">
        <ele>175.09199523926</ele>
        <time>2009-06-17T11:42:30Z</time>
      </trkpt>
      <trkpt lat="45.11594" lon="4.96539">
        <ele>174.375</ele>
        <time>2009-06-17T11:42:53Z</time>
      </trkpt>
      <trkpt lat="45.11518" lon="4.96409">
        <ele>175.41999816894</ele>
        <time>2009-06-17T11:43:13Z</time>
      </trkpt>
      <trkpt lat="45.11499" lon="4.96377">
        <ele>175.77000427246</ele>
        <time>2009-06-17T11:43:18Z</time>
      </trkpt>
      <trkpt lat="45.11491" lon="4.96364">
        <ele>176.02900695801</ele>
        <time>2009-06-17T11:43:20Z</time>
      </trkpt>
      <trkpt lat="45.11457" lon="4.96307">
        <ele>176.89700317383</ele>
        <time>2009-06-17T11:43:29Z</time>
      </trkpt>
      <trkpt lat="45.11431" lon="4.96261">
        <ele>177.41700744629</ele>
        <time>2009-06-17T11:43:36Z</time>
      </trkpt>
      <trkpt lat="45.11357" lon="4.96106">
        <ele>176.42599487305</ele>
        <time>2009-06-17T11:43:57Z</time>
      </trkpt>
      <trkpt lat="45.11311" lon="4.96036">
        <ele>175.9109954834</ele>
        <time>2009-06-17T11:44:07Z</time>
      </trkpt>
      <trkpt lat="45.11259" lon="4.95948">
        <ele>175.25300598144</ele>
        <time>2009-06-17T11:44:19Z</time>
      </trkpt>
      <trkpt lat="45.11217" lon="4.95882">
        <ele>174.84100341797</ele>
        <time>2009-06-17T11:44:28Z</time>
      </trkpt>
      <trkpt lat="45.11118" lon="4.95717">
        <ele>175.3869934082</ele>
        <time>2009-06-17T11:44:52Z</time>
      </trkpt>
      <trkpt lat="45.11068" lon="4.9566">
        <ele>175.72900390625</ele>
        <time>2009-06-17T11:45:03Z</time>
      </trkpt>
      <trkpt lat="45.10982" lon="4.95548">
        <ele>175.02000427246</ele>
        <time>2009-06-17T11:45:21Z</time>
      </trkpt>
      <trkpt lat="45.1095" lon="4.95457">
        <ele>174.20300292969</ele>
        <time>2009-06-17T11:45:31Z</time>
      </trkpt>
      <trkpt lat="45.10895" lon="4.95296">
        <ele>174.09399414062</ele>
        <time>2009-06-17T11:45:49Z</time>
      </trkpt>
      <trkpt lat="45.10862" lon="4.95169">
        <ele>177.09599304199</ele>
        <time>2009-06-17T11:46:05Z</time>
      </trkpt>
      <trkpt lat="45.10851" lon="4.95119">
        <ele>179.45100402832</ele>
        <time>2009-06-17T11:46:13Z</time>
      </trkpt>
      <trkpt lat="45.10849" lon="4.95088">
        <ele>181.07800292969</ele>
        <time>2009-06-17T11:46:18Z</time>
      </trkpt>
      <trkpt lat="45.10849" lon="4.95059">
        <ele>182.875</ele>
        <time>2009-06-17T11:46:23Z</time>
      </trkpt>
      <trkpt lat="45.1085" lon="4.95036">
        <ele>184.06900024414</ele>
        <time>2009-06-17T11:46:27Z</time>
      </trkpt>
      <trkpt lat="45.10851" lon="4.95007">
        <ele>185.50500488281</ele>
        <time>2009-06-17T11:46:32Z</time>
      </trkpt>
      <trkpt lat="45.10852" lon="4.94979">
        <ele>186.98199462891</ele>
        <time>2009-06-17T11:46:37Z</time>
      </trkpt>
      <trkpt lat="45.10852" lon="4.94973">
        <ele>187.27600097656</ele>
        <time>2009-06-17T11:46:38Z</time>
      </trkpt>
      <trkpt lat="45.10854" lon="4.94928">
        <ele>189.40199279785</ele>
        <time>2009-06-17T11:46:46Z</time>
      </trkpt>
      <trkpt lat="45.10855" lon="4.94901">
        <ele>190.96000671387</ele>
        <time>2009-06-17T11:46:51Z</time>
      </trkpt>
      <trkpt lat="45.10859" lon="4.94826">
        <ele>193.45300292969</ele>
        <time>2009-06-17T11:47:06Z</time>
      </trkpt>
      <trkpt lat="45.10873" lon="4.94783">
        <ele>194.11099243164</ele>
        <time>2009-06-17T11:47:17Z</time>
      </trkpt>
      <trkpt lat="45.10884" lon="4.94746">
        <ele>194.16200256348</ele>
        <time>2009-06-17T11:47:24Z</time>
      </trkpt>
      <trkpt lat="45.10898" lon="4.94702">
        <ele>194.35800170898</ele>
        <time>2009-06-17T11:47:32Z</time>
      </trkpt>
      <trkpt lat="45.1091" lon="4.94663">
        <ele>194.32699584961</ele>
        <time>2009-06-17T11:47:39Z</time>
      </trkpt>
      <trkpt lat="45.10923" lon="4.94596">
        <ele>194.35200500488</ele>
        <time>2009-06-17T11:47:49Z</time>
      </trkpt>
      <trkpt lat="45.10924" lon="4.94508">
        <ele>193.94200134277</ele>
        <time>2009-06-17T11:48:01Z</time>
      </trkpt>
      <trkpt lat="45.10921" lon="4.94437">
        <ele>194.19900512695</ele>
        <time>2009-06-17T11:48:11Z</time>
      </trkpt>
      <trkpt lat="45.1092" lon="4.94415">
        <ele>194.04899597168</ele>
        <time>2009-06-17T11:48:14Z</time>
      </trkpt>
      <trkpt lat="45.10916" lon="4.94343">
        <ele>194.44099426269</ele>
        <time>2009-06-17T11:48:24Z</time>
      </trkpt>
      <trkpt lat="45.10897" lon="4.94291">
        <ele>194.20599365234</ele>
        <time>2009-06-17T11:48:32Z</time>
      </trkpt>
      <trkpt lat="45.10817" lon="4.94202">
        <ele>193.38800048828</ele>
        <time>2009-06-17T11:48:49Z</time>
      </trkpt>
      <trkpt lat="45.10741" lon="4.94098">
        <ele>194.7859954834</ele>
        <time>2009-06-17T11:49:07Z</time>
      </trkpt>
      <trkpt lat="45.10714" lon="4.94032">
        <ele>195.86500549316</ele>
        <time>2009-06-17T11:49:17Z</time>
      </trkpt>
      <trkpt lat="45.10694" lon="4.93954">
        <ele>197.27299499512</ele>
        <time>2009-06-17T11:49:28Z</time>
      </trkpt>
      <trkpt lat="45.10683" lon="4.9387">
        <ele>197.4640045166</ele>
        <time>2009-06-17T11:49:39Z</time>
      </trkpt>
      <trkpt lat="45.10667" lon="4.93742">
        <ele>195.14399719238</ele>
        <time>2009-06-17T11:49:54Z</time>
      </trkpt>
      <trkpt lat="45.1066" lon="4.93691">
        <ele>193.67999267578</ele>
        <time>2009-06-17T11:49:59Z</time>
      </trkpt>
      <trkpt lat="45.10648" lon="4.93595">
        <ele>189.44400024414</ele>
        <time>2009-06-17T11:50:07Z</time>
      </trkpt>
      <trkpt lat="45.10644" lon="4.93569">
        <ele>188.6369934082</ele>
        <time>2009-06-17T11:50:09Z</time>
      </trkpt>
      <trkpt lat="45.10627" lon="4.93471">
        <ele>183.97399902344</ele>
        <time>2009-06-17T11:50:16Z</time>
      </trkpt>
      <trkpt lat="45.10603" lon="4.93362">
        <ele>181.71899414062</ele>
        <time>2009-06-17T11:50:24Z</time>
      </trkpt>
      <trkpt lat="45.10598" lon="4.93336">
        <ele>181.61199951172</ele>
        <time>2009-06-17T11:50:26Z</time>
      </trkpt>
      <trkpt lat="45.10593" lon="4.9331">
        <ele>181.03199768066</ele>
        <time>2009-06-17T11:50:28Z</time>
      </trkpt>
      <trkpt lat="45.10591" lon="4.93297">
        <ele>180.92100524902</ele>
        <time>2009-06-17T11:50:29Z</time>
      </trkpt>
      <trkpt lat="45.10584" lon="4.9326">
        <ele>180.80599975586</ele>
        <time>2009-06-17T11:50:32Z</time>
      </trkpt>
      <trkpt lat="45.10582" lon="4.93248">
        <ele>180.55999755859</ele>
        <time>2009-06-17T11:50:33Z</time>
      </trkpt>
      <trkpt lat="45.10572" lon="4.93199">
        <ele>179.70899963379</ele>
        <time>2009-06-17T11:50:37Z</time>
      </trkpt>
      <trkpt lat="45.1057" lon="4.93187">
        <ele>179.46099853516</ele>
        <time>2009-06-17T11:50:38Z</time>
      </trkpt>
      <trkpt lat="45.10545" lon="4.93054">
        <ele>178.85299682617</ele>
        <time>2009-06-17T11:50:52Z</time>
      </trkpt>
      <trkpt lat="45.10508" lon="4.9287">
        <ele>178.01400756836</ele>
        <time>2009-06-17T11:51:10Z</time>
      </trkpt>
      <trkpt lat="45.10498" lon="4.928">
        <ele>178.12899780273</ele>
        <time>2009-06-17T11:51:18Z</time>
      </trkpt>
      <trkpt lat="45.10472" lon="4.92679">
        <ele>178.07800292969</ele>
        <time>2009-06-17T11:51:33Z</time>
      </trkpt>
      <trkpt lat="45.10452" lon="4.92575">
        <ele>177.75199890137</ele>
        <time>2009-06-17T11:51:47Z</time>
      </trkpt>
      <trkpt lat="45.10434" lon="4.92467">
        <ele>176.08500671387</ele>
        <time>2009-06-17T11:51:59Z</time>
      </trkpt>
      <trkpt lat="45.10409" lon="4.92329">
        <ele>174.2799987793</ele>
        <time>2009-06-17T11:52:13Z</time>
      </trkpt>
      <trkpt lat="45.10381" lon="4.92176">
        <ele>174.42100524902</ele>
        <time>2009-06-17T11:52:30Z</time>
      </trkpt>
      <trkpt lat="45.10355" lon="4.92033">
        <ele>175.28500366211</ele>
        <time>2009-06-17T11:52:47Z</time>
      </trkpt>
      <trkpt lat="45.10329" lon="4.91894">
        <ele>176.85699462891</ele>
        <time>2009-06-17T11:53:04Z</time>
      </trkpt>
      <trkpt lat="45.10313" lon="4.91806">
        <ele>177.87899780273</ele>
        <time>2009-06-17T11:53:15Z</time>
      </trkpt>
      <trkpt lat="45.10329" lon="4.91753">
        <ele>178.58799743652</ele>
        <time>2009-06-17T11:53:23Z</time>
      </trkpt>
      <trkpt lat="45.10335" lon="4.91751">
        <ele>178.49099731445</ele>
        <time>2009-06-17T11:53:24Z</time>
      </trkpt>
      <trkpt lat="45.10455" lon="4.91739">
        <ele>179.49600219727</ele>
        <time>2009-06-17T11:53:44Z</time>
      </trkpt>
      <trkpt lat="45.10573" lon="4.91727">
        <ele>182.62699890137</ele>
        <time>2009-06-17T11:54:04Z</time>
      </trkpt>
      <trkpt lat="45.10683" lon="4.91714">
        <ele>186.21200561523</ele>
        <time>2009-06-17T11:54:24Z</time>
      </trkpt>
      <trkpt lat="45.1074" lon="4.91707">
        <ele>188.53100585938</ele>
        <time>2009-06-17T11:54:35Z</time>
      </trkpt>
      <trkpt lat="45.10773" lon="4.91666">
        <ele>188.58000183106</ele>
        <time>2009-06-17T11:54:44Z</time>
      </trkpt>
      <trkpt lat="45.10773" lon="4.91658">
        <ele>188.54200744629</ele>
        <time>2009-06-17T11:54:45Z</time>
      </trkpt>
      <trkpt lat="45.10776" lon="4.91468">
        <ele>186.56700134277</ele>
        <time>2009-06-17T11:55:05Z</time>
      </trkpt>
      <trkpt lat="45.10776" lon="4.91412">
        <ele>186.83500671387</ele>
        <time>2009-06-17T11:55:11Z</time>
      </trkpt>
      <trkpt lat="45.10776" lon="4.91286">
        <ele>188.04899597168</ele>
        <time>2009-06-17T11:55:26Z</time>
      </trkpt>
      <trkpt lat="45.10802" lon="4.91225">
        <ele>188.69099426269</ele>
        <time>2009-06-17T11:55:35Z</time>
      </trkpt>
      <trkpt lat="45.10807" lon="4.91224">
        <ele>189.02600097656</ele>
        <time>2009-06-17T11:55:36Z</time>
      </trkpt>
      <trkpt lat="45.10939" lon="4.9119">
        <ele>190.21099853516</ele>
        <time>2009-06-17T11:55:58Z</time>
      </trkpt>
      <trkpt lat="45.11058" lon="4.91135">
        <ele>190.35299682617</ele>
        <time>2009-06-17T11:56:18Z</time>
      </trkpt>
      <trkpt lat="45.11192" lon="4.91044">
        <ele>190.89100646973</ele>
        <time>2009-06-17T11:56:41Z</time>
      </trkpt>
      <trkpt lat="45.11246" lon="4.90999">
        <ele>191.81599426269</ele>
        <time>2009-06-17T11:56:51Z</time>
      </trkpt>
      <trkpt lat="45.11353" lon="4.9093">
        <ele>194.07800292969</ele>
        <time>2009-06-17T11:57:11Z</time>
      </trkpt>
      <trkpt lat="45.11434" lon="4.90853">
        <ele>195.33599853516</ele>
        <time>2009-06-17T11:57:28Z</time>
      </trkpt>
      <trkpt lat="45.11524" lon="4.90815">
        <ele>196.20700073242</ele>
        <time>2009-06-17T11:57:44Z</time>
      </trkpt>
      <trkpt lat="45.11605" lon="4.90766">
        <ele>196.73699951172</ele>
        <time>2009-06-17T11:57:59Z</time>
      </trkpt>
      <trkpt lat="45.11654" lon="4.90703">
        <ele>197.25700378418</ele>
        <time>2009-06-17T11:58:10Z</time>
      </trkpt>
      <trkpt lat="45.11663" lon="4.90691">
        <ele>197.35899353027</ele>
        <time>2009-06-17T11:58:12Z</time>
      </trkpt>
      <trkpt lat="45.11678" lon="4.90637">
        <ele>197.45300292969</ele>
        <time>2009-06-17T11:58:19Z</time>
      </trkpt>
      <trkpt lat="45.11685" lon="4.90604">
        <ele>197.52400207519</ele>
        <time>2009-06-17T11:58:23Z</time>
      </trkpt>
      <trkpt lat="45.11688" lon="4.90578">
        <ele>196.41799926758</ele>
        <time>2009-06-17T11:58:26Z</time>
      </trkpt>
      <trkpt lat="45.11689" lon="4.90568">
        <ele>196.26899719238</ele>
        <time>2009-06-17T11:58:27Z</time>
      </trkpt>
      <trkpt lat="45.11694" lon="4.90474">
        <ele>196.27299499512</ele>
        <time>2009-06-17T11:58:37Z</time>
      </trkpt>
      <trkpt lat="45.1167" lon="4.90408">
        <ele>194.54400634766</ele>
        <time>2009-06-17T11:58:46Z</time>
      </trkpt>
      <trkpt lat="45.11575" lon="4.90349">
        <ele>190.21899414062</ele>
        <time>2009-06-17T11:59:00Z</time>
      </trkpt>
      <trkpt lat="45.11478" lon="4.90291">
        <ele>188.40800476074</ele>
        <time>2009-06-17T11:59:13Z</time>
      </trkpt>
      <trkpt lat="45.11418" lon="4.90246">
        <ele>187.73100280762</ele>
        <time>2009-06-17T11:59:22Z</time>
      </trkpt>
      <trkpt lat="45.11394" lon="4.90208">
        <ele>187.19099426269</ele>
        <time>2009-06-17T11:59:27Z</time>
      </trkpt>
      <trkpt lat="45.11385" lon="4.90166">
        <ele>186.19500732422</ele>
        <time>2009-06-17T11:59:31Z</time>
      </trkpt>
      <trkpt lat="45.11381" lon="4.90149">
        <ele>185.85000610352</ele>
        <time>2009-06-17T11:59:34Z</time>
      </trkpt>
      <trkpt lat="45.11355" lon="4.90106">
        <ele>185.96600341797</ele>
        <time>2009-06-17T11:59:38Z</time>
      </trkpt>
      <trkpt lat="45.11318" lon="4.90064">
        <ele>186.65400695801</ele>
        <time>2009-06-17T11:59:45Z</time>
      </trkpt>
      <trkpt lat="45.11251" lon="4.89983">
        <ele>185.57000732422</ele>
        <time>2009-06-17T11:59:58Z</time>
      </trkpt>
      <trkpt lat="45.11208" lon="4.89867">
        <ele>183.7140045166</ele>
        <time>2009-06-17T12:00:12Z</time>
      </trkpt>
      <trkpt lat="45.11201" lon="4.89851">
        <ele>183.70500183106</ele>
        <time>2009-06-17T12:00:14Z</time>
      </trkpt>
      <trkpt lat="45.1118" lon="4.8982">
        <ele>183.54200744629</ele>
        <time>2009-06-17T12:00:19Z</time>
      </trkpt>
      <trkpt lat="45.11169" lon="4.89812">
        <ele>183.21200561523</ele>
        <time>2009-06-17T12:00:21Z</time>
      </trkpt>
      <trkpt lat="45.11154" lon="4.89766">
        <ele>184.18299865723</ele>
        <time>2009-06-17T12:00:28Z</time>
      </trkpt>
      <trkpt lat="45.11169" lon="4.89763">
        <ele>184.55700683594</ele>
        <time>2009-06-17T12:00:31Z</time>
      </trkpt>
      <trkpt lat="45.11282" lon="4.8976">
        <ele>183.64999389648</ele>
        <time>2009-06-17T12:00:49Z</time>
      </trkpt>
      <trkpt lat="45.11352" lon="4.89753">
        <ele>184.2380065918</ele>
        <time>2009-06-17T12:01:00Z</time>
      </trkpt>
      <trkpt lat="45.11366" lon="4.89742">
        <ele>184.41200256348</ele>
        <time>2009-06-17T12:01:04Z</time>
      </trkpt>
      <trkpt lat="45.1137" lon="4.89725">
        <ele>185.3390045166</ele>
        <time>2009-06-17T12:01:08Z</time>
      </trkpt>
      <trkpt lat="45.11404" lon="4.89737">
        <ele>185.23500061035</ele>
        <time>2009-06-17T12:01:14Z</time>
      </trkpt>
      <trkpt lat="45.11469" lon="4.89753">
        <ele>186.13800048828</ele>
        <time>2009-06-17T12:01:27Z</time>
      </trkpt>
      <trkpt lat="45.11493" lon="4.89752">
        <ele>186.09399414062</ele>
        <time>2009-06-17T12:01:32Z</time>
      </trkpt>
      <trkpt lat="45.11501" lon="4.89752">
        <ele>186.17599487305</ele>
        <time>2009-06-17T12:01:37Z</time>
      </trkpt>
      <trkpt lat="45.11508" lon="4.89752">
        <ele>186.58700561523</ele>
        <time>2009-06-17T12:02:36Z</time>
      </trkpt>
      <trkpt lat="45.11564" lon="4.89751">
        <ele>187.02299499512</ele>
        <time>2009-06-17T12:02:47Z</time>
      </trkpt>
      <trkpt lat="45.11581" lon="4.8975">
        <ele>187.62899780273</ele>
        <time>2009-06-17T12:02:50Z</time>
      </trkpt>
      <trkpt lat="45.1163" lon="4.89737">
        <ele>188.63800048828</ele>
        <time>2009-06-17T12:02:59Z</time>
      </trkpt>
      <trkpt lat="45.1166" lon="4.89714">
        <ele>189.20399475098</ele>
        <time>2009-06-17T12:03:05Z</time>
      </trkpt>
      <trkpt lat="45.11704" lon="4.89678">
        <ele>189.87600708008</ele>
        <time>2009-06-17T12:03:14Z</time>
      </trkpt>
      <trkpt lat="45.11779" lon="4.8962">
        <ele>191.07299804688</ele>
        <time>2009-06-17T12:03:28Z</time>
      </trkpt>
      <trkpt lat="45.11801" lon="4.89608">
        <ele>191.50500488281</ele>
        <time>2009-06-17T12:03:32Z</time>
      </trkpt>
      <trkpt lat="45.11842" lon="4.89615">
        <ele>192.53999328613</ele>
        <time>2009-06-17T12:03:39Z</time>
      </trkpt>
      <trkpt lat="45.11953" lon="4.89679">
        <ele>191.80599975586</ele>
        <time>2009-06-17T12:03:57Z</time>
      </trkpt>
      <trkpt lat="45.12088" lon="4.89696">
        <ele>189.90199279785</ele>
        <time>2009-06-17T12:04:14Z</time>
      </trkpt>
      <trkpt lat="45.12197" lon="4.89722">
        <ele>190.75799560547</ele>
        <time>2009-06-17T12:04:29Z</time>
      </trkpt>
      <trkpt lat="45.12223" lon="4.89728">
        <ele>191.27799987793</ele>
        <time>2009-06-17T12:04:33Z</time>
      </trkpt>
      <trkpt lat="45.12241" lon="4.89726">
        <ele>190.84599304199</ele>
        <time>2009-06-17T12:04:36Z</time>
      </trkpt>
      <trkpt lat="45.1233" lon="4.89717">
        <ele>193.74499511719</ele>
        <time>2009-06-17T12:04:51Z</time>
      </trkpt>
      <trkpt lat="45.12413" lon="4.89729">
        <ele>195.01100158691</ele>
        <time>2009-06-17T12:05:06Z</time>
      </trkpt>
      <trkpt lat="45.12513" lon="4.89749">
        <ele>196.07000732422</ele>
        <time>2009-06-17T12:05:23Z</time>
      </trkpt>
      <trkpt lat="45.12615" lon="4.89769">
        <ele>197.16400146484</ele>
        <time>2009-06-17T12:05:41Z</time>
      </trkpt>
      <trkpt lat="45.12719" lon="4.89791">
        <ele>198.53199768066</ele>
        <time>2009-06-17T12:05:59Z</time>
      </trkpt>
      <trkpt lat="45.12828" lon="4.89844">
        <ele>199.01899719238</ele>
        <time>2009-06-17T12:06:18Z</time>
      </trkpt>
      <trkpt lat="45.12931" lon="4.89924">
        <ele>200.04200744629</ele>
        <time>2009-06-17T12:06:37Z</time>
      </trkpt>
      <trkpt lat="45.13054" lon="4.90003">
        <ele>200.81500244141</ele>
        <time>2009-06-17T12:06:59Z</time>
      </trkpt>
      <trkpt lat="45.13189" lon="4.90024">
        <ele>201.61000061035</ele>
        <time>2009-06-17T12:07:18Z</time>
      </trkpt>
      <trkpt lat="45.13338" lon="4.90042">
        <ele>202.66499328613</ele>
        <time>2009-06-17T12:07:42Z</time>
      </trkpt>
      <trkpt lat="45.13458" lon="4.90036">
        <ele>203.25700378418</ele>
        <time>2009-06-17T12:07:57Z</time>
      </trkpt>
      <trkpt lat="45.13565" lon="4.90041">
        <ele>203.51800537109</ele>
        <time>2009-06-17T12:08:13Z</time>
      </trkpt>
      <trkpt lat="45.13681" lon="4.90091">
        <ele>203.9109954834</ele>
        <time>2009-06-17T12:08:30Z</time>
      </trkpt>
      <trkpt lat="45.13774" lon="4.90172">
        <ele>204.20100402832</ele>
        <time>2009-06-17T12:08:45Z</time>
      </trkpt>
      <trkpt lat="45.13848" lon="4.9029">
        <ele>204.47799682617</ele>
        <time>2009-06-17T12:09:00Z</time>
      </trkpt>
      <trkpt lat="45.13923" lon="4.90367">
        <ele>205</ele>
        <time>2009-06-17T12:09:13Z</time>
      </trkpt>
      <trkpt lat="45.14038" lon="4.90432">
        <ele>205.40800476074</ele>
        <time>2009-06-17T12:09:31Z</time>
      </trkpt>
      <trkpt lat="45.14073" lon="4.90489">
        <ele>205.35200500488</ele>
        <time>2009-06-17T12:09:39Z</time>
      </trkpt>
      <trkpt lat="45.14075" lon="4.90531">
        <ele>205.2440032959</ele>
        <time>2009-06-17T12:09:43Z</time>
      </trkpt>
      <trkpt lat="45.14103" lon="4.90595">
        <ele>206.22799682617</ele>
        <time>2009-06-17T12:09:51Z</time>
      </trkpt>
      <trkpt lat="45.14202" lon="4.90628">
        <ele>207.13600158691</ele>
        <time>2009-06-17T12:10:07Z</time>
      </trkpt>
      <trkpt lat="45.14322" lon="4.90658">
        <ele>207.88000488281</ele>
        <time>2009-06-17T12:10:27Z</time>
      </trkpt>
      <trkpt lat="45.14444" lon="4.9069">
        <ele>208.63900756836</ele>
        <time>2009-06-17T12:10:47Z</time>
      </trkpt>
      <trkpt lat="45.1454" lon="4.90735">
        <ele>212.43899536133</ele>
        <time>2009-06-17T12:11:05Z</time>
      </trkpt>
      <trkpt lat="45.14622" lon="4.9079">
        <ele>215.26499938965</ele>
        <time>2009-06-17T12:11:24Z</time>
      </trkpt>
      <trkpt lat="45.14664" lon="4.90818">
        <ele>217.42199707031</ele>
        <time>2009-06-17T12:11:35Z</time>
      </trkpt>
      <trkpt lat="45.1468" lon="4.90829">
        <ele>219.81599426269</ele>
        <time>2009-06-17T12:11:39Z</time>
      </trkpt>
      <trkpt lat="45.14688" lon="4.90834">
        <ele>218.89399719238</ele>
        <time>2009-06-17T12:11:41Z</time>
      </trkpt>
      <trkpt lat="45.14732" lon="4.90866">
        <ele>220.92500305176</ele>
        <time>2009-06-17T12:11:52Z</time>
      </trkpt>
      <trkpt lat="45.14823" lon="4.90931">
        <ele>223.08299255371</ele>
        <time>2009-06-17T12:12:13Z</time>
      </trkpt>
      <trkpt lat="45.14904" lon="4.90989">
        <ele>225.69200134277</ele>
        <time>2009-06-17T12:12:32Z</time>
      </trkpt>
      <trkpt lat="45.14998" lon="4.91057">
        <ele>227.52799987793</ele>
        <time>2009-06-17T12:12:53Z</time>
      </trkpt>
      <trkpt lat="45.151" lon="4.91124">
        <ele>228.04699707031</ele>
        <time>2009-06-17T12:13:12Z</time>
      </trkpt>
      <trkpt lat="45.15228" lon="4.91199">
        <ele>229.46200561523</ele>
        <time>2009-06-17T12:13:32Z</time>
      </trkpt>
      <trkpt lat="45.15335" lon="4.91257">
        <ele>232.05499267578</ele>
        <time>2009-06-17T12:13:51Z</time>
      </trkpt>
      <trkpt lat="45.15361" lon="4.91276">
        <ele>232.73599243164</ele>
        <time>2009-06-17T12:13:56Z</time>
      </trkpt>
      <trkpt lat="45.15381" lon="4.91299">
        <ele>233.42399597168</ele>
        <time>2009-06-17T12:14:03Z</time>
      </trkpt>
      <trkpt lat="45.15415" lon="4.91389">
        <ele>234.07400512695</ele>
        <time>2009-06-17T12:14:13Z</time>
      </trkpt>
      <trkpt lat="45.15441" lon="4.91424">
        <ele>234.56500244141</ele>
        <time>2009-06-17T12:14:19Z</time>
      </trkpt>
      <trkpt lat="45.15457" lon="4.91371">
        <ele>235.97999572754</ele>
        <time>2009-06-17T12:14:26Z</time>
      </trkpt>
      <trkpt lat="45.15517" lon="4.91299">
        <ele>239.95500183106</ele>
        <time>2009-06-17T12:14:42Z</time>
      </trkpt>
      <trkpt lat="45.15525" lon="4.91289">
        <ele>240.23500061035</ele>
        <time>2009-06-17T12:14:44Z</time>
      </trkpt>
      <trkpt lat="45.15538" lon="4.91274">
        <ele>240.90400695801</ele>
        <time>2009-06-17T12:14:47Z</time>
      </trkpt>
      <trkpt lat="45.15615" lon="4.91189">
        <ele>240.48899841309</ele>
        <time>2009-06-17T12:15:03Z</time>
      </trkpt>
      <trkpt lat="45.1568" lon="4.91137">
        <ele>236.76400756836</ele>
        <time>2009-06-17T12:15:14Z</time>
      </trkpt>
      <trkpt lat="45.1573" lon="4.91104">
        <ele>235.17300415039</ele>
        <time>2009-06-17T12:15:22Z</time>
      </trkpt>
      <trkpt lat="45.15771" lon="4.91075">
        <ele>233.93499755859</ele>
        <time>2009-06-17T12:15:28Z</time>
      </trkpt>
      <trkpt lat="45.15825" lon="4.91039">
        <ele>232.33799743652</ele>
        <time>2009-06-17T12:15:35Z</time>
      </trkpt>
      <trkpt lat="45.15858" lon="4.91017">
        <ele>230.45899963379</ele>
        <time>2009-06-17T12:15:39Z</time>
      </trkpt>
      <trkpt lat="45.15866" lon="4.91011">
        <ele>230.43200683594</ele>
        <time>2009-06-17T12:15:40Z</time>
      </trkpt>
      <trkpt lat="45.15947" lon="4.90922">
        <ele>227.56599426269</ele>
        <time>2009-06-17T12:15:51Z</time>
      </trkpt>
      <trkpt lat="45.15952" lon="4.90911">
        <ele>227.46499633789</ele>
        <time>2009-06-17T12:15:52Z</time>
      </trkpt>
      <trkpt lat="45.16021" lon="4.90723">
        <ele>222.80000305176</ele>
        <time>2009-06-17T12:16:08Z</time>
      </trkpt>
      <trkpt lat="45.16077" lon="4.90554">
        <ele>219.66999816894</ele>
        <time>2009-06-17T12:16:22Z</time>
      </trkpt>
      <trkpt lat="45.16086" lon="4.90528">
        <ele>218.67599487305</ele>
        <time>2009-06-17T12:16:24Z</time>
      </trkpt>
      <trkpt lat="45.16119" lon="4.9045">
        <ele>216.14300537109</ele>
        <time>2009-06-17T12:16:30Z</time>
      </trkpt>
      <trkpt lat="45.16233" lon="4.90218">
        <ele>211.07800292969</ele>
        <time>2009-06-17T12:16:49Z</time>
      </trkpt>
      <trkpt lat="45.16293" lon="4.90119">
        <ele>208.62600708008</ele>
        <time>2009-06-17T12:16:59Z</time>
      </trkpt>
      <trkpt lat="45.16321" lon="4.90074">
        <ele>208</ele>
        <time>2009-06-17T12:17:04Z</time>
      </trkpt>
      <trkpt lat="45.16383" lon="4.89941">
        <ele>208.56199645996</ele>
        <time>2009-06-17T12:17:19Z</time>
      </trkpt>
      <trkpt lat="45.16442" lon="4.89795">
        <ele>204.70899963379</ele>
        <time>2009-06-17T12:17:35Z</time>
      </trkpt>
      <trkpt lat="45.16506" lon="4.89532">
        <ele>196.51400756836</ele>
        <time>2009-06-17T12:17:56Z</time>
      </trkpt>
      <trkpt lat="45.16513" lon="4.89505">
        <ele>197.68899536133</ele>
        <time>2009-06-17T12:17:58Z</time>
      </trkpt>
      <trkpt lat="45.1652" lon="4.89477">
        <ele>194.84399414062</ele>
        <time>2009-06-17T12:18:00Z</time>
      </trkpt>
      <trkpt lat="45.16527" lon="4.89449">
        <ele>193.44700622559</ele>
        <time>2009-06-17T12:18:02Z</time>
      </trkpt>
      <trkpt lat="45.16572" lon="4.89274">
        <ele>190.73899841309</ele>
        <time>2009-06-17T12:18:14Z</time>
      </trkpt>
      <trkpt lat="45.16578" lon="4.89263">
        <ele>190.80499267578</ele>
        <time>2009-06-17T12:18:15Z</time>
      </trkpt>
      <trkpt lat="45.16585" lon="4.89253">
        <ele>190.83399963379</ele>
        <time>2009-06-17T12:18:16Z</time>
      </trkpt>
      <trkpt lat="45.16606" lon="4.89226">
        <ele>191.11199951172</ele>
        <time>2009-06-17T12:18:19Z</time>
      </trkpt>
      <trkpt lat="45.16657" lon="4.89192">
        <ele>191.84899902344</ele>
        <time>2009-06-17T12:18:25Z</time>
      </trkpt>
      <trkpt lat="45.16694" lon="4.89177">
        <ele>191.70100402832</ele>
        <time>2009-06-17T12:18:29Z</time>
      </trkpt>
      <trkpt lat="45.16721" lon="4.89171">
        <ele>191.32099914551</ele>
        <time>2009-06-17T12:18:32Z</time>
      </trkpt>
      <trkpt lat="45.16772" lon="4.89151">
        <ele>190.99099731445</ele>
        <time>2009-06-17T12:18:38Z</time>
      </trkpt>
      <trkpt lat="45.16779" lon="4.89145">
        <ele>191.32499694824</ele>
        <time>2009-06-17T12:18:39Z</time>
      </trkpt>
      <trkpt lat="45.16792" lon="4.89132">
        <ele>191.44599914551</ele>
        <time>2009-06-17T12:18:41Z</time>
      </trkpt>
      <trkpt lat="45.16805" lon="4.8912">
        <ele>191.15699768066</ele>
        <time>2009-06-17T12:18:43Z</time>
      </trkpt>
      <trkpt lat="45.16833" lon="4.89081">
        <ele>191.13600158691</ele>
        <time>2009-06-17T12:18:49Z</time>
      </trkpt>
      <trkpt lat="45.16844" lon="4.8906">
        <ele>190.9640045166</ele>
        <time>2009-06-17T12:18:52Z</time>
      </trkpt>
      <trkpt lat="45.1686" lon="4.88972">
        <ele>190.5059967041</ele>
        <time>2009-06-17T12:19:03Z</time>
      </trkpt>
      <trkpt lat="45.16875" lon="4.88873">
        <ele>189.35099792481</ele>
        <time>2009-06-17T12:19:14Z</time>
      </trkpt>
      <trkpt lat="45.16897" lon="4.88761">
        <ele>185.86700439453</ele>
        <time>2009-06-17T12:19:25Z</time>
      </trkpt>
      <trkpt lat="45.16911" lon="4.8869">
        <ele>182.05200195312</ele>
        <time>2009-06-17T12:19:31Z</time>
      </trkpt>
      <trkpt lat="45.16925" lon="4.8861">
        <ele>178.22799682617</ele>
        <time>2009-06-17T12:19:37Z</time>
      </trkpt>
      <trkpt lat="45.16928" lon="4.88596">
        <ele>177.96200561523</ele>
        <time>2009-06-17T12:19:38Z</time>
      </trkpt>
      <trkpt lat="45.16953" lon="4.88461">
        <ele>174.81900024414</ele>
        <time>2009-06-17T12:19:48Z</time>
      </trkpt>
      <trkpt lat="45.16964" lon="4.884">
        <ele>174.74099731445</ele>
        <time>2009-06-17T12:19:53Z</time>
      </trkpt>
      <trkpt lat="45.1699" lon="4.88214">
        <ele>173.63999938965</ele>
        <time>2009-06-17T12:20:10Z</time>
      </trkpt>
      <trkpt lat="45.16973" lon="4.88044">
        <ele>171.22700500488</ele>
        <time>2009-06-17T12:20:25Z</time>
      </trkpt>
      <trkpt lat="45.16965" lon="4.87962">
        <ele>170.39300537109</ele>
        <time>2009-06-17T12:20:32Z</time>
      </trkpt>
      <trkpt lat="45.1699" lon="4.87799">
        <ele>169.71099853516</ele>
        <time>2009-06-17T12:20:47Z</time>
      </trkpt>
      <trkpt lat="45.16993" lon="4.87778">
        <ele>169.46800231934</ele>
        <time>2009-06-17T12:20:49Z</time>
      </trkpt>
      <trkpt lat="45.16999" lon="4.8775">
        <ele>169.34899902344</ele>
        <time>2009-06-17T12:20:53Z</time>
      </trkpt>
      <trkpt lat="45.17024" lon="4.87572">
        <ele>169.06199645996</ele>
        <time>2009-06-17T12:21:09Z</time>
      </trkpt>
      <trkpt lat="45.17017" lon="4.87444">
        <ele>169.42999267578</ele>
        <time>2009-06-17T12:21:22Z</time>
      </trkpt>
      <trkpt lat="45.17006" lon="4.87323">
        <ele>170.66400146484</ele>
        <time>2009-06-17T12:21:36Z</time>
      </trkpt>
      <trkpt lat="45.16999" lon="4.87222">
        <ele>171.16999816894</ele>
        <time>2009-06-17T12:21:48Z</time>
      </trkpt>
      <trkpt lat="45.17005" lon="4.87186">
        <ele>171.51100158691</ele>
        <time>2009-06-17T12:21:53Z</time>
      </trkpt>
      <trkpt lat="45.17051" lon="4.87066">
        <ele>169.70300292969</ele>
        <time>2009-06-17T12:22:08Z</time>
      </trkpt>
      <trkpt lat="45.17076" lon="4.87005">
        <ele>169.80000305176</ele>
        <time>2009-06-17T12:22:15Z</time>
      </trkpt>
      <trkpt lat="45.17153" lon="4.86824">
        <ele>171.27799987793</ele>
        <time>2009-06-17T12:22:37Z</time>
      </trkpt>
      <trkpt lat="45.172" lon="4.86718">
        <ele>171.82600402832</ele>
        <time>2009-06-17T12:22:50Z</time>
      </trkpt>
      <trkpt lat="45.17236" lon="4.86642">
        <ele>170.5950012207</ele>
        <time>2009-06-17T12:22:59Z</time>
      </trkpt>
      <trkpt lat="45.17284" lon="4.86525">
        <ele>169.99299621582</ele>
        <time>2009-06-17T12:23:12Z</time>
      </trkpt>
      <trkpt lat="45.17304" lon="4.8648">
        <ele>169.54100036621</ele>
        <time>2009-06-17T12:23:17Z</time>
      </trkpt>
      <trkpt lat="45.17373" lon="4.8631">
        <ele>169.39100646973</ele>
        <time>2009-06-17T12:23:36Z</time>
      </trkpt>
      <trkpt lat="45.17459" lon="4.86131">
        <ele>168.49299621582</ele>
        <time>2009-06-17T12:23:57Z</time>
      </trkpt>
      <trkpt lat="45.17534" lon="4.85981">
        <ele>165.10499572754</ele>
        <time>2009-06-17T12:24:13Z</time>
      </trkpt>
      <trkpt lat="45.17579" lon="4.85871">
        <ele>164.66999816894</ele>
        <time>2009-06-17T12:24:24Z</time>
      </trkpt>
      <trkpt lat="45.17599" lon="4.85793">
        <ele>165.68200683594</ele>
        <time>2009-06-17T12:24:32Z</time>
      </trkpt>
      <trkpt lat="45.17627" lon="4.85759">
        <ele>166.59599304199</ele>
        <time>2009-06-17T12:24:38Z</time>
      </trkpt>
      <trkpt lat="45.17664" lon="4.85735">
        <ele>168.05700683594</ele>
        <time>2009-06-17T12:24:45Z</time>
      </trkpt>
      <trkpt lat="45.17685" lon="4.85722">
        <ele>168.81799316406</ele>
        <time>2009-06-17T12:24:49Z</time>
      </trkpt>
      <trkpt lat="45.177" lon="4.85712">
        <ele>169.67199707031</ele>
        <time>2009-06-17T12:24:52Z</time>
      </trkpt>
      <trkpt lat="45.17723" lon="4.85692">
        <ele>170.05299377441</ele>
        <time>2009-06-17T12:24:57Z</time>
      </trkpt>
      <trkpt lat="45.17728" lon="4.85687">
        <ele>170.3869934082</ele>
        <time>2009-06-17T12:24:58Z</time>
      </trkpt>
      <trkpt lat="45.178" lon="4.85619">
        <ele>171.49899291992</ele>
        <time>2009-06-17T12:25:13Z</time>
      </trkpt>
      <trkpt lat="45.17833" lon="4.85576">
        <ele>172.73899841309</ele>
        <time>2009-06-17T12:25:21Z</time>
      </trkpt>
      <trkpt lat="45.17845" lon="4.85561">
        <ele>172.99899291992</ele>
        <time>2009-06-17T12:25:24Z</time>
      </trkpt>
      <trkpt lat="45.17855" lon="4.85538">
        <ele>173.81799316406</ele>
        <time>2009-06-17T12:25:28Z</time>
      </trkpt>
      <trkpt lat="45.17873" lon="4.85499">
        <ele>175.33999633789</ele>
        <time>2009-06-17T12:25:35Z</time>
      </trkpt>
      <trkpt lat="45.17883" lon="4.8548">
        <ele>176.47700500488</ele>
        <time>2009-06-17T12:25:39Z</time>
      </trkpt>
      <trkpt lat="45.17887" lon="4.85453">
        <ele>177.11500549316</ele>
        <time>2009-06-17T12:25:43Z</time>
      </trkpt>
      <trkpt lat="45.17878" lon="4.85399">
        <ele>177.14300537109</ele>
        <time>2009-06-17T12:25:51Z</time>
      </trkpt>
      <trkpt lat="45.17868" lon="4.85345">
        <ele>175.61599731445</ele>
        <time>2009-06-17T12:25:58Z</time>
      </trkpt>
      <trkpt lat="45.17866" lon="4.8533">
        <ele>175.39900207519</ele>
        <time>2009-06-17T12:26:01Z</time>
      </trkpt>
      <trkpt lat="45.17877" lon="4.85232">
        <ele>172.87800598144</ele>
        <time>2009-06-17T12:26:10Z</time>
      </trkpt>
      <trkpt lat="45.17897" lon="4.8519">
        <ele>172.06399536133</ele>
        <time>2009-06-17T12:26:15Z</time>
      </trkpt>
      <trkpt lat="45.17907" lon="4.85173">
        <ele>171.95799255371</ele>
        <time>2009-06-17T12:26:17Z</time>
      </trkpt>
      <trkpt lat="45.17944" lon="4.85117">
        <ele>169.4049987793</ele>
        <time>2009-06-17T12:26:24Z</time>
      </trkpt>
      <trkpt lat="45.17961" lon="4.85091">
        <ele>168.30799865723</ele>
        <time>2009-06-17T12:26:27Z</time>
      </trkpt>
      <trkpt lat="45.17975" lon="4.85062">
        <ele>166.73899841309</ele>
        <time>2009-06-17T12:26:30Z</time>
      </trkpt>
      <trkpt lat="45.17986" lon="4.84973">
        <ele>164.94200134277</ele>
        <time>2009-06-17T12:26:37Z</time>
      </trkpt>
      <trkpt lat="45.17986" lon="4.84949">
        <ele>164.78100585938</ele>
        <time>2009-06-17T12:26:39Z</time>
      </trkpt>
      <trkpt lat="45.17986" lon="4.84926">
        <ele>164.43800354004</ele>
        <time>2009-06-17T12:26:41Z</time>
      </trkpt>
      <trkpt lat="45.17987" lon="4.84781">
        <ele>162.55799865723</ele>
        <time>2009-06-17T12:26:53Z</time>
      </trkpt>
      <trkpt lat="45.17985" lon="4.84757">
        <ele>161.85899353027</ele>
        <time>2009-06-17T12:26:55Z</time>
      </trkpt>
      <trkpt lat="45.17955" lon="4.84657">
        <ele>160.70899963379</ele>
        <time>2009-06-17T12:27:04Z</time>
      </trkpt>
      <trkpt lat="45.17888" lon="4.8447">
        <ele>161.13999938965</ele>
        <time>2009-06-17T12:27:21Z</time>
      </trkpt>
      <trkpt lat="45.1787" lon="4.84394">
        <ele>161.375</ele>
        <time>2009-06-17T12:27:28Z</time>
      </trkpt>
      <trkpt lat="45.17857" lon="4.84319">
        <ele>162.23199462891</ele>
        <time>2009-06-17T12:27:35Z</time>
      </trkpt>
      <trkpt lat="45.17868" lon="4.8427">
        <ele>162.37300109863</ele>
        <time>2009-06-17T12:27:40Z</time>
      </trkpt>
      <trkpt lat="45.17896" lon="4.84216">
        <ele>160.96699523926</ele>
        <time>2009-06-17T12:27:46Z</time>
      </trkpt>
      <trkpt lat="45.17908" lon="4.84125">
        <ele>158.1130065918</ele>
        <time>2009-06-17T12:27:54Z</time>
      </trkpt>
      <trkpt lat="45.17908" lon="4.84044">
        <ele>155.63000488281</ele>
        <time>2009-06-17T12:27:59Z</time>
      </trkpt>
      <trkpt lat="45.17905" lon="4.83951">
        <ele>151.57800292969</ele>
        <time>2009-06-17T12:28:05Z</time>
      </trkpt>
      <trkpt lat="45.17948" lon="4.83745">
        <ele>147.40800476074</ele>
        <time>2009-06-17T12:28:19Z</time>
      </trkpt>
      <trkpt lat="45.18007" lon="4.83615">
        <ele>147.0299987793</ele>
        <time>2009-06-17T12:28:30Z</time>
      </trkpt>
      <trkpt lat="45.18044" lon="4.83567">
        <ele>146.34800720215</ele>
        <time>2009-06-17T12:28:34Z</time>
      </trkpt>
      <trkpt lat="45.18078" lon="4.83523">
        <ele>146.26699829102</ele>
        <time>2009-06-17T12:28:40Z</time>
      </trkpt>
      <trkpt lat="45.18098" lon="4.8346">
        <ele>147.52000427246</ele>
        <time>2009-06-17T12:28:46Z</time>
      </trkpt>
      <trkpt lat="45.18089" lon="4.83429">
        <ele>148.31500244141</ele>
        <time>2009-06-17T12:28:49Z</time>
      </trkpt>
      <trkpt lat="45.1804" lon="4.83352">
        <ele>150.57699584961</ele>
        <time>2009-06-17T12:28:58Z</time>
      </trkpt>
      <trkpt lat="45.18017" lon="4.83322">
        <ele>151.36399841309</ele>
        <time>2009-06-17T12:29:02Z</time>
      </trkpt>
      <trkpt lat="45.1796" lon="4.83304">
        <ele>149.98399353027</ele>
        <time>2009-06-17T12:29:10Z</time>
      </trkpt>
      <trkpt lat="45.17907" lon="4.83326">
        <ele>148.00999450684</ele>
        <time>2009-06-17T12:29:16Z</time>
      </trkpt>
      <trkpt lat="45.17829" lon="4.83338">
        <ele>146.33599853516</ele>
        <time>2009-06-17T12:29:24Z</time>
      </trkpt>
      <trkpt lat="45.17775" lon="4.83298">
        <ele>145.98399353027</ele>
        <time>2009-06-17T12:29:31Z</time>
      </trkpt>
      <trkpt lat="45.1775" lon="4.83236">
        <ele>144.74000549316</ele>
        <time>2009-06-17T12:29:39Z</time>
      </trkpt>
      <trkpt lat="45.17744" lon="4.83217">
        <ele>144.3390045166</ele>
        <time>2009-06-17T12:29:43Z</time>
      </trkpt>
      <trkpt lat="45.1774" lon="4.83207">
        <ele>144.25999450684</ele>
        <time>2009-06-17T12:29:46Z</time>
      </trkpt>
      <trkpt lat="45.1774" lon="4.83205">
        <ele>144.23399353027</ele>
        <time>2009-06-17T12:29:48Z</time>
      </trkpt>
      <trkpt lat="45.17728" lon="4.83171">
        <ele>145.08799743652</ele>
        <time>2009-06-17T12:31:54Z</time>
      </trkpt>
      <trkpt lat="45.17723" lon="4.83142">
        <ele>145.73399353027</ele>
        <time>2009-06-17T12:31:56Z</time>
      </trkpt>
      <trkpt lat="45.17721" lon="4.83131">
        <ele>145.22900390625</ele>
        <time>2009-06-17T12:31:58Z</time>
      </trkpt>
      <trkpt lat="45.17706" lon="4.83045">
        <ele>145.2380065918</ele>
        <time>2009-06-17T12:32:10Z</time>
      </trkpt>
      <trkpt lat="45.17705" lon="4.83038">
        <ele>145.20100402832</ele>
        <time>2009-06-17T12:32:11Z</time>
      </trkpt>
      <trkpt lat="45.17701" lon="4.83014">
        <ele>144.95899963379</ele>
        <time>2009-06-17T12:32:14Z</time>
      </trkpt>
      <trkpt lat="45.17662" lon="4.82966">
        <ele>145.53100585938</ele>
        <time>2009-06-17T12:32:24Z</time>
      </trkpt>
      <trkpt lat="45.17639" lon="4.82965">
        <ele>145.48399353027</ele>
        <time>2009-06-17T12:32:28Z</time>
      </trkpt>
      <trkpt lat="45.17558" lon="4.82993">
        <ele>145.93600463867</ele>
        <time>2009-06-17T12:32:41Z</time>
      </trkpt>
      <trkpt lat="45.17505" lon="4.83012">
        <ele>147.19700622559</ele>
        <time>2009-06-17T12:32:50Z</time>
      </trkpt>
      <trkpt lat="45.17473" lon="4.83014">
        <ele>148.07200622559</ele>
        <time>2009-06-17T12:32:56Z</time>
      </trkpt>
      <trkpt lat="45.17394" lon="4.82957">
        <ele>147.5</ele>
        <time>2009-06-17T12:33:11Z</time>
      </trkpt>
      <trkpt lat="45.17368" lon="4.82867">
        <ele>145.30999755859</ele>
        <time>2009-06-17T12:33:20Z</time>
      </trkpt>
      <trkpt lat="45.17387" lon="4.82782">
        <ele>143.36399841309</ele>
        <time>2009-06-17T12:33:27Z</time>
      </trkpt>
      <trkpt lat="45.17398" lon="4.82745">
        <ele>141.98100280762</ele>
        <time>2009-06-17T12:33:30Z</time>
      </trkpt>
      <trkpt lat="45.17415" lon="4.82684">
        <ele>141.33599853516</ele>
        <time>2009-06-17T12:33:35Z</time>
      </trkpt>
      <trkpt lat="45.17407" lon="4.82586">
        <ele>140.38499450684</ele>
        <time>2009-06-17T12:33:43Z</time>
      </trkpt>
      <trkpt lat="45.17402" lon="4.82575">
        <ele>140.35299682617</ele>
        <time>2009-06-17T12:33:44Z</time>
      </trkpt>
      <trkpt lat="45.17327" lon="4.82428">
        <ele>139.56599426269</ele>
        <time>2009-06-17T12:33:59Z</time>
      </trkpt>
      <trkpt lat="45.17321" lon="4.82407">
        <ele>139.79100036621</ele>
        <time>2009-06-17T12:34:01Z</time>
      </trkpt>
      <trkpt lat="45.17308" lon="4.8233">
        <ele>140.75900268555</ele>
        <time>2009-06-17T12:34:09Z</time>
      </trkpt>
      <trkpt lat="45.17337" lon="4.82271">
        <ele>142.06100463867</ele>
        <time>2009-06-17T12:34:17Z</time>
      </trkpt>
      <trkpt lat="45.17418" lon="4.82204">
        <ele>139.19599914551</ele>
        <time>2009-06-17T12:34:30Z</time>
      </trkpt>
      <trkpt lat="45.17473" lon="4.82163">
        <ele>138.05999755859</ele>
        <time>2009-06-17T12:34:38Z</time>
      </trkpt>
      <trkpt lat="45.17499" lon="4.8214">
        <ele>137.68699645996</ele>
        <time>2009-06-17T12:34:42Z</time>
      </trkpt>
      <trkpt lat="45.17505" lon="4.82137">
        <ele>137.62600708008</ele>
        <time>2009-06-17T12:34:44Z</time>
      </trkpt>
      <trkpt lat="45.1757" lon="4.82066">
        <ele>136.3390045166</ele>
        <time>2009-06-17T12:34:54Z</time>
      </trkpt>
      <trkpt lat="45.17639" lon="4.81941">
        <ele>135.56799316406</ele>
        <time>2009-06-17T12:35:09Z</time>
      </trkpt>
      <trkpt lat="45.17653" lon="4.81917">
        <ele>135.27400207519</ele>
        <time>2009-06-17T12:35:12Z</time>
      </trkpt>
      <trkpt lat="45.17674" lon="4.8188">
        <ele>135.72200012207</ele>
        <time>2009-06-17T12:35:18Z</time>
      </trkpt>
      <trkpt lat="45.17682" lon="4.81855">
        <ele>134.85200500488</ele>
        <time>2009-06-17T12:35:22Z</time>
      </trkpt>
      <trkpt lat="45.17711" lon="4.81765">
        <ele>134.92300415039</ele>
        <time>2009-06-17T12:35:33Z</time>
      </trkpt>
      <trkpt lat="45.17715" lon="4.81718">
        <ele>134.06399536133</ele>
        <time>2009-06-17T12:35:38Z</time>
      </trkpt>
      <trkpt lat="45.17712" lon="4.81576">
        <ele>133.69999694824</ele>
        <time>2009-06-17T12:35:53Z</time>
      </trkpt>
      <trkpt lat="45.17735" lon="4.81475">
        <ele>134.53199768066</ele>
        <time>2009-06-17T12:36:05Z</time>
      </trkpt>
      <trkpt lat="45.17737" lon="4.81467">
        <ele>134.97500610352</ele>
        <time>2009-06-17T12:36:08Z</time>
      </trkpt>
      <trkpt lat="45.17737" lon="4.81467">
        <ele>135.35299682617</ele>
        <time>2009-06-17T12:36:12Z</time>
      </trkpt>
      <trkpt lat="45.17797" lon="4.81437">
        <ele>135.25100708008</ele>
        <time>2009-06-17T12:36:14Z</time>
      </trkpt>
      <trkpt lat="45.17772" lon="4.81379">
        <ele>134.25500488281</ele>
        <time>2009-06-17T12:36:20Z</time>
      </trkpt>
      <trkpt lat="45.17777" lon="4.81334">
        <ele>133.30999755859</ele>
        <time>2009-06-17T12:36:26Z</time>
      </trkpt>
      <trkpt lat="45.17782" lon="4.81332">
        <ele>133.53100585938</ele>
        <time>2009-06-17T12:36:27Z</time>
      </trkpt>
      <trkpt lat="45.17795" lon="4.81328">
        <ele>133.77099609375</ele>
        <time>2009-06-17T12:36:29Z</time>
      </trkpt>
      <trkpt lat="45.17818" lon="4.81327">
        <ele>134.125</ele>
        <time>2009-06-17T12:36:34Z</time>
      </trkpt>
      <trkpt lat="45.17823" lon="4.81328">
        <ele>134.43899536133</ele>
        <time>2009-06-17T12:36:36Z</time>
      </trkpt>
      <trkpt lat="45.17905" lon="4.81352">
        <ele>133.82000732422</ele>
        <time>2009-06-17T12:36:51Z</time>
      </trkpt>
      <trkpt lat="45.18007" lon="4.81385">
        <ele>134.11999511719</ele>
        <time>2009-06-17T12:37:08Z</time>
      </trkpt>
      <trkpt lat="45.18108" lon="4.81402">
        <ele>133.78900146484</ele>
        <time>2009-06-17T12:37:24Z</time>
      </trkpt>
      <trkpt lat="45.18217" lon="4.81391">
        <ele>133.99200439453</ele>
        <time>2009-06-17T12:37:41Z</time>
      </trkpt>
      <trkpt lat="45.18324" lon="4.81382">
        <ele>135.19400024414</ele>
        <time>2009-06-17T12:37:58Z</time>
      </trkpt>
      <trkpt lat="45.18363" lon="4.81378">
        <ele>137.51499938965</ele>
        <time>2009-06-17T12:38:05Z</time>
      </trkpt>
      <trkpt lat="45.18395" lon="4.81377">
        <ele>139.28300476074</ele>
        <time>2009-06-17T12:38:11Z</time>
      </trkpt>
      <trkpt lat="45.18412" lon="4.81377">
        <ele>139.91499328613</ele>
        <time>2009-06-17T12:38:14Z</time>
      </trkpt>
      <trkpt lat="45.18445" lon="4.81386">
        <ele>140.44400024414</ele>
        <time>2009-06-17T12:38:21Z</time>
      </trkpt>
      <trkpt lat="45.18449" lon="4.81364">
        <ele>140.49099731445</ele>
        <time>2009-06-17T12:38:25Z</time>
      </trkpt>
      <trkpt lat="45.18408" lon="4.81171">
        <ele>143.84800720215</ele>
        <time>2009-06-17T12:38:50Z</time>
      </trkpt>
      <trkpt lat="45.18396" lon="4.81118">
        <ele>142.3809967041</ele>
        <time>2009-06-17T12:38:56Z</time>
      </trkpt>
      <trkpt lat="45.18372" lon="4.81">
        <ele>138.99099731445</ele>
        <time>2009-06-17T12:39:08Z</time>
      </trkpt>
      <trkpt lat="45.18367" lon="4.80956">
        <ele>137.94299316406</ele>
        <time>2009-06-17T12:39:12Z</time>
      </trkpt>
      <trkpt lat="45.18364" lon="4.80922">
        <ele>136.68200683594</ele>
        <time>2009-06-17T12:39:17Z</time>
      </trkpt>
      <trkpt lat="45.18371" lon="4.80875">
        <ele>136.42900085449</ele>
        <time>2009-06-17T12:39:19Z</time>
      </trkpt>
      <trkpt lat="45.1838" lon="4.80822">
        <ele>135.45899963379</ele>
        <time>2009-06-17T12:39:24Z</time>
      </trkpt>
      <trkpt lat="45.18421" lon="4.80785">
        <ele>134.19599914551</ele>
        <time>2009-06-17T12:39:30Z</time>
      </trkpt>
      <trkpt lat="45.18427" lon="4.8079">
        <ele>133.56100463867</ele>
        <time>2009-06-17T12:39:31Z</time>
      </trkpt>
      <trkpt lat="45.18445" lon="4.80806">
        <ele>132.41499328613</ele>
        <time>2009-06-17T12:39:35Z</time>
      </trkpt>
      <trkpt lat="45.18473" lon="4.80819">
        <ele>132.33599853516</ele>
        <time>2009-06-17T12:39:38Z</time>
      </trkpt>
      <trkpt lat="45.18486" lon="4.80817">
        <ele>132.23100280762</ele>
        <time>2009-06-17T12:39:40Z</time>
      </trkpt>
      <trkpt lat="45.18556" lon="4.80806">
        <ele>131.92100524902</ele>
        <time>2009-06-17T12:39:52Z</time>
      </trkpt>
      <trkpt lat="45.18641" lon="4.80767">
        <ele>132.04899597168</ele>
        <time>2009-06-17T12:40:07Z</time>
      </trkpt>
      <trkpt lat="45.18665" lon="4.80749">
        <ele>132.46899414062</ele>
        <time>2009-06-17T12:40:12Z</time>
      </trkpt>
      <trkpt lat="45.18673" lon="4.80729">
        <ele>131.86099243164</ele>
        <time>2009-06-17T12:40:18Z</time>
      </trkpt>
      <trkpt lat="45.18673" lon="4.80561">
        <ele>132.34800720215</ele>
        <time>2009-06-17T12:40:38Z</time>
      </trkpt>
      <trkpt lat="45.18673" lon="4.80446">
        <ele>132.53199768066</ele>
        <time>2009-06-17T12:40:53Z</time>
      </trkpt>
      <trkpt lat="45.18668" lon="4.80314">
        <ele>133.40800476074</ele>
        <time>2009-06-17T12:41:10Z</time>
      </trkpt>
      <trkpt lat="45.18668" lon="4.80218">
        <ele>134.27900695801</ele>
        <time>2009-06-17T12:41:23Z</time>
      </trkpt>
      <trkpt lat="45.18668" lon="4.80218">
        <ele>134.18200683594</ele>
        <time>2009-06-17T12:41:25Z</time>
      </trkpt>
      <trkpt lat="45.18664" lon="4.80116">
        <ele>136.38299560547</ele>
        <time>2009-06-17T12:41:38Z</time>
      </trkpt>
      <trkpt lat="45.18668" lon="4.79987">
        <ele>138.14100646973</ele>
        <time>2009-06-17T12:41:57Z</time>
      </trkpt>
      <trkpt lat="45.18664" lon="4.79928">
        <ele>138.7859954834</ele>
        <time>2009-06-17T12:42:04Z</time>
      </trkpt>
      <trkpt lat="45.18664" lon="4.79905">
        <ele>139.62300109863</ele>
        <time>2009-06-17T12:42:10Z</time>
      </trkpt>
      <trkpt lat="45.1866" lon="4.79815">
        <ele>140.875</ele>
        <time>2009-06-17T12:42:19Z</time>
      </trkpt>
      <trkpt lat="45.18668" lon="4.79701">
        <ele>143.80200195312</ele>
        <time>2009-06-17T12:42:36Z</time>
      </trkpt>
      <trkpt lat="45.18677" lon="4.79602">
        <ele>146.49499511719</ele>
        <time>2009-06-17T12:42:52Z</time>
      </trkpt>
      <trkpt lat="45.18676" lon="4.79546">
        <ele>148.74800109863</ele>
        <time>2009-06-17T12:43:01Z</time>
      </trkpt>
      <trkpt lat="45.18673" lon="4.7952">
        <ele>149.80999755859</ele>
        <time>2009-06-17T12:43:05Z</time>
      </trkpt>
      <trkpt lat="45.18631" lon="4.79469">
        <ele>152.50700378418</ele>
        <time>2009-06-17T12:43:16Z</time>
      </trkpt>
      <trkpt lat="45.18595" lon="4.79437">
        <ele>156.04400634766</ele>
        <time>2009-06-17T12:43:27Z</time>
      </trkpt>
      <trkpt lat="45.18516" lon="4.7936">
        <ele>160.31599426269</ele>
        <time>2009-06-17T12:43:43Z</time>
      </trkpt>
      <trkpt lat="45.18431" lon="4.79294">
        <ele>165.65400695801</ele>
        <time>2009-06-17T12:44:03Z</time>
      </trkpt>
      <trkpt lat="45.18406" lon="4.79263">
        <ele>167.68200683594</ele>
        <time>2009-06-17T12:44:10Z</time>
      </trkpt>
      <trkpt lat="45.18336" lon="4.79187">
        <ele>172.65699768066</ele>
        <time>2009-06-17T12:44:28Z</time>
      </trkpt>
      <trkpt lat="45.18329" lon="4.79178">
        <ele>173.14100646973</ele>
        <time>2009-06-17T12:44:30Z</time>
      </trkpt>
      <trkpt lat="45.183" lon="4.79134">
        <ele>175.93200683594</ele>
        <time>2009-06-17T12:44:39Z</time>
      </trkpt>
      <trkpt lat="45.18287" lon="4.791">
        <ele>177.61700439453</ele>
        <time>2009-06-17T12:44:45Z</time>
      </trkpt>
      <trkpt lat="45.18269" lon="4.79055">
        <ele>179.84700012207</ele>
        <time>2009-06-17T12:44:53Z</time>
      </trkpt>
      <trkpt lat="45.18255" lon="4.79022">
        <ele>181.25900268555</ele>
        <time>2009-06-17T12:44:59Z</time>
      </trkpt>
      <trkpt lat="45.18214" lon="4.79004">
        <ele>183.00999450684</ele>
        <time>2009-06-17T12:45:08Z</time>
      </trkpt>
      <trkpt lat="45.18209" lon="4.79008">
        <ele>184.40400695801</ele>
        <time>2009-06-17T12:45:13Z</time>
      </trkpt>
      <trkpt lat="45.18217" lon="4.79076">
        <ele>186.30000305176</ele>
        <time>2009-06-17T12:45:20Z</time>
      </trkpt>
      <trkpt lat="45.18236" lon="4.79143">
        <ele>189.5119934082</ele>
        <time>2009-06-17T12:45:33Z</time>
      </trkpt>
      <trkpt lat="45.18246" lon="4.7918">
        <ele>191.04299926758</ele>
        <time>2009-06-17T12:45:40Z</time>
      </trkpt>
      <trkpt lat="45.18256" lon="4.79209">
        <ele>192.03500366211</ele>
        <time>2009-06-17T12:45:45Z</time>
      </trkpt>
      <trkpt lat="45.1826" lon="4.79221">
        <ele>192.39799499512</ele>
        <time>2009-06-17T12:45:47Z</time>
      </trkpt>
      <trkpt lat="45.18284" lon="4.79263">
        <ele>194.44900512695</ele>
        <time>2009-06-17T12:45:55Z</time>
      </trkpt>
      <trkpt lat="45.18296" lon="4.7933">
        <ele>197.52099609375</ele>
        <time>2009-06-17T12:46:08Z</time>
      </trkpt>
      <trkpt lat="45.18295" lon="4.79341">
        <ele>197.88200378418</ele>
        <time>2009-06-17T12:46:10Z</time>
      </trkpt>
      <trkpt lat="45.1829" lon="4.79362">
        <ele>198.88600158691</ele>
        <time>2009-06-17T12:46:14Z</time>
      </trkpt>
      <trkpt lat="45.1828" lon="4.79379">
        <ele>200.15699768066</ele>
        <time>2009-06-17T12:46:18Z</time>
      </trkpt>
      <trkpt lat="45.18269" lon="4.79433">
        <ele>202.92199707031</ele>
        <time>2009-06-17T12:46:30Z</time>
      </trkpt>
      <trkpt lat="45.18304" lon="4.79444">
        <ele>205.11199951172</ele>
        <time>2009-06-17T12:46:40Z</time>
      </trkpt>
      <trkpt lat="45.18354" lon="4.79461">
        <ele>208.26100158691</ele>
        <time>2009-06-17T12:46:54Z</time>
      </trkpt>
      <trkpt lat="45.18388" lon="4.79527">
        <ele>211.77099609375</ele>
        <time>2009-06-17T12:47:10Z</time>
      </trkpt>
      <trkpt lat="45.18373" lon="4.79582">
        <ele>214.60299682617</ele>
        <time>2009-06-17T12:47:22Z</time>
      </trkpt>
      <trkpt lat="45.18352" lon="4.79641">
        <ele>217.59100341797</ele>
        <time>2009-06-17T12:47:35Z</time>
      </trkpt>
      <trkpt lat="45.18306" lon="4.7969">
        <ele>221.22599792481</ele>
        <time>2009-06-17T12:47:50Z</time>
      </trkpt>
      <trkpt lat="45.18249" lon="4.79712">
        <ele>224.93600463867</ele>
        <time>2009-06-17T12:48:06Z</time>
      </trkpt>
      <trkpt lat="45.18212" lon="4.79711">
        <ele>227.05799865723</ele>
        <time>2009-06-17T12:48:15Z</time>
      </trkpt>
      <trkpt lat="45.18186" lon="4.79683">
        <ele>229.51300048828</ele>
        <time>2009-06-17T12:48:23Z</time>
      </trkpt>
      <trkpt lat="45.18186" lon="4.79677">
        <ele>229.84300231934</ele>
        <time>2009-06-17T12:48:24Z</time>
      </trkpt>
      <trkpt lat="45.18181" lon="4.79632">
        <ele>231.81900024414</ele>
        <time>2009-06-17T12:48:31Z</time>
      </trkpt>
      <trkpt lat="45.18168" lon="4.79596">
        <ele>233.43200683594</ele>
        <time>2009-06-17T12:48:37Z</time>
      </trkpt>
      <trkpt lat="45.18099" lon="4.79526">
        <ele>238.23100280762</ele>
        <time>2009-06-17T12:48:56Z</time>
      </trkpt>
      <trkpt lat="45.18056" lon="4.79506">
        <ele>241.09700012207</ele>
        <time>2009-06-17T12:49:07Z</time>
      </trkpt>
      <trkpt lat="45.17993" lon="4.79494">
        <ele>245.05900573731</ele>
        <time>2009-06-17T12:49:23Z</time>
      </trkpt>
      <trkpt lat="45.17947" lon="4.79497">
        <ele>247.57000732422</ele>
        <time>2009-06-17T12:49:35Z</time>
      </trkpt>
      <trkpt lat="45.17926" lon="4.79483">
        <ele>248.76800537109</ele>
        <time>2009-06-17T12:49:41Z</time>
      </trkpt>
      <trkpt lat="45.17878" lon="4.79406">
        <ele>253.55200195312</ele>
        <time>2009-06-17T12:50:00Z</time>
      </trkpt>
      <trkpt lat="45.17838" lon="4.79338">
        <ele>256.97500610352</ele>
        <time>2009-06-17T12:50:16Z</time>
      </trkpt>
      <trkpt lat="45.17832" lon="4.79304">
        <ele>258.9289855957</ele>
        <time>2009-06-17T12:50:22Z</time>
      </trkpt>
      <trkpt lat="45.17814" lon="4.79229">
        <ele>262.03698730469</ele>
        <time>2009-06-17T12:50:37Z</time>
      </trkpt>
      <trkpt lat="45.17772" lon="4.79164">
        <ele>265.70498657227</ele>
        <time>2009-06-17T12:50:54Z</time>
      </trkpt>
      <trkpt lat="45.17739" lon="4.79088">
        <ele>269.15399169922</ele>
        <time>2009-06-17T12:51:09Z</time>
      </trkpt>
      <trkpt lat="45.17724" lon="4.78986">
        <ele>272.90200805664</ele>
        <time>2009-06-17T12:51:28Z</time>
      </trkpt>
      <trkpt lat="45.17724" lon="4.78948">
        <ele>275.07501220703</ele>
        <time>2009-06-17T12:51:39Z</time>
      </trkpt>
      <trkpt lat="45.1772" lon="4.7888">
        <ele>277.21200561523</ele>
        <time>2009-06-17T12:51:48Z</time>
      </trkpt>
      <trkpt lat="45.17693" lon="4.78779">
        <ele>281.49398803711</ele>
        <time>2009-06-17T12:52:07Z</time>
      </trkpt>
      <trkpt lat="45.17667" lon="4.78683">
        <ele>285.34600830078</ele>
        <time>2009-06-17T12:52:25Z</time>
      </trkpt>
      <trkpt lat="45.17665" lon="4.78677">
        <ele>285.51300048828</ele>
        <time>2009-06-17T12:52:26Z</time>
      </trkpt>
      <trkpt lat="45.17656" lon="4.78641">
        <ele>287.05499267578</ele>
        <time>2009-06-17T12:52:32Z</time>
      </trkpt>
      <trkpt lat="45.17651" lon="4.78608">
        <ele>288.39801025391</ele>
        <time>2009-06-17T12:52:37Z</time>
      </trkpt>
      <trkpt lat="45.17661" lon="4.78513">
        <ele>291.56799316406</ele>
        <time>2009-06-17T12:52:54Z</time>
      </trkpt>
      <trkpt lat="45.17676" lon="4.78404">
        <ele>295.43499755859</ele>
        <time>2009-06-17T12:53:15Z</time>
      </trkpt>
      <trkpt lat="45.17687" lon="4.78322">
        <ele>298.15399169922</ele>
        <time>2009-06-17T12:53:31Z</time>
      </trkpt>
      <trkpt lat="45.17686" lon="4.78227">
        <ele>300.64599609375</ele>
        <time>2009-06-17T12:53:48Z</time>
      </trkpt>
      <trkpt lat="45.17665" lon="4.78144">
        <ele>302.57400512695</ele>
        <time>2009-06-17T12:54:03Z</time>
      </trkpt>
      <trkpt lat="45.17664" lon="4.78138">
        <ele>302.57800292969</ele>
        <time>2009-06-17T12:54:04Z</time>
      </trkpt>
      <trkpt lat="45.17664" lon="4.7812">
        <ele>303.69400024414</ele>
        <time>2009-06-17T12:54:07Z</time>
      </trkpt>
      <trkpt lat="45.17638" lon="4.78083">
        <ele>305.01901245117</ele>
        <time>2009-06-17T12:54:16Z</time>
      </trkpt>
      <trkpt lat="45.17614" lon="4.78115">
        <ele>307.27301025391</ele>
        <time>2009-06-17T12:54:24Z</time>
      </trkpt>
      <trkpt lat="45.17608" lon="4.78142">
        <ele>308.47900390625</ele>
        <time>2009-06-17T12:54:28Z</time>
      </trkpt>
      <trkpt lat="45.17617" lon="4.78246">
        <ele>312.19100952148</ele>
        <time>2009-06-17T12:54:44Z</time>
      </trkpt>
      <trkpt lat="45.17621" lon="4.78289">
        <ele>313.82901000977</ele>
        <time>2009-06-17T12:54:52Z</time>
      </trkpt>
      <trkpt lat="45.17616" lon="4.78316">
        <ele>315.24499511719</ele>
        <time>2009-06-17T12:54:57Z</time>
      </trkpt>
      <trkpt lat="45.17599" lon="4.7837">
        <ele>317.37100219727</ele>
        <time>2009-06-17T12:55:08Z</time>
      </trkpt>
      <trkpt lat="45.17592" lon="4.78391">
        <ele>318.09298706055</ele>
        <time>2009-06-17T12:55:12Z</time>
      </trkpt>
      <trkpt lat="45.17567" lon="4.78444">
        <ele>320.28201293945</ele>
        <time>2009-06-17T12:55:24Z</time>
      </trkpt>
      <trkpt lat="45.17551" lon="4.7846">
        <ele>321.56600952148</ele>
        <time>2009-06-17T12:55:29Z</time>
      </trkpt>
      <trkpt lat="45.17547" lon="4.78463">
        <ele>321.78601074219</ele>
        <time>2009-06-17T12:55:30Z</time>
      </trkpt>
      <trkpt lat="45.17508" lon="4.78444">
        <ele>324.49700927734</ele>
        <time>2009-06-17T12:55:44Z</time>
      </trkpt>
      <trkpt lat="45.17485" lon="4.7838">
        <ele>327.92999267578</ele>
        <time>2009-06-17T12:56:00Z</time>
      </trkpt>
      <trkpt lat="45.17484" lon="4.78376">
        <ele>328.19100952148</ele>
        <time>2009-06-17T12:56:01Z</time>
      </trkpt>
      <trkpt lat="45.17459" lon="4.7829">
        <ele>331.45300292969</ele>
        <time>2009-06-17T12:56:19Z</time>
      </trkpt>
      <trkpt lat="45.17429" lon="4.78237">
        <ele>334.02801513672</ele>
        <time>2009-06-17T12:56:32Z</time>
      </trkpt>
      <trkpt lat="45.17385" lon="4.78179">
        <ele>337.01800537109</ele>
        <time>2009-06-17T12:56:48Z</time>
      </trkpt>
      <trkpt lat="45.17373" lon="4.78104">
        <ele>339.79501342773</ele>
        <time>2009-06-17T12:57:01Z</time>
      </trkpt>
      <trkpt lat="45.17333" lon="4.7803">
        <ele>343.38000488281</ele>
        <time>2009-06-17T12:57:17Z</time>
      </trkpt>
      <trkpt lat="45.1731" lon="4.77951">
        <ele>346.95999145508</ele>
        <time>2009-06-17T12:57:33Z</time>
      </trkpt>
      <trkpt lat="45.1729" lon="4.77886">
        <ele>349.56201171875</ele>
        <time>2009-06-17T12:57:46Z</time>
      </trkpt>
      <trkpt lat="45.1728" lon="4.77818">
        <ele>352.52099609375</ele>
        <time>2009-06-17T12:57:59Z</time>
      </trkpt>
      <trkpt lat="45.17278" lon="4.77802">
        <ele>353.17999267578</ele>
        <time>2009-06-17T12:58:02Z</time>
      </trkpt>
      <trkpt lat="45.17255" lon="4.77707">
        <ele>357.02499389648</ele>
        <time>2009-06-17T12:58:20Z</time>
      </trkpt>
      <trkpt lat="45.17224" lon="4.77606">
        <ele>361.63500976562</ele>
        <time>2009-06-17T12:58:41Z</time>
      </trkpt>
      <trkpt lat="45.17205" lon="4.77539">
        <ele>364.27499389648</ele>
        <time>2009-06-17T12:58:56Z</time>
      </trkpt>
      <trkpt lat="45.17162" lon="4.77482">
        <ele>367.7200012207</ele>
        <time>2009-06-17T12:59:12Z</time>
      </trkpt>
      <trkpt lat="45.17108" lon="4.77426">
        <ele>371.16299438477</ele>
        <time>2009-06-17T12:59:30Z</time>
      </trkpt>
      <trkpt lat="45.17104" lon="4.77364">
        <ele>374.15301513672</ele>
        <time>2009-06-17T12:59:43Z</time>
      </trkpt>
      <trkpt lat="45.17107" lon="4.77339">
        <ele>374.92001342773</ele>
        <time>2009-06-17T12:59:51Z</time>
      </trkpt>
      <trkpt lat="45.17107" lon="4.77337">
        <ele>374.5539855957</ele>
        <time>2009-06-17T12:59:57Z</time>
      </trkpt>
      <trkpt lat="45.17103" lon="4.77375">
        <ele>373.74200439453</ele>
        <time>2009-06-17T13:00:04Z</time>
      </trkpt>
      <trkpt lat="45.17102" lon="4.7739">
        <ele>373.2919921875</ele>
        <time>2009-06-17T13:00:07Z</time>
      </trkpt>
      <trkpt lat="45.17108" lon="4.77426">
        <ele>371.51501464844</ele>
        <time>2009-06-17T13:00:12Z</time>
      </trkpt>
      <trkpt lat="45.17153" lon="4.77473">
        <ele>368.61401367188</ele>
        <time>2009-06-17T13:00:20Z</time>
      </trkpt>
      <trkpt lat="45.17186" lon="4.77509">
        <ele>366.58599853516</ele>
        <time>2009-06-17T13:00:25Z</time>
      </trkpt>
      <trkpt lat="45.17198" lon="4.77528">
        <ele>365.72198486328</ele>
        <time>2009-06-17T13:00:27Z</time>
      </trkpt>
      <trkpt lat="45.17217" lon="4.77572">
        <ele>363.12100219727</ele>
        <time>2009-06-17T13:00:31Z</time>
      </trkpt>
      <trkpt lat="45.17234" lon="4.77649">
        <ele>360.78100585938</ele>
        <time>2009-06-17T13:00:37Z</time>
      </trkpt>
      <trkpt lat="45.17261" lon="4.77724">
        <ele>357.51098632812</ele>
        <time>2009-06-17T13:00:43Z</time>
      </trkpt>
      <trkpt lat="45.17265" lon="4.77737">
        <ele>356.81100463867</ele>
        <time>2009-06-17T13:00:44Z</time>
      </trkpt>
      <trkpt lat="45.17279" lon="4.77806">
        <ele>353.60101318359</ele>
        <time>2009-06-17T13:00:49Z</time>
      </trkpt>
      <trkpt lat="45.17291" lon="4.77887">
        <ele>351.29998779297</ele>
        <time>2009-06-17T13:00:55Z</time>
      </trkpt>
      <trkpt lat="45.17301" lon="4.77912">
        <ele>349.8450012207</ele>
        <time>2009-06-17T13:00:57Z</time>
      </trkpt>
      <trkpt lat="45.1731" lon="4.77953">
        <ele>348.38000488281</ele>
        <time>2009-06-17T13:01:00Z</time>
      </trkpt>
      <trkpt lat="45.17327" lon="4.78019">
        <ele>345.29998779297</ele>
        <time>2009-06-17T13:01:05Z</time>
      </trkpt>
      <trkpt lat="45.17352" lon="4.78062">
        <ele>343.64498901367</ele>
        <time>2009-06-17T13:01:09Z</time>
      </trkpt>
      <trkpt lat="45.17367" lon="4.78089">
        <ele>342.26599121094</ele>
        <time>2009-06-17T13:01:12Z</time>
      </trkpt>
      <trkpt lat="45.17371" lon="4.78096">
        <ele>342.13101196289</ele>
        <time>2009-06-17T13:01:16Z</time>
      </trkpt>
      <trkpt lat="45.17352" lon="4.78062">
        <ele>343.31399536133</ele>
        <time>2009-06-17T13:01:25Z</time>
      </trkpt>
      <trkpt lat="45.17328" lon="4.78021">
        <ele>345.49499511719</ele>
        <time>2009-06-17T13:01:35Z</time>
      </trkpt>
      <trkpt lat="45.17308" lon="4.77942">
        <ele>348.88500976562</ele>
        <time>2009-06-17T13:01:51Z</time>
      </trkpt>
      <trkpt lat="45.173" lon="4.77911">
        <ele>350.08099365234</ele>
        <time>2009-06-17T13:01:57Z</time>
      </trkpt>
      <trkpt lat="45.17294" lon="4.77893">
        <ele>350.81900024414</ele>
        <time>2009-06-17T13:02:01Z</time>
      </trkpt>
      <trkpt lat="45.17284" lon="4.77858">
        <ele>352.25698852539</ele>
        <time>2009-06-17T13:02:10Z</time>
      </trkpt>
      <trkpt lat="45.17277" lon="4.77792">
        <ele>355.16198730469</ele>
        <time>2009-06-17T13:02:25Z</time>
      </trkpt>
      <trkpt lat="45.17257" lon="4.77713">
        <ele>358.42300415039</ele>
        <time>2009-06-17T13:02:43Z</time>
      </trkpt>
      <trkpt lat="45.17228" lon="4.77627">
        <ele>362.23199462891</ele>
        <time>2009-06-17T13:03:04Z</time>
      </trkpt>
      <trkpt lat="45.17214" lon="4.77557">
        <ele>364.74700927734</ele>
        <time>2009-06-17T13:03:19Z</time>
      </trkpt>
      <trkpt lat="45.1718" lon="4.775">
        <ele>367.88000488281</ele>
        <time>2009-06-17T13:03:36Z</time>
      </trkpt>
      <trkpt lat="45.17131" lon="4.77453">
        <ele>371.05999755859</ele>
        <time>2009-06-17T13:03:56Z</time>
      </trkpt>
      <trkpt lat="45.17102" lon="4.77398">
        <ele>374.11599731445</ele>
        <time>2009-06-17T13:04:14Z</time>
      </trkpt>
      <trkpt lat="45.17108" lon="4.77323">
        <ele>376.92999267578</ele>
        <time>2009-06-17T13:04:32Z</time>
      </trkpt>
      <trkpt lat="45.17104" lon="4.77263">
        <ele>379.52099609375</ele>
        <time>2009-06-17T13:04:47Z</time>
      </trkpt>
      <trkpt lat="45.17064" lon="4.7722">
        <ele>381.95498657227</ele>
        <time>2009-06-17T13:05:03Z</time>
      </trkpt>
      <trkpt lat="45.17003" lon="4.77176">
        <ele>385.98999023438</ele>
        <time>2009-06-17T13:05:24Z</time>
      </trkpt>
      <trkpt lat="45.16969" lon="4.77093">
        <ele>389.67300415039</ele>
        <time>2009-06-17T13:05:46Z</time>
      </trkpt>
      <trkpt lat="45.16932" lon="4.76996">
        <ele>394.29400634766</ele>
        <time>2009-06-17T13:06:11Z</time>
      </trkpt>
      <trkpt lat="45.16915" lon="4.76911">
        <ele>397.67199707031</ele>
        <time>2009-06-17T13:06:31Z</time>
      </trkpt>
      <trkpt lat="45.16941" lon="4.76845">
        <ele>399.93600463867</ele>
        <time>2009-06-17T13:06:49Z</time>
      </trkpt>
      <trkpt lat="45.16977" lon="4.76811">
        <ele>400.44000244141</ele>
        <time>2009-06-17T13:07:02Z</time>
      </trkpt>
      <trkpt lat="45.17049" lon="4.76753">
        <ele>401.89801025391</ele>
        <time>2009-06-17T13:07:21Z</time>
      </trkpt>
      <trkpt lat="45.17082" lon="4.76726">
        <ele>402.64700317383</ele>
        <time>2009-06-17T13:07:29Z</time>
      </trkpt>
      <trkpt lat="45.17115" lon="4.76664">
        <ele>403.34298706055</ele>
        <time>2009-06-17T13:07:40Z</time>
      </trkpt>
      <trkpt lat="45.17132" lon="4.76552">
        <ele>404.85101318359</ele>
        <time>2009-06-17T13:07:57Z</time>
      </trkpt>
      <trkpt lat="45.17106" lon="4.76442">
        <ele>406.93499755859</ele>
        <time>2009-06-17T13:08:14Z</time>
      </trkpt>
      <trkpt lat="45.17086" lon="4.76377">
        <ele>408.18798828125</ele>
        <time>2009-06-17T13:08:26Z</time>
      </trkpt>
      <trkpt lat="45.17076" lon="4.76347">
        <ele>409.15301513672</ele>
        <time>2009-06-17T13:08:32Z</time>
      </trkpt>
      <trkpt lat="45.17072" lon="4.76335">
        <ele>410.23300170898</ele>
        <time>2009-06-17T13:08:41Z</time>
      </trkpt>
      <trkpt lat="45.17047" lon="4.76257">
        <ele>410.77099609375</ele>
        <time>2009-06-17T13:08:54Z</time>
      </trkpt>
      <trkpt lat="45.17007" lon="4.76185">
        <ele>413.92700195312</ele>
        <time>2009-06-17T13:09:12Z</time>
      </trkpt>
      <trkpt lat="45.16972" lon="4.7616">
        <ele>415.64599609375</ele>
        <time>2009-06-17T13:09:23Z</time>
      </trkpt>
      <trkpt lat="45.16963" lon="4.76157">
        <ele>416.35598754883</ele>
        <time>2009-06-17T13:09:29Z</time>
      </trkpt>
      <trkpt lat="45.16953" lon="4.76153">
        <ele>416.625</ele>
        <time>2009-06-17T13:10:13Z</time>
      </trkpt>
      <trkpt lat="45.1691" lon="4.76138">
        <ele>419.53201293945</ele>
        <time>2009-06-17T13:10:29Z</time>
      </trkpt>
      <trkpt lat="45.16873" lon="4.76121">
        <ele>421.29299926758</ele>
        <time>2009-06-17T13:10:42Z</time>
      </trkpt>
      <trkpt lat="45.16825" lon="4.76082">
        <ele>423.10400390625</ele>
        <time>2009-06-17T13:10:58Z</time>
      </trkpt>
      <trkpt lat="45.16757" lon="4.7602">
        <ele>424.21499633789</ele>
        <time>2009-06-17T13:11:18Z</time>
      </trkpt>
      <trkpt lat="45.16692" lon="4.75944">
        <ele>425.36199951172</ele>
        <time>2009-06-17T13:11:35Z</time>
      </trkpt>
      <trkpt lat="45.16688" lon="4.75925">
        <ele>425.76300048828</ele>
        <time>2009-06-17T13:11:38Z</time>
      </trkpt>
      <trkpt lat="45.16686" lon="4.75914">
        <ele>426.15399169922</ele>
        <time>2009-06-17T13:11:40Z</time>
      </trkpt>
      <trkpt lat="45.16672" lon="4.75814">
        <ele>429.90399169922</ele>
        <time>2009-06-17T13:11:59Z</time>
      </trkpt>
      <trkpt lat="45.16656" lon="4.75728">
        <ele>431.30099487305</ele>
        <time>2009-06-17T13:12:14Z</time>
      </trkpt>
      <trkpt lat="45.16608" lon="4.75615">
        <ele>434.34399414062</ele>
        <time>2009-06-17T13:12:36Z</time>
      </trkpt>
      <trkpt lat="45.16566" lon="4.75518">
        <ele>437.76000976562</ele>
        <time>2009-06-17T13:12:56Z</time>
      </trkpt>
      <trkpt lat="45.16537" lon="4.7545">
        <ele>440.72500610352</ele>
        <time>2009-06-17T13:13:10Z</time>
      </trkpt>
      <trkpt lat="45.16508" lon="4.75388">
        <ele>441.5530090332</ele>
        <time>2009-06-17T13:13:22Z</time>
      </trkpt>
      <trkpt lat="45.16465" lon="4.75308">
        <ele>444.37100219727</ele>
        <time>2009-06-17T13:13:39Z</time>
      </trkpt>
      <trkpt lat="45.16433" lon="4.75242">
        <ele>446.00698852539</ele>
        <time>2009-06-17T13:13:53Z</time>
      </trkpt>
      <trkpt lat="45.16407" lon="4.75186">
        <ele>446.14199829102</ele>
        <time>2009-06-17T13:14:04Z</time>
      </trkpt>
      <trkpt lat="45.16376" lon="4.75122">
        <ele>446.36801147461</ele>
        <time>2009-06-17T13:14:16Z</time>
      </trkpt>
      <trkpt lat="45.16359" lon="4.75088">
        <ele>445.57299804688</ele>
        <time>2009-06-17T13:14:22Z</time>
      </trkpt>
      <trkpt lat="45.16332" lon="4.7503">
        <ele>445.25500488281</ele>
        <time>2009-06-17T13:14:32Z</time>
      </trkpt>
      <trkpt lat="45.1632" lon="4.75007">
        <ele>445.55700683594</ele>
        <time>2009-06-17T13:14:36Z</time>
      </trkpt>
      <trkpt lat="45.16264" lon="4.74891">
        <ele>446.31100463867</ele>
        <time>2009-06-17T13:14:57Z</time>
      </trkpt>
      <trkpt lat="45.16261" lon="4.74884">
        <ele>446.51000976562</ele>
        <time>2009-06-17T13:15:02Z</time>
      </trkpt>
      <trkpt lat="45.16237" lon="4.74766">
        <ele>444.11499023438</ele>
        <time>2009-06-17T13:15:15Z</time>
      </trkpt>
      <trkpt lat="45.16235" lon="4.74608">
        <ele>441.16400146484</ele>
        <time>2009-06-17T13:15:32Z</time>
      </trkpt>
      <trkpt lat="45.16235" lon="4.74547">
        <ele>440.94400024414</ele>
        <time>2009-06-17T13:15:38Z</time>
      </trkpt>
      <trkpt lat="45.1621" lon="4.74491">
        <ele>441.71899414062</ele>
        <time>2009-06-17T13:15:45Z</time>
      </trkpt>
      <trkpt lat="45.16153" lon="4.74434">
        <ele>442.89401245117</ele>
        <time>2009-06-17T13:15:56Z</time>
      </trkpt>
      <trkpt lat="45.16105" lon="4.74385">
        <ele>444.15200805664</ele>
        <time>2009-06-17T13:16:06Z</time>
      </trkpt>
      <trkpt lat="45.16072" lon="4.74352">
        <ele>445.32400512695</ele>
        <time>2009-06-17T13:16:13Z</time>
      </trkpt>
      <trkpt lat="45.16026" lon="4.74306">
        <ele>446.91400146484</ele>
        <time>2009-06-17T13:16:23Z</time>
      </trkpt>
      <trkpt lat="45.1593" lon="4.74215">
        <ele>449.64801025391</ele>
        <time>2009-06-17T13:16:47Z</time>
      </trkpt>
      <trkpt lat="45.159" lon="4.74157">
        <ele>450.47399902344</ele>
        <time>2009-06-17T13:16:53Z</time>
      </trkpt>
      <trkpt lat="45.15874" lon="4.74042">
        <ele>453.13400268555</ele>
        <time>2009-06-17T13:17:09Z</time>
      </trkpt>
      <trkpt lat="45.15868" lon="4.74024">
        <ele>453.48300170898</ele>
        <time>2009-06-17T13:17:12Z</time>
      </trkpt>
      <trkpt lat="45.15855" lon="4.74002">
        <ele>453.48098754883</ele>
        <time>2009-06-17T13:17:16Z</time>
      </trkpt>
      <trkpt lat="45.15827" lon="4.73974">
        <ele>452.61801147461</ele>
        <time>2009-06-17T13:17:22Z</time>
      </trkpt>
      <trkpt lat="45.15802" lon="4.73894">
        <ele>450.22100830078</ele>
        <time>2009-06-17T13:17:32Z</time>
      </trkpt>
      <trkpt lat="45.15802" lon="4.73884">
        <ele>450.22900390625</ele>
        <time>2009-06-17T13:17:33Z</time>
      </trkpt>
      <trkpt lat="45.1582" lon="4.73794">
        <ele>447.80599975586</ele>
        <time>2009-06-17T13:17:42Z</time>
      </trkpt>
      <trkpt lat="45.15818" lon="4.7374">
        <ele>446.73599243164</ele>
        <time>2009-06-17T13:17:47Z</time>
      </trkpt>
      <trkpt lat="45.1581" lon="4.73721">
        <ele>446.16500854492</ele>
        <time>2009-06-17T13:17:49Z</time>
      </trkpt>
      <trkpt lat="45.15797" lon="4.73691">
        <ele>445.51800537109</ele>
        <time>2009-06-17T13:17:52Z</time>
      </trkpt>
      <trkpt lat="45.15784" lon="4.73661">
        <ele>444.25601196289</ele>
        <time>2009-06-17T13:17:55Z</time>
      </trkpt>
      <trkpt lat="45.15801" lon="4.73596">
        <ele>442.73699951172</ele>
        <time>2009-06-17T13:18:01Z</time>
      </trkpt>
      <trkpt lat="45.15835" lon="4.73557">
        <ele>441.09298706055</ele>
        <time>2009-06-17T13:18:06Z</time>
      </trkpt>
      <trkpt lat="45.15856" lon="4.73532">
        <ele>439.57000732422</ele>
        <time>2009-06-17T13:18:09Z</time>
      </trkpt>
      <trkpt lat="45.1587" lon="4.73515">
        <ele>438.52700805664</ele>
        <time>2009-06-17T13:18:11Z</time>
      </trkpt>
      <trkpt lat="45.15894" lon="4.73419">
        <ele>436.15200805664</ele>
        <time>2009-06-17T13:18:19Z</time>
      </trkpt>
      <trkpt lat="45.15864" lon="4.73355">
        <ele>435.24899291992</ele>
        <time>2009-06-17T13:18:25Z</time>
      </trkpt>
      <trkpt lat="45.15808" lon="4.7332">
        <ele>433.87100219727</ele>
        <time>2009-06-17T13:18:32Z</time>
      </trkpt>
      <trkpt lat="45.15768" lon="4.73295">
        <ele>433.23300170898</ele>
        <time>2009-06-17T13:18:37Z</time>
      </trkpt>
      <trkpt lat="45.1574" lon="4.73272">
        <ele>431.88598632812</ele>
        <time>2009-06-17T13:18:41Z</time>
      </trkpt>
      <trkpt lat="45.15727" lon="4.73198">
        <ele>429.63000488281</ele>
        <time>2009-06-17T13:18:48Z</time>
      </trkpt>
      <trkpt lat="45.15761" lon="4.73146">
        <ele>428.19100952148</ele>
        <time>2009-06-17T13:18:54Z</time>
      </trkpt>
      <trkpt lat="45.15835" lon="4.73098">
        <ele>425.60598754883</ele>
        <time>2009-06-17T13:19:03Z</time>
      </trkpt>
      <trkpt lat="45.15867" lon="4.73058">
        <ele>424.01901245117</ele>
        <time>2009-06-17T13:19:08Z</time>
      </trkpt>
      <trkpt lat="45.15905" lon="4.72957">
        <ele>420.94000244141</ele>
        <time>2009-06-17T13:19:17Z</time>
      </trkpt>
      <trkpt lat="45.15914" lon="4.72868">
        <ele>419.26098632812</ele>
        <time>2009-06-17T13:19:24Z</time>
      </trkpt>
      <trkpt lat="45.15896" lon="4.72755">
        <ele>418.44400024414</ele>
        <time>2009-06-17T13:19:33Z</time>
      </trkpt>
      <trkpt lat="45.15884" lon="4.72674">
        <ele>418.18798828125</ele>
        <time>2009-06-17T13:19:40Z</time>
      </trkpt>
      <trkpt lat="45.15872" lon="4.72597">
        <ele>418.31399536133</ele>
        <time>2009-06-17T13:19:47Z</time>
      </trkpt>
      <trkpt lat="45.1586" lon="4.72535">
        <ele>419.01501464844</ele>
        <time>2009-06-17T13:19:53Z</time>
      </trkpt>
      <trkpt lat="45.15843" lon="4.72448">
        <ele>420.24700927734</ele>
        <time>2009-06-17T13:20:02Z</time>
      </trkpt>
      <trkpt lat="45.15828" lon="4.72373">
        <ele>422.24301147461</ele>
        <time>2009-06-17T13:20:11Z</time>
      </trkpt>
      <trkpt lat="45.1581" lon="4.7227">
        <ele>425.1669921875</ele>
        <time>2009-06-17T13:20:26Z</time>
      </trkpt>
      <trkpt lat="45.15804" lon="4.7224">
        <ele>425.27099609375</ele>
        <time>2009-06-17T13:20:28Z</time>
      </trkpt>
      <trkpt lat="45.15791" lon="4.72183">
        <ele>425.59399414062</ele>
        <time>2009-06-17T13:20:35Z</time>
      </trkpt>
      <trkpt lat="45.15779" lon="4.72129">
        <ele>426.75500488281</ele>
        <time>2009-06-17T13:20:42Z</time>
      </trkpt>
      <trkpt lat="45.15772" lon="4.72089">
        <ele>427.65301513672</ele>
        <time>2009-06-17T13:20:47Z</time>
      </trkpt>
      <trkpt lat="45.1575" lon="4.71974">
        <ele>430.56201171875</ele>
        <time>2009-06-17T13:21:02Z</time>
      </trkpt>
      <trkpt lat="45.15729" lon="4.71921">
        <ele>432.12298583984</ele>
        <time>2009-06-17T13:21:08Z</time>
      </trkpt>
      <trkpt lat="45.15637" lon="4.71823">
        <ele>434.15600585938</ele>
        <time>2009-06-17T13:21:26Z</time>
      </trkpt>
      <trkpt lat="45.15528" lon="4.71714">
        <ele>437.81799316406</ele>
        <time>2009-06-17T13:21:46Z</time>
      </trkpt>
      <trkpt lat="45.15411" lon="4.71591">
        <ele>442.3219909668</ele>
        <time>2009-06-17T13:22:08Z</time>
      </trkpt>
      <trkpt lat="45.1533" lon="4.71457">
        <ele>446.41000366211</ele>
        <time>2009-06-17T13:22:27Z</time>
      </trkpt>
      <trkpt lat="45.15239" lon="4.7129">
        <ele>448.73498535156</ele>
        <time>2009-06-17T13:22:50Z</time>
      </trkpt>
      <trkpt lat="45.15146" lon="4.71153">
        <ele>449.71600341797</ele>
        <time>2009-06-17T13:23:08Z</time>
      </trkpt>
      <trkpt lat="45.15041" lon="4.71025">
        <ele>455.27600097656</ele>
        <time>2009-06-17T13:23:26Z</time>
      </trkpt>
      <trkpt lat="45.1501" lon="4.70988">
        <ele>457.8869934082</ele>
        <time>2009-06-17T13:23:31Z</time>
      </trkpt>
      <trkpt lat="45.14968" lon="4.70932">
        <ele>461.29400634766</ele>
        <time>2009-06-17T13:23:39Z</time>
      </trkpt>
      <trkpt lat="45.14882" lon="4.70821">
        <ele>463.50799560547</ele>
        <time>2009-06-17T13:23:59Z</time>
      </trkpt>
      <trkpt lat="45.14816" lon="4.70742">
        <ele>466.45199584961</ele>
        <time>2009-06-17T13:24:17Z</time>
      </trkpt>
      <trkpt lat="45.14762" lon="4.70681">
        <ele>470.17401123047</ele>
        <time>2009-06-17T13:24:36Z</time>
      </trkpt>
      <trkpt lat="45.14718" lon="4.70647">
        <ele>472.5830078125</ele>
        <time>2009-06-17T13:24:52Z</time>
      </trkpt>
      <trkpt lat="45.14693" lon="4.70628">
        <ele>474.09799194336</ele>
        <time>2009-06-17T13:25:06Z</time>
      </trkpt>
      <trkpt lat="45.14688" lon="4.70619">
        <ele>474.24301147461</ele>
        <time>2009-06-17T13:25:20Z</time>
      </trkpt>
      <trkpt lat="45.14686" lon="4.70614">
        <ele>474.37701416016</ele>
        <time>2009-06-17T13:25:23Z</time>
      </trkpt>
      <trkpt lat="45.14686" lon="4.70614">
        <ele>474.57000732422</ele>
        <time>2009-06-17T13:25:30Z</time>
      </trkpt>
      <trkpt lat="45.14686" lon="4.70614">
        <ele>474.86700439453</ele>
        <time>2009-06-17T13:25:50Z</time>
      </trkpt>
      <trkpt lat="45.14686" lon="4.70614">
        <ele>475.26501464844</ele>
        <time>2009-06-17T13:25:51Z</time>
      </trkpt>
      <trkpt lat="45.14686" lon="4.70614">
        <ele>475.14001464844</ele>
        <time>2009-06-17T13:25:52Z</time>
      </trkpt>
      <trkpt lat="45.14686" lon="4.70614">
        <ele>475.91799926758</ele>
        <time>2009-06-17T13:26:42Z</time>
      </trkpt>
      <trkpt lat="45.14686" lon="4.70614">
        <ele>475.96099853516</ele>
        <time>2009-06-17T13:26:43Z</time>
      </trkpt>
      <trkpt lat="45.1466" lon="4.70605">
        <ele>476.73999023438</ele>
        <time>2009-06-17T13:26:54Z</time>
      </trkpt>
      <trkpt lat="45.14642" lon="4.70602">
        <ele>476.6549987793</ele>
        <time>2009-06-17T13:26:55Z</time>
      </trkpt>
      <trkpt lat="45.14639" lon="4.70601">
        <ele>476.99301147461</ele>
        <time>2009-06-17T13:26:58Z</time>
      </trkpt>
      <trkpt lat="45.1466" lon="4.70605">
        <ele>477.86499023438</ele>
        <time>2009-06-17T13:27:03Z</time>
      </trkpt>
      <trkpt lat="45.14643" lon="4.70622">
        <ele>478.03698730469</ele>
        <time>2009-06-17T13:27:05Z</time>
      </trkpt>
      <trkpt lat="45.1462" lon="4.7063">
        <ele>477.93899536133</ele>
        <time>2009-06-17T13:27:12Z</time>
      </trkpt>
      <trkpt lat="45.14617" lon="4.70636">
        <ele>477.61199951172</ele>
        <time>2009-06-17T13:27:14Z</time>
      </trkpt>
      <trkpt lat="45.14615" lon="4.70639">
        <ele>477.5419921875</ele>
        <time>2009-06-17T13:27:17Z</time>
      </trkpt>
      <trkpt lat="45.14615" lon="4.70639">
        <ele>477.6549987793</ele>
        <time>2009-06-17T13:29:13Z</time>
      </trkpt>
      <trkpt lat="45.14615" lon="4.70639">
        <ele>478.08898925781</ele>
        <time>2009-06-17T13:29:17Z</time>
      </trkpt>
      <trkpt lat="45.14615" lon="4.70639">
        <ele>478.8630065918</ele>
        <time>2009-06-17T13:30:22Z</time>
      </trkpt>
      <trkpt lat="45.1462" lon="4.70629">
        <ele>479.4460144043</ele>
        <time>2009-06-17T13:30:27Z</time>
      </trkpt>
      <trkpt lat="45.1463" lon="4.70616">
        <ele>479.51901245117</ele>
        <time>2009-06-17T13:30:32Z</time>
      </trkpt>
      <trkpt lat="45.14632" lon="4.70615">
        <ele>479.22900390625</ele>
        <time>2009-06-17T13:30:34Z</time>
      </trkpt>
      <trkpt lat="45.1466" lon="4.70605">
        <ele>477.95498657227</ele>
        <time>2009-06-17T13:30:43Z</time>
      </trkpt>
      <trkpt lat="45.1466" lon="4.70605">
        <ele>478.16799926758</ele>
        <time>2009-06-17T13:30:44Z</time>
      </trkpt>
      <trkpt lat="45.14633" lon="4.706">
        <ele>478.37899780273</ele>
        <time>2009-06-17T13:30:48Z</time>
      </trkpt>
      <trkpt lat="45.14606" lon="4.70598">
        <ele>479.09600830078</ele>
        <time>2009-06-17T13:30:57Z</time>
      </trkpt>
      <trkpt lat="45.14592" lon="4.70599">
        <ele>478.82400512695</ele>
        <time>2009-06-17T13:31:02Z</time>
      </trkpt>
      <trkpt lat="45.14557" lon="4.70603">
        <ele>478.83700561523</ele>
        <time>2009-06-17T13:31:09Z</time>
      </trkpt>
      <trkpt lat="45.14485" lon="4.70615">
        <ele>478.13900756836</ele>
        <time>2009-06-17T13:31:23Z</time>
      </trkpt>
      <trkpt lat="45.14474" lon="4.70618">
        <ele>478.01699829102</ele>
        <time>2009-06-17T13:31:25Z</time>
      </trkpt>
      <trkpt lat="45.14438" lon="4.7062">
        <ele>477.50299072266</ele>
        <time>2009-06-17T13:31:32Z</time>
      </trkpt>
      <trkpt lat="45.14302" lon="4.7063">
        <ele>475.9280090332</ele>
        <time>2009-06-17T13:31:55Z</time>
      </trkpt>
      <trkpt lat="45.14221" lon="4.70637">
        <ele>473.32400512695</ele>
        <time>2009-06-17T13:32:07Z</time>
      </trkpt>
      <trkpt lat="45.14125" lon="4.70654">
        <ele>470.51501464844</ele>
        <time>2009-06-17T13:32:20Z</time>
      </trkpt>
      <trkpt lat="45.14101" lon="4.70658">
        <ele>469.81799316406</ele>
        <time>2009-06-17T13:32:23Z</time>
      </trkpt>
      <trkpt lat="45.14072" lon="4.7067">
        <ele>468.99398803711</ele>
        <time>2009-06-17T13:32:27Z</time>
      </trkpt>
      <trkpt lat="45.14014" lon="4.70728">
        <ele>468.40899658203</ele>
        <time>2009-06-17T13:32:36Z</time>
      </trkpt>
      <trkpt lat="45.13935" lon="4.70812">
        <ele>467.1789855957</ele>
        <time>2009-06-17T13:32:49Z</time>
      </trkpt>
      <trkpt lat="45.13879" lon="4.70819">
        <ele>466.87200927734</ele>
        <time>2009-06-17T13:32:57Z</time>
      </trkpt>
      <trkpt lat="45.13867" lon="4.70808">
        <ele>466.85101318359</ele>
        <time>2009-06-17T13:32:59Z</time>
      </trkpt>
      <trkpt lat="45.13778" lon="4.70742">
        <ele>465.82501220703</ele>
        <time>2009-06-17T13:33:12Z</time>
      </trkpt>
      <trkpt lat="45.13657" lon="4.70707">
        <ele>466.76098632812</ele>
        <time>2009-06-17T13:33:29Z</time>
      </trkpt>
      <trkpt lat="45.13564" lon="4.70683">
        <ele>466.69198608398</ele>
        <time>2009-06-17T13:33:43Z</time>
      </trkpt>
      <trkpt lat="45.13543" lon="4.70675">
        <ele>466.37899780273</ele>
        <time>2009-06-17T13:33:46Z</time>
      </trkpt>
      <trkpt lat="45.13512" lon="4.70643">
        <ele>465.57998657227</ele>
        <time>2009-06-17T13:33:51Z</time>
      </trkpt>
      <trkpt lat="45.13385" lon="4.70433">
        <ele>460.28100585938</ele>
        <time>2009-06-17T13:34:14Z</time>
      </trkpt>
      <trkpt lat="45.1331" lon="4.70339">
        <ele>457.84600830078</ele>
        <time>2009-06-17T13:34:25Z</time>
      </trkpt>
      <trkpt lat="45.13242" lon="4.70289">
        <ele>455.76599121094</ele>
        <time>2009-06-17T13:34:33Z</time>
      </trkpt>
      <trkpt lat="45.13208" lon="4.70264">
        <ele>455.53298950195</ele>
        <time>2009-06-17T13:34:37Z</time>
      </trkpt>
      <trkpt lat="45.13145" lon="4.70271">
        <ele>455.62600708008</ele>
        <time>2009-06-17T13:34:45Z</time>
      </trkpt>
      <trkpt lat="45.13134" lon="4.70294">
        <ele>456.61700439453</ele>
        <time>2009-06-17T13:34:48Z</time>
      </trkpt>
      <trkpt lat="45.13123" lon="4.70332">
        <ele>457.75</ele>
        <time>2009-06-17T13:34:53Z</time>
      </trkpt>
      <trkpt lat="45.13116" lon="4.70359">
        <ele>458.74301147461</ele>
        <time>2009-06-17T13:34:57Z</time>
      </trkpt>
      <trkpt lat="45.13085" lon="4.70405">
        <ele>460.72900390625</ele>
        <time>2009-06-17T13:35:11Z</time>
      </trkpt>
      <trkpt lat="45.13059" lon="4.70413">
        <ele>461.79400634766</ele>
        <time>2009-06-17T13:35:18Z</time>
      </trkpt>
      <trkpt lat="45.13051" lon="4.70415">
        <ele>462.35501098633</ele>
        <time>2009-06-17T13:35:20Z</time>
      </trkpt>
      <trkpt lat="45.13021" lon="4.70406">
        <ele>463.29598999023</ele>
        <time>2009-06-17T13:35:27Z</time>
      </trkpt>
      <trkpt lat="45.12939" lon="4.7038">
        <ele>465.90899658203</ele>
        <time>2009-06-17T13:35:45Z</time>
      </trkpt>
      <trkpt lat="45.1292" lon="4.70386">
        <ele>466.32598876953</ele>
        <time>2009-06-17T13:35:49Z</time>
      </trkpt>
      <trkpt lat="45.12841" lon="4.70447">
        <ele>468.87701416016</ele>
        <time>2009-06-17T13:36:08Z</time>
      </trkpt>
      <trkpt lat="45.12812" lon="4.70465">
        <ele>469.80499267578</ele>
        <time>2009-06-17T13:36:15Z</time>
      </trkpt>
      <trkpt lat="45.12776" lon="4.70478">
        <ele>470.77099609375</ele>
        <time>2009-06-17T13:36:23Z</time>
      </trkpt>
      <trkpt lat="45.12682" lon="4.70503">
        <ele>472.75100708008</ele>
        <time>2009-06-17T13:36:43Z</time>
      </trkpt>
      <trkpt lat="45.12584" lon="4.70529">
        <ele>475.41598510742</ele>
        <time>2009-06-17T13:37:05Z</time>
      </trkpt>
      <trkpt lat="45.12486" lon="4.70569">
        <ele>478.45300292969</ele>
        <time>2009-06-17T13:37:28Z</time>
      </trkpt>
      <trkpt lat="45.12411" lon="4.70607">
        <ele>480.44400024414</ele>
        <time>2009-06-17T13:37:47Z</time>
      </trkpt>
      <trkpt lat="45.12332" lon="4.70626">
        <ele>482.85598754883</ele>
        <time>2009-06-17T13:38:06Z</time>
      </trkpt>
      <trkpt lat="45.12252" lon="4.70604">
        <ele>485.19799804688</ele>
        <time>2009-06-17T13:38:25Z</time>
      </trkpt>
      <trkpt lat="45.12175" lon="4.70553">
        <ele>487.35400390625</ele>
        <time>2009-06-17T13:38:45Z</time>
      </trkpt>
      <trkpt lat="45.12134" lon="4.70521">
        <ele>488.71600341797</ele>
        <time>2009-06-17T13:38:56Z</time>
      </trkpt>
      <trkpt lat="45.12127" lon="4.70514">
        <ele>488.89801025391</ele>
        <time>2009-06-17T13:38:58Z</time>
      </trkpt>
      <trkpt lat="45.12102" lon="4.70462">
        <ele>490.14700317383</ele>
        <time>2009-06-17T13:39:08Z</time>
      </trkpt>
      <trkpt lat="45.12102" lon="4.70437">
        <ele>490.4880065918</ele>
        <time>2009-06-17T13:39:12Z</time>
      </trkpt>
      <trkpt lat="45.12099" lon="4.70415">
        <ele>490.89999389648</ele>
        <time>2009-06-17T13:39:16Z</time>
      </trkpt>
      <trkpt lat="45.12069" lon="4.70382">
        <ele>492.53900146484</ele>
        <time>2009-06-17T13:39:26Z</time>
      </trkpt>
      <trkpt lat="45.11988" lon="4.70395">
        <ele>494.32699584961</ele>
        <time>2009-06-17T13:39:46Z</time>
      </trkpt>
      <trkpt lat="45.1192" lon="4.70372">
        <ele>496.59201049805</ele>
        <time>2009-06-17T13:40:04Z</time>
      </trkpt>
      <trkpt lat="45.11858" lon="4.70338">
        <ele>498.52899169922</ele>
        <time>2009-06-17T13:40:20Z</time>
      </trkpt>
      <trkpt lat="45.11799" lon="4.70301">
        <ele>500.21200561523</ele>
        <time>2009-06-17T13:40:36Z</time>
      </trkpt>
      <trkpt lat="45.11738" lon="4.70223">
        <ele>502.26501464844</ele>
        <time>2009-06-17T13:40:55Z</time>
      </trkpt>
      <trkpt lat="45.11724" lon="4.70193">
        <ele>503.17999267578</ele>
        <time>2009-06-17T13:41:03Z</time>
      </trkpt>
      <trkpt lat="45.11687" lon="4.70154">
        <ele>504.08700561523</ele>
        <time>2009-06-17T13:41:13Z</time>
      </trkpt>
      <trkpt lat="45.11678" lon="4.70157">
        <ele>504.48400878906</ele>
        <time>2009-06-17T13:41:15Z</time>
      </trkpt>
      <trkpt lat="45.11658" lon="4.70166">
        <ele>504.86099243164</ele>
        <time>2009-06-17T13:41:20Z</time>
      </trkpt>
      <trkpt lat="45.11646" lon="4.70171">
        <ele>505.1549987793</ele>
        <time>2009-06-17T13:41:23Z</time>
      </trkpt>
      <trkpt lat="45.11614" lon="4.70176">
        <ele>505.61700439453</ele>
        <time>2009-06-17T13:41:30Z</time>
      </trkpt>
      <trkpt lat="45.11515" lon="4.7012">
        <ele>507.45199584961</ele>
        <time>2009-06-17T13:41:54Z</time>
      </trkpt>
      <trkpt lat="45.11449" lon="4.70075">
        <ele>509.25201416016</ele>
        <time>2009-06-17T13:42:10Z</time>
      </trkpt>
      <trkpt lat="45.11416" lon="4.70067">
        <ele>509.60299682617</ele>
        <time>2009-06-17T13:42:18Z</time>
      </trkpt>
      <trkpt lat="45.11357" lon="4.70095">
        <ele>509.19400024414</ele>
        <time>2009-06-17T13:42:32Z</time>
      </trkpt>
      <trkpt lat="45.11332" lon="4.70094">
        <ele>508.97100830078</ele>
        <time>2009-06-17T13:42:38Z</time>
      </trkpt>
      <trkpt lat="45.11312" lon="4.70057">
        <ele>509.25100708008</ele>
        <time>2009-06-17T13:42:46Z</time>
      </trkpt>
      <trkpt lat="45.11279" lon="4.70008">
        <ele>508.80499267578</ele>
        <time>2009-06-17T13:42:56Z</time>
      </trkpt>
      <trkpt lat="45.11271" lon="4.69999">
        <ele>508.88299560547</ele>
        <time>2009-06-17T13:42:58Z</time>
      </trkpt>
      <trkpt lat="45.1123" lon="4.69918">
        <ele>507.52301025391</ele>
        <time>2009-06-17T13:43:11Z</time>
      </trkpt>
      <trkpt lat="45.11218" lon="4.69859">
        <ele>505.87701416016</ele>
        <time>2009-06-17T13:43:20Z</time>
      </trkpt>
      <trkpt lat="45.11211" lon="4.69832">
        <ele>506.30499267578</ele>
        <time>2009-06-17T13:43:21Z</time>
      </trkpt>
      <trkpt lat="45.11166" lon="4.69733">
        <ele>506.33801269531</ele>
        <time>2009-06-17T13:43:35Z</time>
      </trkpt>
      <trkpt lat="45.11132" lon="4.69674">
        <ele>508.70300292969</ele>
        <time>2009-06-17T13:43:47Z</time>
      </trkpt>
      <trkpt lat="45.11103" lon="4.69613">
        <ele>509.77499389648</ele>
        <time>2009-06-17T13:43:56Z</time>
      </trkpt>
      <trkpt lat="45.11086" lon="4.69577">
        <ele>510.84899902344</ele>
        <time>2009-06-17T13:44:03Z</time>
      </trkpt>
      <trkpt lat="45.11051" lon="4.69531">
        <ele>512.958984375</ele>
        <time>2009-06-17T13:44:15Z</time>
      </trkpt>
      <trkpt lat="45.11026" lon="4.6949">
        <ele>515.00500488281</ele>
        <time>2009-06-17T13:44:26Z</time>
      </trkpt>
      <trkpt lat="45.11013" lon="4.69455">
        <ele>516.78100585938</ele>
        <time>2009-06-17T13:44:34Z</time>
      </trkpt>
      <trkpt lat="45.1098" lon="4.69345">
        <ele>522.09497070312</ele>
        <time>2009-06-17T13:44:58Z</time>
      </trkpt>
      <trkpt lat="45.10957" lon="4.69233">
        <ele>525.97601318359</ele>
        <time>2009-06-17T13:45:21Z</time>
      </trkpt>
      <trkpt lat="45.10927" lon="4.69111">
        <ele>528.05200195312</ele>
        <time>2009-06-17T13:45:43Z</time>
      </trkpt>
      <trkpt lat="45.10894" lon="4.69013">
        <ele>527.98901367188</ele>
        <time>2009-06-17T13:45:59Z</time>
      </trkpt>
      <trkpt lat="45.10857" lon="4.68895">
        <ele>528.78302001953</ele>
        <time>2009-06-17T13:46:15Z</time>
      </trkpt>
      <trkpt lat="45.10823" lon="4.68747">
        <ele>529.10198974609</ele>
        <time>2009-06-17T13:46:33Z</time>
      </trkpt>
      <trkpt lat="45.1081" lon="4.68631">
        <ele>531.67700195312</ele>
        <time>2009-06-17T13:46:48Z</time>
      </trkpt>
      <trkpt lat="45.10818" lon="4.68562">
        <ele>533.75897216797</ele>
        <time>2009-06-17T13:46:57Z</time>
      </trkpt>
      <trkpt lat="45.10836" lon="4.68441">
        <ele>535.75299072266</ele>
        <time>2009-06-17T13:47:15Z</time>
      </trkpt>
      <trkpt lat="45.10832" lon="4.68348">
        <ele>538.416015625</ele>
        <time>2009-06-17T13:47:33Z</time>
      </trkpt>
      <trkpt lat="45.10851" lon="4.68211">
        <ele>540.83697509766</ele>
        <time>2009-06-17T13:47:51Z</time>
      </trkpt>
      <trkpt lat="45.10879" lon="4.68101">
        <ele>544.14501953125</ele>
        <time>2009-06-17T13:48:12Z</time>
      </trkpt>
      <trkpt lat="45.10899" lon="4.68019">
        <ele>546.19500732422</ele>
        <time>2009-06-17T13:48:29Z</time>
      </trkpt>
      <trkpt lat="45.10918" lon="4.67943">
        <ele>548.23498535156</ele>
        <time>2009-06-17T13:48:44Z</time>
      </trkpt>
      <trkpt lat="45.10941" lon="4.67858">
        <ele>550.85400390625</ele>
        <time>2009-06-17T13:49:01Z</time>
      </trkpt>
      <trkpt lat="45.10962" lon="4.67777">
        <ele>553.30798339844</ele>
        <time>2009-06-17T13:49:18Z</time>
      </trkpt>
      <trkpt lat="45.10984" lon="4.6769">
        <ele>555.83599853516</ele>
        <time>2009-06-17T13:49:36Z</time>
      </trkpt>
      <trkpt lat="45.11015" lon="4.67571">
        <ele>558.88000488281</ele>
        <time>2009-06-17T13:49:59Z</time>
      </trkpt>
      <trkpt lat="45.11004" lon="4.67507">
        <ele>560.00598144531</ele>
        <time>2009-06-17T13:50:12Z</time>
      </trkpt>
      <trkpt lat="45.11002" lon="4.67503">
        <ele>559.98602294922</ele>
        <time>2009-06-17T13:50:13Z</time>
      </trkpt>
      <trkpt lat="45.10971" lon="4.67497">
        <ele>561.76800537109</ele>
        <time>2009-06-17T13:50:22Z</time>
      </trkpt>
      <trkpt lat="45.10944" lon="4.67528">
        <ele>563.81896972656</ele>
        <time>2009-06-17T13:50:32Z</time>
      </trkpt>
      <trkpt lat="45.1092" lon="4.67548">
        <ele>565.32800292969</ele>
        <time>2009-06-17T13:50:40Z</time>
      </trkpt>
      <trkpt lat="45.10905" lon="4.67554">
        <ele>566.40698242188</ele>
        <time>2009-06-17T13:50:45Z</time>
      </trkpt>
      <trkpt lat="45.1087" lon="4.67567">
        <ele>568.48699951172</ele>
        <time>2009-06-17T13:50:56Z</time>
      </trkpt>
      <trkpt lat="45.1082" lon="4.67566">
        <ele>570.875</ele>
        <time>2009-06-17T13:51:08Z</time>
      </trkpt>
      <trkpt lat="45.10793" lon="4.67537">
        <ele>572.88500976562</ele>
        <time>2009-06-17T13:51:20Z</time>
      </trkpt>
      <trkpt lat="45.1077" lon="4.6749">
        <ele>574.53698730469</ele>
        <time>2009-06-17T13:51:29Z</time>
      </trkpt>
      <trkpt lat="45.10756" lon="4.67466">
        <ele>575.74499511719</ele>
        <time>2009-06-17T13:51:36Z</time>
      </trkpt>
      <trkpt lat="45.10726" lon="4.67441">
        <ele>577.88897705078</ele>
        <time>2009-06-17T13:51:48Z</time>
      </trkpt>
      <trkpt lat="45.10685" lon="4.67449">
        <ele>580.06896972656</ele>
        <time>2009-06-17T13:52:00Z</time>
      </trkpt>
      <trkpt lat="45.1067" lon="4.67454">
        <ele>581.01202392578</ele>
        <time>2009-06-17T13:52:04Z</time>
      </trkpt>
      <trkpt lat="45.10648" lon="4.67463">
        <ele>582.32202148438</ele>
        <time>2009-06-17T13:52:10Z</time>
      </trkpt>
      <trkpt lat="45.10582" lon="4.67471">
        <ele>584.92700195312</ele>
        <time>2009-06-17T13:52:26Z</time>
      </trkpt>
      <trkpt lat="45.10529" lon="4.67428">
        <ele>588.39001464844</ele>
        <time>2009-06-17T13:52:43Z</time>
      </trkpt>
      <trkpt lat="45.10471" lon="4.67421">
        <ele>591.35400390625</ele>
        <time>2009-06-17T13:53:00Z</time>
      </trkpt>
      <trkpt lat="45.10395" lon="4.67422">
        <ele>595.27502441406</ele>
        <time>2009-06-17T13:53:23Z</time>
      </trkpt>
      <trkpt lat="45.10326" lon="4.67408">
        <ele>599.21697998047</ele>
        <time>2009-06-17T13:53:45Z</time>
      </trkpt>
      <trkpt lat="45.10251" lon="4.67391">
        <ele>602.72302246094</ele>
        <time>2009-06-17T13:54:05Z</time>
      </trkpt>
      <trkpt lat="45.10194" lon="4.67393">
        <ele>605.08502197266</ele>
        <time>2009-06-17T13:54:22Z</time>
      </trkpt>
      <trkpt lat="45.10141" lon="4.67408">
        <ele>608.56701660156</ele>
        <time>2009-06-17T13:54:40Z</time>
      </trkpt>
      <trkpt lat="45.1009" lon="4.6739">
        <ele>609.97497558594</ele>
        <time>2009-06-17T13:54:58Z</time>
      </trkpt>
      <trkpt lat="45.10064" lon="4.6738">
        <ele>608.94396972656</ele>
        <time>2009-06-17T13:55:09Z</time>
      </trkpt>
      <trkpt lat="45.10064" lon="4.6738">
        <ele>608.89801025391</ele>
        <time>2009-06-17T13:55:10Z</time>
      </trkpt>
      <trkpt lat="45.10054" lon="4.67379">
        <ele>608.94097900391</ele>
        <time>2009-06-17T13:56:06Z</time>
      </trkpt>
      <trkpt lat="45.10051" lon="4.67378">
        <ele>608.33801269531</ele>
        <time>2009-06-17T13:56:09Z</time>
      </trkpt>
      <trkpt lat="45.10051" lon="4.67319">
        <ele>606.69500732422</ele>
        <time>2009-06-17T13:56:17Z</time>
      </trkpt>
      <trkpt lat="45.10051" lon="4.673">
        <ele>606.15997314453</ele>
        <time>2009-06-17T13:56:19Z</time>
      </trkpt>
      <trkpt lat="45.10065" lon="4.67236">
        <ele>605.24499511719</ele>
        <time>2009-06-17T13:56:25Z</time>
      </trkpt>
      <trkpt lat="45.10088" lon="4.67188">
        <ele>603.63702392578</ele>
        <time>2009-06-17T13:56:31Z</time>
      </trkpt>
      <trkpt lat="45.10099" lon="4.67165">
        <ele>603.33898925781</ele>
        <time>2009-06-17T13:56:34Z</time>
      </trkpt>
      <trkpt lat="45.10116" lon="4.67103">
        <ele>602.23199462891</ele>
        <time>2009-06-17T13:56:41Z</time>
      </trkpt>
      <trkpt lat="45.10101" lon="4.67031">
        <ele>600.79302978516</ele>
        <time>2009-06-17T13:56:49Z</time>
      </trkpt>
      <trkpt lat="45.10094" lon="4.67026">
        <ele>600.50299072266</ele>
        <time>2009-06-17T13:56:50Z</time>
      </trkpt>
      <trkpt lat="45.10089" lon="4.67022">
        <ele>600.15698242188</ele>
        <time>2009-06-17T13:56:53Z</time>
      </trkpt>
      <trkpt lat="45.10069" lon="4.66999">
        <ele>600.13098144531</ele>
        <time>2009-06-17T13:56:54Z</time>
      </trkpt>
      <trkpt lat="45.10063" lon="4.66992">
        <ele>599.76397705078</ele>
        <time>2009-06-17T13:56:55Z</time>
      </trkpt>
      <trkpt lat="45.10018" lon="4.66899">
        <ele>597.99499511719</ele>
        <time>2009-06-17T13:57:06Z</time>
      </trkpt>
      <trkpt lat="45.10019" lon="4.66836">
        <ele>597.14599609375</ele>
        <time>2009-06-17T13:57:13Z</time>
      </trkpt>
      <trkpt lat="45.10026" lon="4.66809">
        <ele>596.93402099609</ele>
        <time>2009-06-17T13:57:16Z</time>
      </trkpt>
      <trkpt lat="45.10028" lon="4.66747">
        <ele>596.00201416016</ele>
        <time>2009-06-17T13:57:23Z</time>
      </trkpt>
      <trkpt lat="45.1" lon="4.66647">
        <ele>594.54797363281</ele>
        <time>2009-06-17T13:57:34Z</time>
      </trkpt>
      <trkpt lat="45.09982" lon="4.66608">
        <ele>593.88598632812</ele>
        <time>2009-06-17T13:57:39Z</time>
      </trkpt>
      <trkpt lat="45.09973" lon="4.66592">
        <ele>593.47198486328</ele>
        <time>2009-06-17T13:57:41Z</time>
      </trkpt>
      <trkpt lat="45.09952" lon="4.6655">
        <ele>592.50299072266</ele>
        <time>2009-06-17T13:57:46Z</time>
      </trkpt>
      <trkpt lat="45.09948" lon="4.66533">
        <ele>592.17700195312</ele>
        <time>2009-06-17T13:57:49Z</time>
      </trkpt>
      <trkpt lat="45.09922" lon="4.66481">
        <ele>591.42199707031</ele>
        <time>2009-06-17T13:57:54Z</time>
      </trkpt>
      <trkpt lat="45.09827" lon="4.6636">
        <ele>589.31799316406</ele>
        <time>2009-06-17T13:58:12Z</time>
      </trkpt>
      <trkpt lat="45.09823" lon="4.66352">
        <ele>588.89501953125</ele>
        <time>2009-06-17T13:58:13Z</time>
      </trkpt>
      <trkpt lat="45.0979" lon="4.66268">
        <ele>587.48699951172</ele>
        <time>2009-06-17T13:58:22Z</time>
      </trkpt>
      <trkpt lat="45.098" lon="4.66215">
        <ele>586.91101074219</ele>
        <time>2009-06-17T13:58:27Z</time>
      </trkpt>
      <trkpt lat="45.09903" lon="4.66079">
        <ele>584.06402587891</ele>
        <time>2009-06-17T13:58:43Z</time>
      </trkpt>
      <trkpt lat="45.09943" lon="4.66046">
        <ele>583.18298339844</ele>
        <time>2009-06-17T13:58:48Z</time>
      </trkpt>
      <trkpt lat="45.0996" lon="4.66037">
        <ele>582.71099853516</ele>
        <time>2009-06-17T13:58:50Z</time>
      </trkpt>
      <trkpt lat="45.09998" lon="4.65995">
        <ele>581.82397460938</ele>
        <time>2009-06-17T13:58:56Z</time>
      </trkpt>
      <trkpt lat="45.09999" lon="4.65984">
        <ele>581.39697265625</ele>
        <time>2009-06-17T13:58:57Z</time>
      </trkpt>
      <trkpt lat="45.09997" lon="4.65959">
        <ele>581.13702392578</ele>
        <time>2009-06-17T13:58:59Z</time>
      </trkpt>
      <trkpt lat="45.10007" lon="4.65901">
        <ele>580.53100585938</ele>
        <time>2009-06-17T13:59:04Z</time>
      </trkpt>
      <trkpt lat="45.10053" lon="4.65772">
        <ele>580.28997802734</ele>
        <time>2009-06-17T13:59:17Z</time>
      </trkpt>
      <trkpt lat="45.10059" lon="4.65728">
        <ele>579.88800048828</ele>
        <time>2009-06-17T13:59:21Z</time>
      </trkpt>
      <trkpt lat="45.10089" lon="4.65651">
        <ele>579.82299804688</ele>
        <time>2009-06-17T13:59:29Z</time>
      </trkpt>
      <trkpt lat="45.10119" lon="4.65579">
        <ele>579.43200683594</ele>
        <time>2009-06-17T13:59:37Z</time>
      </trkpt>
      <trkpt lat="45.10089" lon="4.65537">
        <ele>580.17401123047</ele>
        <time>2009-06-17T13:59:43Z</time>
      </trkpt>
      <trkpt lat="45.10071" lon="4.65537">
        <ele>581.02697753906</ele>
        <time>2009-06-17T13:59:46Z</time>
      </trkpt>
      <trkpt lat="45.10036" lon="4.65548">
        <ele>582.16101074219</ele>
        <time>2009-06-17T13:59:53Z</time>
      </trkpt>
      <trkpt lat="45.1002" lon="4.65561">
        <ele>582.71600341797</ele>
        <time>2009-06-17T13:59:57Z</time>
      </trkpt>
      <trkpt lat="45.10002" lon="4.65583">
        <ele>583.51098632812</ele>
        <time>2009-06-17T14:00:02Z</time>
      </trkpt>
      <trkpt lat="45.09988" lon="4.65599">
        <ele>584.32800292969</ele>
        <time>2009-06-17T14:00:06Z</time>
      </trkpt>
      <trkpt lat="45.09954" lon="4.65602">
        <ele>585.99700927734</ele>
        <time>2009-06-17T14:00:14Z</time>
      </trkpt>
      <trkpt lat="45.09924" lon="4.65586">
        <ele>587.44598388672</ele>
        <time>2009-06-17T14:00:22Z</time>
      </trkpt>
      <trkpt lat="45.09892" lon="4.65558">
        <ele>589.27197265625</ele>
        <time>2009-06-17T14:00:31Z</time>
      </trkpt>
      <trkpt lat="45.09838" lon="4.65523">
        <ele>591.89898681641</ele>
        <time>2009-06-17T14:00:46Z</time>
      </trkpt>
      <trkpt lat="45.09821" lon="4.65513">
        <ele>593.04602050781</ele>
        <time>2009-06-17T14:00:51Z</time>
      </trkpt>
      <trkpt lat="45.09809" lon="4.65507">
        <ele>593.27001953125</ele>
        <time>2009-06-17T14:00:54Z</time>
      </trkpt>
      <trkpt lat="45.0974" lon="4.65478">
        <ele>596.51898193359</ele>
        <time>2009-06-17T14:01:12Z</time>
      </trkpt>
      <trkpt lat="45.09694" lon="4.65391">
        <ele>600.01000976562</ele>
        <time>2009-06-17T14:01:31Z</time>
      </trkpt>
      <trkpt lat="45.09684" lon="4.65293">
        <ele>602.23699951172</ele>
        <time>2009-06-17T14:01:47Z</time>
      </trkpt>
      <trkpt lat="45.0969" lon="4.65169">
        <ele>604.91400146484</ele>
        <time>2009-06-17T14:02:06Z</time>
      </trkpt>
      <trkpt lat="45.09689" lon="4.6507">
        <ele>606.94799804688</ele>
        <time>2009-06-17T14:02:20Z</time>
      </trkpt>
      <trkpt lat="45.09684" lon="4.64935">
        <ele>610.35998535156</ele>
        <time>2009-06-17T14:02:39Z</time>
      </trkpt>
      <trkpt lat="45.09679" lon="4.64826">
        <ele>614.26098632812</ele>
        <time>2009-06-17T14:02:57Z</time>
      </trkpt>
      <trkpt lat="45.09673" lon="4.64735">
        <ele>617.41900634766</ele>
        <time>2009-06-17T14:03:13Z</time>
      </trkpt>
      <trkpt lat="45.09661" lon="4.64682">
        <ele>616.09698486328</ele>
        <time>2009-06-17T14:03:28Z</time>
      </trkpt>
      <trkpt lat="45.09653" lon="4.64646">
        <ele>614.67498779297</ele>
        <time>2009-06-17T14:03:35Z</time>
      </trkpt>
      <trkpt lat="45.09646" lon="4.64613">
        <ele>613.97100830078</ele>
        <time>2009-06-17T14:03:41Z</time>
      </trkpt>
      <trkpt lat="45.0963" lon="4.6458">
        <ele>612.42999267578</ele>
        <time>2009-06-17T14:03:51Z</time>
      </trkpt>
      <trkpt lat="45.09623" lon="4.64569">
        <ele>611.70202636719</ele>
        <time>2009-06-17T14:03:55Z</time>
      </trkpt>
      <trkpt lat="45.09597" lon="4.64535">
        <ele>609.77398681641</ele>
        <time>2009-06-17T14:04:04Z</time>
      </trkpt>
      <trkpt lat="45.09587" lon="4.64526">
        <ele>609.25</ele>
        <time>2009-06-17T14:04:07Z</time>
      </trkpt>
      <trkpt lat="45.09549" lon="4.64499">
        <ele>606.96002197266</ele>
        <time>2009-06-17T14:04:15Z</time>
      </trkpt>
      <trkpt lat="45.09532" lon="4.6449">
        <ele>605.76800537109</ele>
        <time>2009-06-17T14:04:18Z</time>
      </trkpt>
      <trkpt lat="45.0949" lon="4.64448">
        <ele>603.04901123047</ele>
        <time>2009-06-17T14:04:25Z</time>
      </trkpt>
      <trkpt lat="45.0942" lon="4.64375">
        <ele>598.78302001953</ele>
        <time>2009-06-17T14:04:35Z</time>
      </trkpt>
      <trkpt lat="45.09392" lon="4.64338">
        <ele>596.55102539062</ele>
        <time>2009-06-17T14:04:39Z</time>
      </trkpt>
      <trkpt lat="45.09372" lon="4.64288">
        <ele>594.76599121094</ele>
        <time>2009-06-17T14:04:43Z</time>
      </trkpt>
      <trkpt lat="45.09364" lon="4.64267">
        <ele>593.02001953125</ele>
        <time>2009-06-17T14:04:45Z</time>
      </trkpt>
      <trkpt lat="45.09335" lon="4.64219">
        <ele>590.51898193359</ele>
        <time>2009-06-17T14:04:49Z</time>
      </trkpt>
      <trkpt lat="45.09317" lon="4.64189">
        <ele>589.02301025391</ele>
        <time>2009-06-17T14:04:52Z</time>
      </trkpt>
      <trkpt lat="45.09317" lon="4.64189">
        <ele>588.32702636719</ele>
        <time>2009-06-17T14:04:53Z</time>
      </trkpt>
      <trkpt lat="45.09289" lon="4.64167">
        <ele>587.88397216797</ele>
        <time>2009-06-17T14:04:55Z</time>
      </trkpt>
      <trkpt lat="45.09178" lon="4.64153">
        <ele>582.28399658203</ele>
        <time>2009-06-17T14:05:07Z</time>
      </trkpt>
      <trkpt lat="45.09149" lon="4.64152">
        <ele>580.65100097656</ele>
        <time>2009-06-17T14:05:10Z</time>
      </trkpt>
      <trkpt lat="45.09129" lon="4.64151">
        <ele>579.48400878906</ele>
        <time>2009-06-17T14:05:12Z</time>
      </trkpt>
      <trkpt lat="45.0911" lon="4.64143">
        <ele>578.51397705078</ele>
        <time>2009-06-17T14:05:14Z</time>
      </trkpt>
      <trkpt lat="45.09082" lon="4.64121">
        <ele>577.16400146484</ele>
        <time>2009-06-17T14:05:17Z</time>
      </trkpt>
      <trkpt lat="45.09036" lon="4.64088">
        <ele>574.26599121094</ele>
        <time>2009-06-17T14:05:22Z</time>
      </trkpt>
      <trkpt lat="45.09007" lon="4.64071">
        <ele>572.48699951172</ele>
        <time>2009-06-17T14:05:25Z</time>
      </trkpt>
      <trkpt lat="45.08976" lon="4.64039">
        <ele>569.7080078125</ele>
        <time>2009-06-17T14:05:29Z</time>
      </trkpt>
      <trkpt lat="45.08982" lon="4.64012">
        <ele>568.95098876953</ele>
        <time>2009-06-17T14:05:31Z</time>
      </trkpt>
      <trkpt lat="45.08999" lon="4.63999">
        <ele>567.54302978516</ele>
        <time>2009-06-17T14:05:33Z</time>
      </trkpt>
      <trkpt lat="45.09019" lon="4.63996">
        <ele>566.88598632812</ele>
        <time>2009-06-17T14:05:35Z</time>
      </trkpt>
      <trkpt lat="45.09047" lon="4.63996">
        <ele>565.5419921875</ele>
        <time>2009-06-17T14:05:38Z</time>
      </trkpt>
      <trkpt lat="45.09076" lon="4.63996">
        <ele>564.16101074219</ele>
        <time>2009-06-17T14:05:41Z</time>
      </trkpt>
      <trkpt lat="45.09113" lon="4.64014">
        <ele>562.13702392578</ele>
        <time>2009-06-17T14:05:45Z</time>
      </trkpt>
      <trkpt lat="45.0916" lon="4.6404">
        <ele>558.66400146484</ele>
        <time>2009-06-17T14:05:50Z</time>
      </trkpt>
      <trkpt lat="45.09198" lon="4.63983">
        <ele>555.09301757812</ele>
        <time>2009-06-17T14:05:55Z</time>
      </trkpt>
      <trkpt lat="45.09205" lon="4.63915">
        <ele>552.02099609375</ele>
        <time>2009-06-17T14:05:59Z</time>
      </trkpt>
      <trkpt lat="45.09212" lon="4.63898">
        <ele>552.04302978516</ele>
        <time>2009-06-17T14:06:00Z</time>
      </trkpt>
      <trkpt lat="45.09231" lon="4.63873">
        <ele>549.93701171875</ele>
        <time>2009-06-17T14:06:02Z</time>
      </trkpt>
      <trkpt lat="45.09286" lon="4.63821">
        <ele>546.49401855469</ele>
        <time>2009-06-17T14:06:07Z</time>
      </trkpt>
      <trkpt lat="45.09329" lon="4.63782">
        <ele>544.10400390625</ele>
        <time>2009-06-17T14:06:11Z</time>
      </trkpt>
      <trkpt lat="45.09398" lon="4.63763">
        <ele>540.18701171875</ele>
        <time>2009-06-17T14:06:17Z</time>
      </trkpt>
      <trkpt lat="45.09439" lon="4.63794">
        <ele>537.42297363281</ele>
        <time>2009-06-17T14:06:21Z</time>
      </trkpt>
      <trkpt lat="45.09459" lon="4.6375">
        <ele>535.00799560547</ele>
        <time>2009-06-17T14:06:26Z</time>
      </trkpt>
      <trkpt lat="45.09454" lon="4.63735">
        <ele>534.42401123047</ele>
        <time>2009-06-17T14:06:27Z</time>
      </trkpt>
      <trkpt lat="45.09436" lon="4.63682">
        <ele>532.93701171875</ele>
        <time>2009-06-17T14:06:30Z</time>
      </trkpt>
      <trkpt lat="45.09424" lon="4.63649">
        <ele>529.98602294922</ele>
        <time>2009-06-17T14:06:35Z</time>
      </trkpt>
      <trkpt lat="45.09399" lon="4.63542">
        <ele>527.65802001953</ele>
        <time>2009-06-17T14:06:39Z</time>
      </trkpt>
      <trkpt lat="45.09399" lon="4.6352">
        <ele>524.99200439453</ele>
        <time>2009-06-17T14:06:42Z</time>
      </trkpt>
      <trkpt lat="45.09416" lon="4.63461">
        <ele>523.96801757812</ele>
        <time>2009-06-17T14:06:44Z</time>
      </trkpt>
      <trkpt lat="45.09448" lon="4.63355">
        <ele>519.25701904297</ele>
        <time>2009-06-17T14:06:51Z</time>
      </trkpt>
      <trkpt lat="45.0948" lon="4.63312">
        <ele>516.60601806641</ele>
        <time>2009-06-17T14:06:55Z</time>
      </trkpt>
      <trkpt lat="45.09478" lon="4.63294">
        <ele>516.36602783203</ele>
        <time>2009-06-17T14:06:56Z</time>
      </trkpt>
      <trkpt lat="45.09448" lon="4.63254">
        <ele>516.95501708984</ele>
        <time>2009-06-17T14:07:00Z</time>
      </trkpt>
      <trkpt lat="45.09438" lon="4.63256">
        <ele>517.59399414062</ele>
        <time>2009-06-17T14:07:01Z</time>
      </trkpt>
      <trkpt lat="45.09413" lon="4.63268">
        <ele>518.85302734375</ele>
        <time>2009-06-17T14:07:04Z</time>
      </trkpt>
      <trkpt lat="45.09364" lon="4.63299">
        <ele>520.54797363281</ele>
        <time>2009-06-17T14:07:13Z</time>
      </trkpt>
      <trkpt lat="45.0931" lon="4.63345">
        <ele>521.98297119141</ele>
        <time>2009-06-17T14:07:25Z</time>
      </trkpt>
      <trkpt lat="45.0928" lon="4.6337">
        <ele>522.97998046875</ele>
        <time>2009-06-17T14:07:32Z</time>
      </trkpt>
      <trkpt lat="45.0927" lon="4.63378">
        <ele>524.16302490234</ele>
        <time>2009-06-17T14:07:37Z</time>
      </trkpt>
      <trkpt lat="45.09243" lon="4.63407">
        <ele>524.38098144531</ele>
        <time>2009-06-17T14:07:41Z</time>
      </trkpt>
      <trkpt lat="45.09221" lon="4.63444">
        <ele>525.38897705078</ele>
        <time>2009-06-17T14:07:48Z</time>
      </trkpt>
      <trkpt lat="45.09215" lon="4.63454">
        <ele>525.68597412109</ele>
        <time>2009-06-17T14:07:50Z</time>
      </trkpt>
      <trkpt lat="45.09171" lon="4.63462">
        <ele>526.03497314453</ele>
        <time>2009-06-17T14:08:00Z</time>
      </trkpt>
      <trkpt lat="45.09163" lon="4.63456">
        <ele>525.94097900391</ele>
        <time>2009-06-17T14:08:02Z</time>
      </trkpt>
      <trkpt lat="45.09135" lon="4.63381">
        <ele>525.64001464844</ele>
        <time>2009-06-17T14:08:13Z</time>
      </trkpt>
      <trkpt lat="45.09133" lon="4.6335">
        <ele>526.40197753906</ele>
        <time>2009-06-17T14:08:17Z</time>
      </trkpt>
      <trkpt lat="45.09137" lon="4.63232">
        <ele>528.09497070312</ele>
        <time>2009-06-17T14:08:33Z</time>
      </trkpt>
      <trkpt lat="45.09114" lon="4.63161">
        <ele>529.54400634766</ele>
        <time>2009-06-17T14:08:45Z</time>
      </trkpt>
      <trkpt lat="45.09108" lon="4.63143">
        <ele>529.74401855469</ele>
        <time>2009-06-17T14:08:48Z</time>
      </trkpt>
      <trkpt lat="45.09085" lon="4.63095">
        <ele>531.17102050781</ele>
        <time>2009-06-17T14:09:00Z</time>
      </trkpt>
      <trkpt lat="45.09067" lon="4.63063">
        <ele>531.63800048828</ele>
        <time>2009-06-17T14:09:04Z</time>
      </trkpt>
      <trkpt lat="45.09033" lon="4.63019">
        <ele>532.78002929688</ele>
        <time>2009-06-17T14:09:14Z</time>
      </trkpt>
      <trkpt lat="45.09011" lon="4.62996">
        <ele>533.43701171875</ele>
        <time>2009-06-17T14:09:20Z</time>
      </trkpt>
      <trkpt lat="45.08955" lon="4.62951">
        <ele>535.15002441406</ele>
        <time>2009-06-17T14:09:35Z</time>
      </trkpt>
      <trkpt lat="45.08881" lon="4.62893">
        <ele>537.40002441406</ele>
        <time>2009-06-17T14:09:55Z</time>
      </trkpt>
      <trkpt lat="45.08808" lon="4.62827">
        <ele>539.57800292969</ele>
        <time>2009-06-17T14:10:15Z</time>
      </trkpt>
      <trkpt lat="45.08784" lon="4.62795">
        <ele>539.36102294922</ele>
        <time>2009-06-17T14:10:22Z</time>
      </trkpt>
      <trkpt lat="45.08775" lon="4.62764">
        <ele>539.44598388672</ele>
        <time>2009-06-17T14:10:27Z</time>
      </trkpt>
      <trkpt lat="45.08762" lon="4.62691">
        <ele>540.28601074219</ele>
        <time>2009-06-17T14:10:38Z</time>
      </trkpt>
      <trkpt lat="45.08756" lon="4.62662">
        <ele>540.84100341797</ele>
        <time>2009-06-17T14:10:43Z</time>
      </trkpt>
      <trkpt lat="45.08727" lon="4.62658">
        <ele>541.97900390625</ele>
        <time>2009-06-17T14:10:52Z</time>
      </trkpt>
      <trkpt lat="45.08726" lon="4.62663">
        <ele>542.00799560547</ele>
        <time>2009-06-17T14:10:53Z</time>
      </trkpt>
      <trkpt lat="45.087" lon="4.62744">
        <ele>542.64599609375</ele>
        <time>2009-06-17T14:11:08Z</time>
      </trkpt>
      <trkpt lat="45.08696" lon="4.62756">
        <ele>542.79302978516</ele>
        <time>2009-06-17T14:11:10Z</time>
      </trkpt>
      <trkpt lat="45.08686" lon="4.6278">
        <ele>543.291015625</ele>
        <time>2009-06-17T14:11:15Z</time>
      </trkpt>
      <trkpt lat="45.08679" lon="4.62798">
        <ele>543.39300537109</ele>
        <time>2009-06-17T14:11:22Z</time>
      </trkpt>
      <trkpt lat="45.08662" lon="4.62792">
        <ele>544.60900878906</ele>
        <time>2009-06-17T14:11:28Z</time>
      </trkpt>
      <trkpt lat="45.08665" lon="4.62793">
        <ele>544.12701416016</ele>
        <time>2009-06-17T14:11:32Z</time>
      </trkpt>
      <trkpt lat="45.08665" lon="4.62795">
        <ele>544.71899414062</ele>
        <time>2009-06-17T14:11:44Z</time>
      </trkpt>
      <trkpt lat="45.08675" lon="4.62808">
        <ele>544.50799560547</ele>
        <time>2009-06-17T14:11:51Z</time>
      </trkpt>
      <trkpt lat="45.08672" lon="4.62816">
        <ele>544.07098388672</ele>
        <time>2009-06-17T14:11:59Z</time>
      </trkpt>
      <trkpt lat="45.0867" lon="4.62827">
        <ele>543.73400878906</ele>
        <time>2009-06-17T14:12:03Z</time>
      </trkpt>
      <trkpt lat="45.08648" lon="4.62868">
        <ele>540.71099853516</ele>
        <time>2009-06-17T14:12:12Z</time>
      </trkpt>
      <trkpt lat="45.08648" lon="4.62868">
        <ele>540.46002197266</ele>
        <time>2009-06-17T14:12:13Z</time>
      </trkpt>
      <trkpt lat="45.08588" lon="4.62858">
        <ele>537.76300048828</ele>
        <time>2009-06-17T14:12:20Z</time>
      </trkpt>
      <trkpt lat="45.08558" lon="4.62839">
        <ele>535.84997558594</ele>
        <time>2009-06-17T14:12:24Z</time>
      </trkpt>
      <trkpt lat="45.08503" lon="4.62764">
        <ele>532.75500488281</ele>
        <time>2009-06-17T14:12:32Z</time>
      </trkpt>
      <trkpt lat="45.0849" lon="4.62746">
        <ele>532.29797363281</ele>
        <time>2009-06-17T14:12:34Z</time>
      </trkpt>
      <trkpt lat="45.08477" lon="4.62728">
        <ele>532.06597900391</ele>
        <time>2009-06-17T14:12:36Z</time>
      </trkpt>
      <trkpt lat="45.0846" lon="4.62723">
        <ele>531.89501953125</ele>
        <time>2009-06-17T14:12:38Z</time>
      </trkpt>
      <trkpt lat="45.0845" lon="4.62724">
        <ele>531.43103027344</ele>
        <time>2009-06-17T14:12:41Z</time>
      </trkpt>
      <trkpt lat="45.08435" lon="4.62733">
        <ele>530.74102783203</ele>
        <time>2009-06-17T14:12:47Z</time>
      </trkpt>
      <trkpt lat="45.08421" lon="4.62751">
        <ele>530.38299560547</ele>
        <time>2009-06-17T14:12:51Z</time>
      </trkpt>
      <trkpt lat="45.08418" lon="4.62757">
        <ele>530.09802246094</ele>
        <time>2009-06-17T14:12:52Z</time>
      </trkpt>
      <trkpt lat="45.0841" lon="4.62784">
        <ele>529.53198242188</ele>
        <time>2009-06-17T14:13:00Z</time>
      </trkpt>
      <trkpt lat="45.08406" lon="4.62791">
        <ele>529.32098388672</ele>
        <time>2009-06-17T14:13:06Z</time>
      </trkpt>
      <trkpt lat="45.08373" lon="4.62769">
        <ele>529.42401123047</ele>
        <time>2009-06-17T14:13:10Z</time>
      </trkpt>
      <trkpt lat="45.08412" lon="4.6278">
        <ele>529.39300537109</ele>
        <time>2009-06-17T14:13:17Z</time>
      </trkpt>
      <trkpt lat="45.08413" lon="4.62777">
        <ele>529.35302734375</ele>
        <time>2009-06-17T14:13:45Z</time>
      </trkpt>
      <trkpt lat="45.08413" lon="4.62775">
        <ele>529.51202392578</ele>
        <time>2009-06-17T14:13:46Z</time>
      </trkpt>
      <trkpt lat="45.0843" lon="4.6274">
        <ele>530.37701416016</ele>
        <time>2009-06-17T14:13:58Z</time>
      </trkpt>
      <trkpt lat="45.0845" lon="4.62724">
        <ele>531.09399414062</ele>
        <time>2009-06-17T14:14:07Z</time>
      </trkpt>
      <trkpt lat="45.08447" lon="4.62711">
        <ele>531.56402587891</ele>
        <time>2009-06-17T14:14:11Z</time>
      </trkpt>
      <trkpt lat="45.08434" lon="4.62699">
        <ele>532.31500244141</ele>
        <time>2009-06-17T14:14:15Z</time>
      </trkpt>
      <trkpt lat="45.08415" lon="4.62686">
        <ele>532.82501220703</ele>
        <time>2009-06-17T14:14:21Z</time>
      </trkpt>
      <trkpt lat="45.08411" lon="4.62676">
        <ele>533.26501464844</ele>
        <time>2009-06-17T14:14:24Z</time>
      </trkpt>
      <trkpt lat="45.08399" lon="4.62649">
        <ele>535.30102539062</ele>
        <time>2009-06-17T14:14:35Z</time>
      </trkpt>
      <trkpt lat="45.08391" lon="4.62646">
        <ele>535.97497558594</ele>
        <time>2009-06-17T14:14:38Z</time>
      </trkpt>
      <trkpt lat="45.08352" lon="4.62629">
        <ele>537.98199462891</ele>
        <time>2009-06-17T14:14:52Z</time>
      </trkpt>
      <trkpt lat="45.08342" lon="4.62645">
        <ele>538.33099365234</ele>
        <time>2009-06-17T14:14:56Z</time>
      </trkpt>
      <trkpt lat="45.08321" lon="4.62714">
        <ele>537.64801025391</ele>
        <time>2009-06-17T14:15:12Z</time>
      </trkpt>
      <trkpt lat="45.0831" lon="4.62736">
        <ele>537.15197753906</ele>
        <time>2009-06-17T14:15:17Z</time>
      </trkpt>
      <trkpt lat="45.08298" lon="4.6276">
        <ele>537.28198242188</ele>
        <time>2009-06-17T14:15:24Z</time>
      </trkpt>
      <trkpt lat="45.0829" lon="4.62776">
        <ele>536.88098144531</ele>
        <time>2009-06-17T14:15:28Z</time>
      </trkpt>
      <trkpt lat="45.08267" lon="4.62807">
        <ele>536.48901367188</ele>
        <time>2009-06-17T14:15:39Z</time>
      </trkpt>
      <trkpt lat="45.08267" lon="4.62825">
        <ele>536.29302978516</ele>
        <time>2009-06-17T14:15:43Z</time>
      </trkpt>
      <trkpt lat="45.08268" lon="4.6283">
        <ele>535.84899902344</ele>
        <time>2009-06-17T14:15:52Z</time>
      </trkpt>
      <trkpt lat="45.08268" lon="4.6283">
        <ele>535.69299316406</ele>
        <time>2009-06-17T14:15:57Z</time>
      </trkpt>
      <trkpt lat="45.08267" lon="4.62828">
        <ele>535.63098144531</ele>
        <time>2009-06-17T14:16:33Z</time>
      </trkpt>
      <trkpt lat="45.08267" lon="4.62828">
        <ele>535.48199462891</ele>
        <time>2009-06-17T14:16:35Z</time>
      </trkpt>
      <trkpt lat="45.08267" lon="4.62828">
        <ele>535.66802978516</ele>
        <time>2009-06-17T14:17:16Z</time>
      </trkpt>
      <trkpt lat="45.08267" lon="4.62828">
        <ele>535.66497802734</ele>
        <time>2009-06-17T14:17:17Z</time>
      </trkpt>
      <trkpt lat="45.08267" lon="4.62828">
        <ele>535.82098388672</ele>
        <time>2009-06-17T14:17:31Z</time>
      </trkpt>
      <trkpt lat="45.08267" lon="4.62828">
        <ele>535.76702880859</ele>
        <time>2009-06-17T14:17:38Z</time>
      </trkpt>
      <trkpt lat="45.08267" lon="4.62828">
        <ele>536.2509765625</ele>
        <time>2009-06-17T14:17:49Z</time>
      </trkpt>
      <trkpt lat="45.08267" lon="4.62828">
        <ele>536.06701660156</ele>
        <time>2009-06-17T14:17:59Z</time>
      </trkpt>
      <trkpt lat="45.08294" lon="4.6282">
        <ele>535.81701660156</ele>
        <time>2009-06-17T14:18:13Z</time>
      </trkpt>
      <trkpt lat="45.08297" lon="4.62822">
        <ele>535.4990234375</ele>
        <time>2009-06-17T14:18:21Z</time>
      </trkpt>
      <trkpt lat="45.08352" lon="4.62795">
        <ele>535.10498046875</ele>
        <time>2009-06-17T14:18:37Z</time>
      </trkpt>
      <trkpt lat="45.08279" lon="4.62797">
        <ele>534.76300048828</ele>
        <time>2009-06-17T14:18:58Z</time>
      </trkpt>
      <trkpt lat="45.08279" lon="4.62797">
        <ele>534.40899658203</ele>
        <time>2009-06-17T14:19:05Z</time>
      </trkpt>
      <trkpt lat="45.08278" lon="4.62799">
        <ele>534.21002197266</ele>
        <time>2009-06-17T14:19:15Z</time>
      </trkpt>
      <trkpt lat="45.0831" lon="4.62821">
        <ele>533.63500976562</ele>
        <time>2009-06-17T14:19:29Z</time>
      </trkpt>
      <trkpt lat="45.08312" lon="4.6282">
        <ele>533.42999267578</ele>
        <time>2009-06-17T14:19:34Z</time>
      </trkpt>
      <trkpt lat="45.08312" lon="4.6282">
        <ele>533.27301025391</ele>
        <time>2009-06-17T14:19:38Z</time>
      </trkpt>
      <trkpt lat="45.08312" lon="4.6282">
        <ele>532.86700439453</ele>
        <time>2009-06-17T14:20:08Z</time>
      </trkpt>
      <trkpt lat="45.08327" lon="4.6281">
        <ele>532.57897949219</ele>
        <time>2009-06-17T14:20:21Z</time>
      </trkpt>
      <trkpt lat="45.08327" lon="4.6281">
        <ele>532.49102783203</ele>
        <time>2009-06-17T14:20:22Z</time>
      </trkpt>
      <trkpt lat="45.08327" lon="4.6281">
        <ele>532.29602050781</ele>
        <time>2009-06-17T14:20:28Z</time>
      </trkpt>
      <trkpt lat="45.08336" lon="4.62805">
        <ele>532.34002685547</ele>
        <time>2009-06-17T14:20:33Z</time>
      </trkpt>
      <trkpt lat="45.08336" lon="4.62805">
        <ele>532.10302734375</ele>
        <time>2009-06-17T14:20:38Z</time>
      </trkpt>
      <trkpt lat="45.07932" lon="4.63278">
        <ele>498.4289855957</ele>
        <time>2009-06-17T15:02:20Z</time>
      </trkpt>
      <trkpt lat="45.07906" lon="4.63304">
        <ele>495.34799194336</ele>
        <time>2009-06-17T15:02:23Z</time>
      </trkpt>
      <trkpt lat="45.07782" lon="4.63361">
        <ele>484.32598876953</ele>
        <time>2009-06-17T15:02:35Z</time>
      </trkpt>
      <trkpt lat="45.07761" lon="4.6337">
        <ele>482.83200073242</ele>
        <time>2009-06-17T15:02:37Z</time>
      </trkpt>
      <trkpt lat="45.07716" lon="4.63425">
        <ele>477.58200073242</ele>
        <time>2009-06-17T15:02:43Z</time>
      </trkpt>
      <trkpt lat="45.07727" lon="4.63446">
        <ele>476.87600708008</ele>
        <time>2009-06-17T15:02:45Z</time>
      </trkpt>
      <trkpt lat="45.07754" lon="4.63451">
        <ele>474.62600708008</ele>
        <time>2009-06-17T15:02:48Z</time>
      </trkpt>
      <trkpt lat="45.07833" lon="4.63417">
        <ele>468.73699951172</ele>
        <time>2009-06-17T15:02:56Z</time>
      </trkpt>
      <trkpt lat="45.07843" lon="4.63412">
        <ele>467.84100341797</ele>
        <time>2009-06-17T15:02:57Z</time>
      </trkpt>
      <trkpt lat="45.07875" lon="4.63406">
        <ele>465.59100341797</ele>
        <time>2009-06-17T15:03:00Z</time>
      </trkpt>
      <trkpt lat="45.0792" lon="4.63408">
        <ele>462.93099975586</ele>
        <time>2009-06-17T15:03:04Z</time>
      </trkpt>
      <trkpt lat="45.07952" lon="4.63426">
        <ele>460.21899414062</ele>
        <time>2009-06-17T15:03:07Z</time>
      </trkpt>
      <trkpt lat="45.08015" lon="4.63414">
        <ele>456.10998535156</ele>
        <time>2009-06-17T15:03:13Z</time>
      </trkpt>
      <trkpt lat="45.08023" lon="4.63399">
        <ele>455.47100830078</ele>
        <time>2009-06-17T15:03:14Z</time>
      </trkpt>
      <trkpt lat="45.08034" lon="4.63369">
        <ele>453.82901000977</ele>
        <time>2009-06-17T15:03:16Z</time>
      </trkpt>
      <trkpt lat="45.08072" lon="4.63331">
        <ele>449.86401367188</ele>
        <time>2009-06-17T15:03:21Z</time>
      </trkpt>
      <trkpt lat="45.08086" lon="4.63385">
        <ele>447.05200195312</ele>
        <time>2009-06-17T15:03:25Z</time>
      </trkpt>
      <trkpt lat="45.08041" lon="4.63417">
        <ele>444.59201049805</ele>
        <time>2009-06-17T15:03:30Z</time>
      </trkpt>
      <trkpt lat="45.08034" lon="4.63428">
        <ele>444.15200805664</ele>
        <time>2009-06-17T15:03:31Z</time>
      </trkpt>
      <trkpt lat="45.08006" lon="4.63487">
        <ele>441.62701416016</ele>
        <time>2009-06-17T15:03:36Z</time>
      </trkpt>
      <trkpt lat="45.0799" lon="4.63523">
        <ele>439.67300415039</ele>
        <time>2009-06-17T15:03:39Z</time>
      </trkpt>
      <trkpt lat="45.07984" lon="4.63536">
        <ele>439.01998901367</ele>
        <time>2009-06-17T15:03:40Z</time>
      </trkpt>
      <trkpt lat="45.07941" lon="4.63565">
        <ele>436.1549987793</ele>
        <time>2009-06-17T15:03:45Z</time>
      </trkpt>
      <trkpt lat="45.07906" lon="4.63517">
        <ele>433.44299316406</ele>
        <time>2009-06-17T15:03:50Z</time>
      </trkpt>
      <trkpt lat="45.0785" lon="4.63515">
        <ele>430.37899780273</ele>
        <time>2009-06-17T15:03:56Z</time>
      </trkpt>
      <trkpt lat="45.07841" lon="4.63519">
        <ele>429.87298583984</ele>
        <time>2009-06-17T15:03:57Z</time>
      </trkpt>
      <trkpt lat="45.07778" lon="4.63559">
        <ele>426.11401367188</ele>
        <time>2009-06-17T15:04:04Z</time>
      </trkpt>
      <trkpt lat="45.07747" lon="4.63594">
        <ele>423.9880065918</ele>
        <time>2009-06-17T15:04:08Z</time>
      </trkpt>
      <trkpt lat="45.07728" lon="4.6364">
        <ele>421.87298583984</ele>
        <time>2009-06-17T15:04:12Z</time>
      </trkpt>
      <trkpt lat="45.07722" lon="4.63669">
        <ele>420.65600585938</ele>
        <time>2009-06-17T15:04:14Z</time>
      </trkpt>
      <trkpt lat="45.07695" lon="4.63705">
        <ele>418.10699462891</ele>
        <time>2009-06-17T15:04:18Z</time>
      </trkpt>
      <trkpt lat="45.07622" lon="4.63743">
        <ele>413.10699462891</ele>
        <time>2009-06-17T15:04:28Z</time>
      </trkpt>
      <trkpt lat="45.07559" lon="4.63786">
        <ele>411.67700195312</ele>
        <time>2009-06-17T15:04:32Z</time>
      </trkpt>
      <trkpt lat="45.07538" lon="4.63834">
        <ele>410.18600463867</ele>
        <time>2009-06-17T15:04:37Z</time>
      </trkpt>
      <trkpt lat="45.07562" lon="4.63972">
        <ele>406.89898681641</ele>
        <time>2009-06-17T15:04:48Z</time>
      </trkpt>
      <trkpt lat="45.07574" lon="4.6404">
        <ele>406.49899291992</ele>
        <time>2009-06-17T15:04:54Z</time>
      </trkpt>
      <trkpt lat="45.07564" lon="4.64114">
        <ele>405.86199951172</ele>
        <time>2009-06-17T15:05:01Z</time>
      </trkpt>
      <trkpt lat="45.07551" lon="4.64149">
        <ele>405.85400390625</ele>
        <time>2009-06-17T15:05:05Z</time>
      </trkpt>
      <trkpt lat="45.07529" lon="4.64181">
        <ele>406.27700805664</ele>
        <time>2009-06-17T15:05:10Z</time>
      </trkpt>
      <trkpt lat="45.07515" lon="4.64223">
        <ele>406.95901489258</ele>
        <time>2009-06-17T15:05:16Z</time>
      </trkpt>
      <trkpt lat="45.07515" lon="4.64265">
        <ele>407.83898925781</ele>
        <time>2009-06-17T15:05:22Z</time>
      </trkpt>
      <trkpt lat="45.07515" lon="4.64271">
        <ele>407.81399536133</ele>
        <time>2009-06-17T15:05:23Z</time>
      </trkpt>
      <trkpt lat="45.07523" lon="4.64325">
        <ele>408.62298583984</ele>
        <time>2009-06-17T15:05:31Z</time>
      </trkpt>
      <trkpt lat="45.07528" lon="4.64363">
        <ele>409.5419921875</ele>
        <time>2009-06-17T15:05:37Z</time>
      </trkpt>
      <trkpt lat="45.07536" lon="4.64406">
        <ele>410.65899658203</ele>
        <time>2009-06-17T15:05:44Z</time>
      </trkpt>
      <trkpt lat="45.07539" lon="4.64424">
        <ele>411.10900878906</ele>
        <time>2009-06-17T15:05:47Z</time>
      </trkpt>
      <trkpt lat="45.07532" lon="4.64456">
        <ele>411.89401245117</ele>
        <time>2009-06-17T15:05:53Z</time>
      </trkpt>
      <trkpt lat="45.07522" lon="4.64467">
        <ele>411.9880065918</ele>
        <time>2009-06-17T15:05:56Z</time>
      </trkpt>
      <trkpt lat="45.07492" lon="4.64505">
        <ele>412.70401000977</ele>
        <time>2009-06-17T15:06:05Z</time>
      </trkpt>
      <trkpt lat="45.07454" lon="4.64616">
        <ele>414.66299438477</ele>
        <time>2009-06-17T15:06:24Z</time>
      </trkpt>
      <trkpt lat="45.07449" lon="4.64634">
        <ele>415.14700317383</ele>
        <time>2009-06-17T15:06:27Z</time>
      </trkpt>
      <trkpt lat="45.07444" lon="4.64653">
        <ele>415.3630065918</ele>
        <time>2009-06-17T15:06:30Z</time>
      </trkpt>
      <trkpt lat="45.07453" lon="4.64695">
        <ele>415.69799804688</ele>
        <time>2009-06-17T15:06:37Z</time>
      </trkpt>
      <trkpt lat="45.07472" lon="4.64732">
        <ele>416.35598754883</ele>
        <time>2009-06-17T15:06:44Z</time>
      </trkpt>
      <trkpt lat="45.07485" lon="4.64748">
        <ele>416.7380065918</ele>
        <time>2009-06-17T15:06:48Z</time>
      </trkpt>
      <trkpt lat="45.07502" lon="4.64767">
        <ele>417.4049987793</ele>
        <time>2009-06-17T15:06:53Z</time>
      </trkpt>
      <trkpt lat="45.07515" lon="4.64813">
        <ele>417.58099365234</ele>
        <time>2009-06-17T15:07:01Z</time>
      </trkpt>
      <trkpt lat="45.07502" lon="4.64907">
        <ele>419.37200927734</ele>
        <time>2009-06-17T15:07:16Z</time>
      </trkpt>
      <trkpt lat="45.07483" lon="4.64937">
        <ele>420.23199462891</ele>
        <time>2009-06-17T15:07:23Z</time>
      </trkpt>
      <trkpt lat="45.07415" lon="4.65006">
        <ele>422.0710144043</ele>
        <time>2009-06-17T15:07:42Z</time>
      </trkpt>
      <trkpt lat="45.07388" lon="4.65129">
        <ele>424.36700439453</ele>
        <time>2009-06-17T15:08:03Z</time>
      </trkpt>
      <trkpt lat="45.07386" lon="4.65154">
        <ele>424.63598632812</ele>
        <time>2009-06-17T15:08:07Z</time>
      </trkpt>
      <trkpt lat="45.07385" lon="4.65247">
        <ele>425.85800170898</ele>
        <time>2009-06-17T15:08:21Z</time>
      </trkpt>
      <trkpt lat="45.07375" lon="4.6529">
        <ele>426.79299926758</ele>
        <time>2009-06-17T15:08:28Z</time>
      </trkpt>
      <trkpt lat="45.07367" lon="4.65326">
        <ele>427.24798583984</ele>
        <time>2009-06-17T15:08:34Z</time>
      </trkpt>
      <trkpt lat="45.07356" lon="4.65416">
        <ele>428.21899414062</ele>
        <time>2009-06-17T15:08:48Z</time>
      </trkpt>
      <trkpt lat="45.07327" lon="4.65505">
        <ele>428.6549987793</ele>
        <time>2009-06-17T15:09:02Z</time>
      </trkpt>
      <trkpt lat="45.07292" lon="4.65627">
        <ele>429.7200012207</ele>
        <time>2009-06-17T15:09:20Z</time>
      </trkpt>
      <trkpt lat="45.07263" lon="4.65748">
        <ele>430.59100341797</ele>
        <time>2009-06-17T15:09:37Z</time>
      </trkpt>
      <trkpt lat="45.07231" lon="4.65789">
        <ele>430.86898803711</ele>
        <time>2009-06-17T15:09:46Z</time>
      </trkpt>
      <trkpt lat="45.07162" lon="4.65826">
        <ele>431.66799926758</ele>
        <time>2009-06-17T15:10:00Z</time>
      </trkpt>
      <trkpt lat="45.07123" lon="4.6584">
        <ele>432.16900634766</ele>
        <time>2009-06-17T15:10:08Z</time>
      </trkpt>
      <trkpt lat="45.07094" lon="4.65882">
        <ele>432.38500976562</ele>
        <time>2009-06-17T15:10:17Z</time>
      </trkpt>
      <trkpt lat="45.071" lon="4.65922">
        <ele>432.52801513672</ele>
        <time>2009-06-17T15:10:23Z</time>
      </trkpt>
      <trkpt lat="45.07131" lon="4.65973">
        <ele>432.96798706055</ele>
        <time>2009-06-17T15:10:32Z</time>
      </trkpt>
      <trkpt lat="45.07139" lon="4.66001">
        <ele>432.91400146484</ele>
        <time>2009-06-17T15:10:36Z</time>
      </trkpt>
      <trkpt lat="45.07158" lon="4.66086">
        <ele>432.83801269531</ele>
        <time>2009-06-17T15:10:47Z</time>
      </trkpt>
      <trkpt lat="45.07158" lon="4.66123">
        <ele>433.00698852539</ele>
        <time>2009-06-17T15:10:52Z</time>
      </trkpt>
      <trkpt lat="45.07148" lon="4.66148">
        <ele>433.26098632812</ele>
        <time>2009-06-17T15:10:56Z</time>
      </trkpt>
      <trkpt lat="45.07079" lon="4.66242">
        <ele>433.98001098633</ele>
        <time>2009-06-17T15:11:13Z</time>
      </trkpt>
      <trkpt lat="45.07064" lon="4.66251">
        <ele>434.09298706055</ele>
        <time>2009-06-17T15:11:16Z</time>
      </trkpt>
      <trkpt lat="45.06967" lon="4.66245">
        <ele>436.00900268555</ele>
        <time>2009-06-17T15:11:34Z</time>
      </trkpt>
      <trkpt lat="45.06876" lon="4.66226">
        <ele>438.32501220703</ele>
        <time>2009-06-17T15:11:51Z</time>
      </trkpt>
      <trkpt lat="45.06842" lon="4.66211">
        <ele>439.18499755859</ele>
        <time>2009-06-17T15:11:58Z</time>
      </trkpt>
      <trkpt lat="45.06821" lon="4.66207">
        <ele>439.66500854492</ele>
        <time>2009-06-17T15:12:02Z</time>
      </trkpt>
      <trkpt lat="45.0681" lon="4.66209">
        <ele>439.82400512695</ele>
        <time>2009-06-17T15:12:04Z</time>
      </trkpt>
      <trkpt lat="45.06739" lon="4.66253">
        <ele>441.65301513672</ele>
        <time>2009-06-17T15:12:18Z</time>
      </trkpt>
      <trkpt lat="45.06683" lon="4.66273">
        <ele>443.02099609375</ele>
        <time>2009-06-17T15:12:29Z</time>
      </trkpt>
      <trkpt lat="45.06664" lon="4.66274">
        <ele>443.47500610352</ele>
        <time>2009-06-17T15:12:33Z</time>
      </trkpt>
      <trkpt lat="45.06624" lon="4.66268">
        <ele>444.66299438477</ele>
        <time>2009-06-17T15:12:41Z</time>
      </trkpt>
      <trkpt lat="45.06578" lon="4.66301">
        <ele>445.66400146484</ele>
        <time>2009-06-17T15:12:52Z</time>
      </trkpt>
      <trkpt lat="45.06577" lon="4.66365">
        <ele>446.71798706055</ele>
        <time>2009-06-17T15:13:02Z</time>
      </trkpt>
      <trkpt lat="45.06586" lon="4.66381">
        <ele>447.06799316406</ele>
        <time>2009-06-17T15:13:05Z</time>
      </trkpt>
      <trkpt lat="45.06601" lon="4.66404">
        <ele>447.68200683594</ele>
        <time>2009-06-17T15:13:10Z</time>
      </trkpt>
      <trkpt lat="45.06635" lon="4.66425">
        <ele>448.23400878906</ele>
        <time>2009-06-17T15:13:18Z</time>
      </trkpt>
      <trkpt lat="45.06654" lon="4.66456">
        <ele>448.50399780273</ele>
        <time>2009-06-17T15:13:24Z</time>
      </trkpt>
      <trkpt lat="45.06656" lon="4.66477">
        <ele>449.00500488281</ele>
        <time>2009-06-17T15:13:32Z</time>
      </trkpt>
      <trkpt lat="45.06649" lon="4.66526">
        <ele>450.08801269531</ele>
        <time>2009-06-17T15:13:37Z</time>
      </trkpt>
      <trkpt lat="45.06641" lon="4.66561">
        <ele>450.34399414062</ele>
        <time>2009-06-17T15:13:43Z</time>
      </trkpt>
      <trkpt lat="45.0663" lon="4.66583">
        <ele>450.83099365234</ele>
        <time>2009-06-17T15:13:47Z</time>
      </trkpt>
      <trkpt lat="45.06622" lon="4.66591">
        <ele>450.82299804688</ele>
        <time>2009-06-17T15:13:49Z</time>
      </trkpt>
      <trkpt lat="45.06604" lon="4.66602">
        <ele>451.73001098633</ele>
        <time>2009-06-17T15:13:53Z</time>
      </trkpt>
      <trkpt lat="45.06594" lon="4.66619">
        <ele>452.2200012207</ele>
        <time>2009-06-17T15:13:57Z</time>
      </trkpt>
      <trkpt lat="45.06585" lon="4.66634">
        <ele>452.2619934082</ele>
        <time>2009-06-17T15:14:00Z</time>
      </trkpt>
      <trkpt lat="45.06557" lon="4.66756">
        <ele>454.54598999023</ele>
        <time>2009-06-17T15:14:19Z</time>
      </trkpt>
      <trkpt lat="45.06543" lon="4.66838">
        <ele>454.94799804688</ele>
        <time>2009-06-17T15:14:31Z</time>
      </trkpt>
      <trkpt lat="45.06533" lon="4.66864">
        <ele>455.36499023438</ele>
        <time>2009-06-17T15:14:35Z</time>
      </trkpt>
      <trkpt lat="45.06505" lon="4.66919">
        <ele>455.5119934082</ele>
        <time>2009-06-17T15:14:44Z</time>
      </trkpt>
      <trkpt lat="45.06486" lon="4.67015">
        <ele>454.29998779297</ele>
        <time>2009-06-17T15:14:56Z</time>
      </trkpt>
      <trkpt lat="45.06485" lon="4.67024">
        <ele>454.17300415039</ele>
        <time>2009-06-17T15:14:57Z</time>
      </trkpt>
      <trkpt lat="45.06457" lon="4.67062">
        <ele>453.1960144043</ele>
        <time>2009-06-17T15:15:03Z</time>
      </trkpt>
      <trkpt lat="45.06432" lon="4.67077">
        <ele>452.94000244141</ele>
        <time>2009-06-17T15:15:07Z</time>
      </trkpt>
      <trkpt lat="45.06411" lon="4.67101">
        <ele>452.31600952148</ele>
        <time>2009-06-17T15:15:11Z</time>
      </trkpt>
      <trkpt lat="45.06391" lon="4.6713">
        <ele>451.79901123047</ele>
        <time>2009-06-17T15:15:15Z</time>
      </trkpt>
      <trkpt lat="45.06386" lon="4.67137">
        <ele>452.02200317383</ele>
        <time>2009-06-17T15:15:16Z</time>
      </trkpt>
      <trkpt lat="45.06376" lon="4.67151">
        <ele>451.60699462891</ele>
        <time>2009-06-17T15:15:18Z</time>
      </trkpt>
      <trkpt lat="45.0635" lon="4.67225">
        <ele>449.53601074219</ele>
        <time>2009-06-17T15:15:26Z</time>
      </trkpt>
      <trkpt lat="45.06337" lon="4.67264">
        <ele>449.16101074219</ele>
        <time>2009-06-17T15:15:30Z</time>
      </trkpt>
      <trkpt lat="45.06295" lon="4.67339">
        <ele>447.13400268555</ele>
        <time>2009-06-17T15:15:39Z</time>
      </trkpt>
      <trkpt lat="45.06264" lon="4.67433">
        <ele>445.93099975586</ele>
        <time>2009-06-17T15:15:48Z</time>
      </trkpt>
      <trkpt lat="45.06224" lon="4.67498">
        <ele>444.0530090332</ele>
        <time>2009-06-17T15:15:55Z</time>
      </trkpt>
      <trkpt lat="45.0618" lon="4.67586">
        <ele>442.18099975586</ele>
        <time>2009-06-17T15:16:04Z</time>
      </trkpt>
      <trkpt lat="45.06176" lon="4.67597">
        <ele>442.22399902344</ele>
        <time>2009-06-17T15:16:05Z</time>
      </trkpt>
      <trkpt lat="45.06165" lon="4.67637">
        <ele>441.8210144043</ele>
        <time>2009-06-17T15:16:09Z</time>
      </trkpt>
      <trkpt lat="45.06142" lon="4.67698">
        <ele>440.41598510742</ele>
        <time>2009-06-17T15:16:15Z</time>
      </trkpt>
      <trkpt lat="45.06112" lon="4.67774">
        <ele>438.8039855957</ele>
        <time>2009-06-17T15:16:23Z</time>
      </trkpt>
      <trkpt lat="45.06121" lon="4.67831">
        <ele>437.81698608398</ele>
        <time>2009-06-17T15:16:28Z</time>
      </trkpt>
      <trkpt lat="45.06114" lon="4.67892">
        <ele>436.91198730469</ele>
        <time>2009-06-17T15:16:33Z</time>
      </trkpt>
      <trkpt lat="45.06068" lon="4.67987">
        <ele>435.26000976562</ele>
        <time>2009-06-17T15:16:42Z</time>
      </trkpt>
      <trkpt lat="45.06053" lon="4.68029">
        <ele>434.51400756836</ele>
        <time>2009-06-17T15:16:46Z</time>
      </trkpt>
      <trkpt lat="45.06039" lon="4.68175">
        <ele>432.30200195312</ele>
        <time>2009-06-17T15:16:58Z</time>
      </trkpt>
      <trkpt lat="45.06041" lon="4.68222">
        <ele>431.36199951172</ele>
        <time>2009-06-17T15:17:02Z</time>
      </trkpt>
      <trkpt lat="45.06051" lon="4.68256">
        <ele>430.89001464844</ele>
        <time>2009-06-17T15:17:05Z</time>
      </trkpt>
      <trkpt lat="45.06063" lon="4.68354">
        <ele>429.44000244141</ele>
        <time>2009-06-17T15:17:13Z</time>
      </trkpt>
      <trkpt lat="45.06099" lon="4.68412">
        <ele>428.04400634766</ele>
        <time>2009-06-17T15:17:20Z</time>
      </trkpt>
      <trkpt lat="45.06141" lon="4.68466">
        <ele>427.13101196289</ele>
        <time>2009-06-17T15:17:27Z</time>
      </trkpt>
      <trkpt lat="45.06141" lon="4.68485">
        <ele>427.25399780273</ele>
        <time>2009-06-17T15:17:29Z</time>
      </trkpt>
      <trkpt lat="45.06134" lon="4.68514">
        <ele>426.83999633789</ele>
        <time>2009-06-17T15:17:31Z</time>
      </trkpt>
      <trkpt lat="45.06117" lon="4.68582">
        <ele>426.71701049805</ele>
        <time>2009-06-17T15:17:37Z</time>
      </trkpt>
      <trkpt lat="45.06094" lon="4.68774">
        <ele>425.53298950195</ele>
        <time>2009-06-17T15:17:53Z</time>
      </trkpt>
      <trkpt lat="45.06094" lon="4.68799">
        <ele>425.3330078125</ele>
        <time>2009-06-17T15:17:55Z</time>
      </trkpt>
      <trkpt lat="45.06108" lon="4.68867">
        <ele>424.8030090332</ele>
        <time>2009-06-17T15:18:01Z</time>
      </trkpt>
      <trkpt lat="45.06121" lon="4.68964">
        <ele>424.36499023438</ele>
        <time>2009-06-17T15:18:09Z</time>
      </trkpt>
      <trkpt lat="45.06155" lon="4.69037">
        <ele>423.30499267578</ele>
        <time>2009-06-17T15:18:17Z</time>
      </trkpt>
      <trkpt lat="45.06289" lon="4.69132">
        <ele>422.18399047852</ele>
        <time>2009-06-17T15:18:34Z</time>
      </trkpt>
      <trkpt lat="45.06429" lon="4.69228">
        <ele>419.86099243164</ele>
        <time>2009-06-17T15:18:52Z</time>
      </trkpt>
      <trkpt lat="45.06429" lon="4.69228">
        <ele>419.6969909668</ele>
        <time>2009-06-17T15:18:53Z</time>
      </trkpt>
      <trkpt lat="45.06527" lon="4.69319">
        <ele>416.32598876953</ele>
        <time>2009-06-17T15:19:04Z</time>
      </trkpt>
      <trkpt lat="45.06553" lon="4.69358">
        <ele>414.82598876953</ele>
        <time>2009-06-17T15:19:08Z</time>
      </trkpt>
      <trkpt lat="45.06588" lon="4.69508">
        <ele>413.13800048828</ele>
        <time>2009-06-17T15:19:20Z</time>
      </trkpt>
      <trkpt lat="45.06598" lon="4.69582">
        <ele>413.17098999023</ele>
        <time>2009-06-17T15:19:26Z</time>
      </trkpt>
      <trkpt lat="45.06598" lon="4.69639">
        <ele>412.40301513672</ele>
        <time>2009-06-17T15:19:31Z</time>
      </trkpt>
      <trkpt lat="45.06595" lon="4.69673">
        <ele>412.14999389648</ele>
        <time>2009-06-17T15:19:34Z</time>
      </trkpt>
      <trkpt lat="45.06588" lon="4.69704">
        <ele>410.92700195312</ele>
        <time>2009-06-17T15:19:39Z</time>
      </trkpt>
      <trkpt lat="45.06489" lon="4.69811">
        <ele>406.70098876953</ele>
        <time>2009-06-17T15:19:52Z</time>
      </trkpt>
      <trkpt lat="45.0644" lon="4.69861">
        <ele>404.93200683594</ele>
        <time>2009-06-17T15:19:59Z</time>
      </trkpt>
      <trkpt lat="45.06353" lon="4.69952">
        <ele>401.50698852539</ele>
        <time>2009-06-17T15:20:10Z</time>
      </trkpt>
      <trkpt lat="45.06318" lon="4.70033">
        <ele>398.7919921875</ele>
        <time>2009-06-17T15:20:17Z</time>
      </trkpt>
      <trkpt lat="45.06317" lon="4.70048">
        <ele>397.8030090332</ele>
        <time>2009-06-17T15:20:20Z</time>
      </trkpt>
      <trkpt lat="45.06324" lon="4.70101">
        <ele>397.06201171875</ele>
        <time>2009-06-17T15:20:22Z</time>
      </trkpt>
      <trkpt lat="45.0633" lon="4.70144">
        <ele>395.33898925781</ele>
        <time>2009-06-17T15:20:25Z</time>
      </trkpt>
      <trkpt lat="45.06338" lon="4.702">
        <ele>394.01400756836</ele>
        <time>2009-06-17T15:20:29Z</time>
      </trkpt>
      <trkpt lat="45.06329" lon="4.70271">
        <ele>392.2080078125</ele>
        <time>2009-06-17T15:20:34Z</time>
      </trkpt>
      <trkpt lat="45.063" lon="4.70361">
        <ele>389.48699951172</ele>
        <time>2009-06-17T15:20:41Z</time>
      </trkpt>
      <trkpt lat="45.06266" lon="4.70452">
        <ele>386.86700439453</ele>
        <time>2009-06-17T15:20:48Z</time>
      </trkpt>
      <trkpt lat="45.06261" lon="4.70519">
        <ele>384.93200683594</ele>
        <time>2009-06-17T15:20:53Z</time>
      </trkpt>
      <trkpt lat="45.06247" lon="4.70596">
        <ele>382.02899169922</ele>
        <time>2009-06-17T15:20:59Z</time>
      </trkpt>
      <trkpt lat="45.06239" lon="4.70604">
        <ele>381.95199584961</ele>
        <time>2009-06-17T15:21:00Z</time>
      </trkpt>
      <trkpt lat="45.06222" lon="4.70614">
        <ele>381.1669921875</ele>
        <time>2009-06-17T15:21:02Z</time>
      </trkpt>
      <trkpt lat="45.06202" lon="4.70615">
        <ele>380.40899658203</ele>
        <time>2009-06-17T15:21:04Z</time>
      </trkpt>
      <trkpt lat="45.06116" lon="4.70617">
        <ele>376.66299438477</ele>
        <time>2009-06-17T15:21:12Z</time>
      </trkpt>
      <trkpt lat="45.06056" lon="4.70656">
        <ele>372.79098510742</ele>
        <time>2009-06-17T15:21:18Z</time>
      </trkpt>
      <trkpt lat="45.06013" lon="4.70664">
        <ele>370.88000488281</ele>
        <time>2009-06-17T15:21:22Z</time>
      </trkpt>
      <trkpt lat="45.05945" lon="4.70649">
        <ele>368.27600097656</ele>
        <time>2009-06-17T15:21:28Z</time>
      </trkpt>
      <trkpt lat="45.0591" lon="4.70646">
        <ele>366.0830078125</ele>
        <time>2009-06-17T15:21:31Z</time>
      </trkpt>
      <trkpt lat="45.0583" lon="4.70633">
        <ele>363.14099121094</ele>
        <time>2009-06-17T15:21:38Z</time>
      </trkpt>
      <trkpt lat="45.05786" lon="4.70634">
        <ele>360.99798583984</ele>
        <time>2009-06-17T15:21:42Z</time>
      </trkpt>
      <trkpt lat="45.05741" lon="4.70631">
        <ele>358.8869934082</ele>
        <time>2009-06-17T15:21:46Z</time>
      </trkpt>
      <trkpt lat="45.05731" lon="4.70628">
        <ele>358.71798706055</ele>
        <time>2009-06-17T15:21:47Z</time>
      </trkpt>
      <trkpt lat="45.0569" lon="4.70616">
        <ele>357.46798706055</ele>
        <time>2009-06-17T15:21:51Z</time>
      </trkpt>
      <trkpt lat="45.05659" lon="4.7061">
        <ele>355.92199707031</ele>
        <time>2009-06-17T15:21:54Z</time>
      </trkpt>
      <trkpt lat="45.05566" lon="4.7059">
        <ele>352.5299987793</ele>
        <time>2009-06-17T15:22:03Z</time>
      </trkpt>
      <trkpt lat="45.05495" lon="4.7061">
        <ele>349.53500366211</ele>
        <time>2009-06-17T15:22:10Z</time>
      </trkpt>
      <trkpt lat="45.05481" lon="4.70644">
        <ele>348.23400878906</ele>
        <time>2009-06-17T15:22:13Z</time>
      </trkpt>
      <trkpt lat="45.05459" lon="4.70698">
        <ele>346.09201049805</ele>
        <time>2009-06-17T15:22:17Z</time>
      </trkpt>
      <trkpt lat="45.05408" lon="4.70721">
        <ele>343.74600219727</ele>
        <time>2009-06-17T15:22:22Z</time>
      </trkpt>
      <trkpt lat="45.05399" lon="4.7079">
        <ele>341.66598510742</ele>
        <time>2009-06-17T15:22:27Z</time>
      </trkpt>
      <trkpt lat="45.05405" lon="4.70833">
        <ele>340.22799682617</ele>
        <time>2009-06-17T15:22:30Z</time>
      </trkpt>
      <trkpt lat="45.05416" lon="4.70874">
        <ele>339.53698730469</ele>
        <time>2009-06-17T15:22:33Z</time>
      </trkpt>
      <trkpt lat="45.05439" lon="4.7092">
        <ele>338.22500610352</ele>
        <time>2009-06-17T15:22:37Z</time>
      </trkpt>
      <trkpt lat="45.05476" lon="4.70985">
        <ele>334.59600830078</ele>
        <time>2009-06-17T15:22:43Z</time>
      </trkpt>
      <trkpt lat="45.05473" lon="4.71">
        <ele>334.35501098633</ele>
        <time>2009-06-17T15:22:44Z</time>
      </trkpt>
      <trkpt lat="45.05446" lon="4.71056">
        <ele>331.88299560547</ele>
        <time>2009-06-17T15:22:49Z</time>
      </trkpt>
      <trkpt lat="45.05462" lon="4.7113">
        <ele>329.8450012207</ele>
        <time>2009-06-17T15:22:54Z</time>
      </trkpt>
      <trkpt lat="45.05506" lon="4.71189">
        <ele>326.91198730469</ele>
        <time>2009-06-17T15:23:00Z</time>
      </trkpt>
      <trkpt lat="45.05515" lon="4.71229">
        <ele>325.5830078125</ele>
        <time>2009-06-17T15:23:03Z</time>
      </trkpt>
      <trkpt lat="45.05505" lon="4.71255">
        <ele>324.39898681641</ele>
        <time>2009-06-17T15:23:05Z</time>
      </trkpt>
      <trkpt lat="45.05477" lon="4.71333">
        <ele>322.33499145508</ele>
        <time>2009-06-17T15:23:11Z</time>
      </trkpt>
      <trkpt lat="45.05482" lon="4.71392">
        <ele>320.58801269531</ele>
        <time>2009-06-17T15:23:15Z</time>
      </trkpt>
      <trkpt lat="45.05485" lon="4.71422">
        <ele>319.69299316406</ele>
        <time>2009-06-17T15:23:17Z</time>
      </trkpt>
      <trkpt lat="45.0549" lon="4.71435">
        <ele>318.94299316406</ele>
        <time>2009-06-17T15:23:18Z</time>
      </trkpt>
      <trkpt lat="45.05529" lon="4.71473">
        <ele>316.62100219727</ele>
        <time>2009-06-17T15:23:23Z</time>
      </trkpt>
      <trkpt lat="45.05579" lon="4.71509">
        <ele>313.64099121094</ele>
        <time>2009-06-17T15:23:29Z</time>
      </trkpt>
      <trkpt lat="45.05579" lon="4.71524">
        <ele>313.04400634766</ele>
        <time>2009-06-17T15:23:30Z</time>
      </trkpt>
      <trkpt lat="45.05596" lon="4.7166">
        <ele>309.64199829102</ele>
        <time>2009-06-17T15:23:39Z</time>
      </trkpt>
      <trkpt lat="45.05619" lon="4.71748">
        <ele>307.30099487305</ele>
        <time>2009-06-17T15:23:45Z</time>
      </trkpt>
      <trkpt lat="45.05627" lon="4.71777">
        <ele>306.19299316406</ele>
        <time>2009-06-17T15:23:47Z</time>
      </trkpt>
      <trkpt lat="45.05655" lon="4.71825">
        <ele>304.73199462891</ele>
        <time>2009-06-17T15:23:51Z</time>
      </trkpt>
      <trkpt lat="45.0568" lon="4.71854">
        <ele>303.42401123047</ele>
        <time>2009-06-17T15:23:54Z</time>
      </trkpt>
      <trkpt lat="45.05695" lon="4.71871">
        <ele>301.87701416016</ele>
        <time>2009-06-17T15:23:57Z</time>
      </trkpt>
      <trkpt lat="45.05756" lon="4.71927">
        <ele>299.14001464844</ele>
        <time>2009-06-17T15:24:03Z</time>
      </trkpt>
      <trkpt lat="45.05804" lon="4.71946">
        <ele>297.10400390625</ele>
        <time>2009-06-17T15:24:08Z</time>
      </trkpt>
      <trkpt lat="45.05811" lon="4.71973">
        <ele>296.89599609375</ele>
        <time>2009-06-17T15:24:10Z</time>
      </trkpt>
      <trkpt lat="45.05822" lon="4.72049">
        <ele>294.99301147461</ele>
        <time>2009-06-17T15:24:15Z</time>
      </trkpt>
      <trkpt lat="45.05849" lon="4.72122">
        <ele>292.48300170898</ele>
        <time>2009-06-17T15:24:20Z</time>
      </trkpt>
      <trkpt lat="45.0586" lon="4.72152">
        <ele>291.68499755859</ele>
        <time>2009-06-17T15:24:22Z</time>
      </trkpt>
      <trkpt lat="45.05876" lon="4.72196">
        <ele>290.30599975586</ele>
        <time>2009-06-17T15:24:25Z</time>
      </trkpt>
      <trkpt lat="45.05893" lon="4.7224">
        <ele>288.85501098633</ele>
        <time>2009-06-17T15:24:28Z</time>
      </trkpt>
      <trkpt lat="45.05917" lon="4.72339">
        <ele>285.43399047852</ele>
        <time>2009-06-17T15:24:34Z</time>
      </trkpt>
      <trkpt lat="45.05923" lon="4.72356">
        <ele>285.11999511719</ele>
        <time>2009-06-17T15:24:35Z</time>
      </trkpt>
      <trkpt lat="45.05952" lon="4.72455">
        <ele>282.61898803711</ele>
        <time>2009-06-17T15:24:41Z</time>
      </trkpt>
      <trkpt lat="45.05964" lon="4.72482">
        <ele>281.92401123047</ele>
        <time>2009-06-17T15:24:43Z</time>
      </trkpt>
      <trkpt lat="45.05971" lon="4.72494">
        <ele>281.56799316406</ele>
        <time>2009-06-17T15:24:44Z</time>
      </trkpt>
      <trkpt lat="45.06025" lon="4.72515">
        <ele>280.1130065918</ele>
        <time>2009-06-17T15:24:49Z</time>
      </trkpt>
      <trkpt lat="45.06036" lon="4.7252">
        <ele>280.26998901367</ele>
        <time>2009-06-17T15:24:50Z</time>
      </trkpt>
      <trkpt lat="45.06073" lon="4.72551">
        <ele>278.5719909668</ele>
        <time>2009-06-17T15:24:54Z</time>
      </trkpt>
      <trkpt lat="45.06067" lon="4.72604">
        <ele>277.65600585938</ele>
        <time>2009-06-17T15:24:58Z</time>
      </trkpt>
      <trkpt lat="45.06017" lon="4.72645">
        <ele>275.60900878906</ele>
        <time>2009-06-17T15:25:04Z</time>
      </trkpt>
      <trkpt lat="45.06018" lon="4.72683">
        <ele>274.73699951172</ele>
        <time>2009-06-17T15:25:07Z</time>
      </trkpt>
      <trkpt lat="45.0605" lon="4.7281">
        <ele>271.47799682617</ele>
        <time>2009-06-17T15:25:16Z</time>
      </trkpt>
      <trkpt lat="45.0606" lon="4.72854">
        <ele>270.40399169922</ele>
        <time>2009-06-17T15:25:19Z</time>
      </trkpt>
      <trkpt lat="45.06089" lon="4.72945">
        <ele>266.99301147461</ele>
        <time>2009-06-17T15:25:26Z</time>
      </trkpt>
      <trkpt lat="45.0607" lon="4.72953">
        <ele>266.65301513672</ele>
        <time>2009-06-17T15:25:28Z</time>
      </trkpt>
      <trkpt lat="45.0601" lon="4.72992">
        <ele>263.83499145508</ele>
        <time>2009-06-17T15:25:35Z</time>
      </trkpt>
      <trkpt lat="45.05992" lon="4.73028">
        <ele>262.49099731445</ele>
        <time>2009-06-17T15:25:38Z</time>
      </trkpt>
      <trkpt lat="45.05924" lon="4.73097">
        <ele>259.81900024414</ele>
        <time>2009-06-17T15:25:46Z</time>
      </trkpt>
      <trkpt lat="45.05897" lon="4.7312">
        <ele>258.75900268555</ele>
        <time>2009-06-17T15:25:49Z</time>
      </trkpt>
      <trkpt lat="45.05875" lon="4.73158">
        <ele>256.68200683594</ele>
        <time>2009-06-17T15:25:53Z</time>
      </trkpt>
      <trkpt lat="45.05875" lon="4.73173">
        <ele>256.18701171875</ele>
        <time>2009-06-17T15:25:54Z</time>
      </trkpt>
      <trkpt lat="45.05854" lon="4.73255">
        <ele>254.22099304199</ele>
        <time>2009-06-17T15:26:01Z</time>
      </trkpt>
      <trkpt lat="45.0582" lon="4.73298">
        <ele>254.70100402832</ele>
        <time>2009-06-17T15:26:07Z</time>
      </trkpt>
      <trkpt lat="45.05827" lon="4.73332">
        <ele>256.07998657227</ele>
        <time>2009-06-17T15:26:11Z</time>
      </trkpt>
      <trkpt lat="45.05826" lon="4.73432">
        <ele>259.17498779297</ele>
        <time>2009-06-17T15:26:28Z</time>
      </trkpt>
      <trkpt lat="45.05821" lon="4.73465">
        <ele>260.27499389648</ele>
        <time>2009-06-17T15:26:34Z</time>
      </trkpt>
      <trkpt lat="45.05816" lon="4.73501">
        <ele>261.21899414062</ele>
        <time>2009-06-17T15:26:40Z</time>
      </trkpt>
      <trkpt lat="45.0581" lon="4.73535">
        <ele>262.16198730469</ele>
        <time>2009-06-17T15:26:46Z</time>
      </trkpt>
      <trkpt lat="45.05813" lon="4.73592">
        <ele>263.91198730469</ele>
        <time>2009-06-17T15:26:56Z</time>
      </trkpt>
      <trkpt lat="45.05851" lon="4.7367">
        <ele>266.71798706055</ele>
        <time>2009-06-17T15:27:12Z</time>
      </trkpt>
      <trkpt lat="45.05865" lon="4.73699">
        <ele>268.11898803711</ele>
        <time>2009-06-17T15:27:18Z</time>
      </trkpt>
      <trkpt lat="45.05886" lon="4.73743">
        <ele>269.64300537109</ele>
        <time>2009-06-17T15:27:27Z</time>
      </trkpt>
      <trkpt lat="45.05891" lon="4.73753">
        <ele>270.01300048828</ele>
        <time>2009-06-17T15:27:29Z</time>
      </trkpt>
      <trkpt lat="45.05896" lon="4.73804">
        <ele>271.7619934082</ele>
        <time>2009-06-17T15:27:38Z</time>
      </trkpt>
      <trkpt lat="45.05874" lon="4.73918">
        <ele>274.64898681641</ele>
        <time>2009-06-17T15:27:56Z</time>
      </trkpt>
      <trkpt lat="45.05862" lon="4.73979">
        <ele>276.39300537109</ele>
        <time>2009-06-17T15:28:06Z</time>
      </trkpt>
      <trkpt lat="45.05833" lon="4.74017">
        <ele>278.43099975586</ele>
        <time>2009-06-17T15:28:14Z</time>
      </trkpt>
      <trkpt lat="45.05717" lon="4.74004">
        <ele>282.99200439453</ele>
        <time>2009-06-17T15:28:38Z</time>
      </trkpt>
      <trkpt lat="45.05689" lon="4.74">
        <ele>284.29998779297</ele>
        <time>2009-06-17T15:28:44Z</time>
      </trkpt>
      <trkpt lat="45.05669" lon="4.74026">
        <ele>285.93099975586</ele>
        <time>2009-06-17T15:28:52Z</time>
      </trkpt>
      <trkpt lat="45.05676" lon="4.74035">
        <ele>286.37100219727</ele>
        <time>2009-06-17T15:28:55Z</time>
      </trkpt>
      <trkpt lat="45.05728" lon="4.74107">
        <ele>289.68600463867</ele>
        <time>2009-06-17T15:29:12Z</time>
      </trkpt>
      <trkpt lat="45.05746" lon="4.74133">
        <ele>290.80899047852</ele>
        <time>2009-06-17T15:29:18Z</time>
      </trkpt>
      <trkpt lat="45.05766" lon="4.74155">
        <ele>291.97399902344</ele>
        <time>2009-06-17T15:29:24Z</time>
      </trkpt>
      <trkpt lat="45.05784" lon="4.74175">
        <ele>292.98300170898</ele>
        <time>2009-06-17T15:29:29Z</time>
      </trkpt>
      <trkpt lat="45.05811" lon="4.74232">
        <ele>295.1369934082</ele>
        <time>2009-06-17T15:29:40Z</time>
      </trkpt>
      <trkpt lat="45.05815" lon="4.7426">
        <ele>295.8210144043</ele>
        <time>2009-06-17T15:29:44Z</time>
      </trkpt>
      <trkpt lat="45.05816" lon="4.74377">
        <ele>299.54998779297</ele>
        <time>2009-06-17T15:30:01Z</time>
      </trkpt>
      <trkpt lat="45.05818" lon="4.74402">
        <ele>300.48199462891</ele>
        <time>2009-06-17T15:30:05Z</time>
      </trkpt>
      <trkpt lat="45.0582" lon="4.74426">
        <ele>301.18899536133</ele>
        <time>2009-06-17T15:30:09Z</time>
      </trkpt>
      <trkpt lat="45.05833" lon="4.74498">
        <ele>303.74099731445</ele>
        <time>2009-06-17T15:30:22Z</time>
      </trkpt>
      <trkpt lat="45.05835" lon="4.74523">
        <ele>304.75500488281</ele>
        <time>2009-06-17T15:30:26Z</time>
      </trkpt>
      <trkpt lat="45.05836" lon="4.7457">
        <ele>306.25799560547</ele>
        <time>2009-06-17T15:30:36Z</time>
      </trkpt>
      <trkpt lat="45.05861" lon="4.7463">
        <ele>308.86700439453</ele>
        <time>2009-06-17T15:30:49Z</time>
      </trkpt>
      <trkpt lat="45.0588" lon="4.7471">
        <ele>311.31298828125</ele>
        <time>2009-06-17T15:31:05Z</time>
      </trkpt>
      <trkpt lat="45.05865" lon="4.74774">
        <ele>313.73999023438</ele>
        <time>2009-06-17T15:31:18Z</time>
      </trkpt>
      <trkpt lat="45.05858" lon="4.74796">
        <ele>314.33700561523</ele>
        <time>2009-06-17T15:31:22Z</time>
      </trkpt>
      <trkpt lat="45.05874" lon="4.74838">
        <ele>316.90600585938</ele>
        <time>2009-06-17T15:31:32Z</time>
      </trkpt>
      <trkpt lat="45.05886" lon="4.74845">
        <ele>317.61099243164</ele>
        <time>2009-06-17T15:31:36Z</time>
      </trkpt>
      <trkpt lat="45.05962" lon="4.74842">
        <ele>321.1669921875</ele>
        <time>2009-06-17T15:31:55Z</time>
      </trkpt>
      <trkpt lat="45.05987" lon="4.74839">
        <ele>321.93798828125</ele>
        <time>2009-06-17T15:32:01Z</time>
      </trkpt>
      <trkpt lat="45.06064" lon="4.74822">
        <ele>325.73999023438</ele>
        <time>2009-06-17T15:32:20Z</time>
      </trkpt>
      <trkpt lat="45.06101" lon="4.74819">
        <ele>327.71499633789</ele>
        <time>2009-06-17T15:32:29Z</time>
      </trkpt>
      <trkpt lat="45.06109" lon="4.74816">
        <ele>327.96798706055</ele>
        <time>2009-06-17T15:32:31Z</time>
      </trkpt>
      <trkpt lat="45.06128" lon="4.74802">
        <ele>328.90899658203</ele>
        <time>2009-06-17T15:32:36Z</time>
      </trkpt>
      <trkpt lat="45.06173" lon="4.74772">
        <ele>331.14300537109</ele>
        <time>2009-06-17T15:32:48Z</time>
      </trkpt>
      <trkpt lat="45.06197" lon="4.74764">
        <ele>331.91799926758</ele>
        <time>2009-06-17T15:32:54Z</time>
      </trkpt>
      <trkpt lat="45.06255" lon="4.74719">
        <ele>335.18399047852</ele>
        <time>2009-06-17T15:33:11Z</time>
      </trkpt>
      <trkpt lat="45.06291" lon="4.74683">
        <ele>337.44500732422</ele>
        <time>2009-06-17T15:33:24Z</time>
      </trkpt>
      <trkpt lat="45.06308" lon="4.74697">
        <ele>338.94500732422</ele>
        <time>2009-06-17T15:33:31Z</time>
      </trkpt>
      <trkpt lat="45.06301" lon="4.74713">
        <ele>339.27200317383</ele>
        <time>2009-06-17T15:33:40Z</time>
      </trkpt>
      <trkpt lat="45.06301" lon="4.74686">
        <ele>338.38198852539</ele>
        <time>2009-06-17T15:33:49Z</time>
      </trkpt>
      <trkpt lat="45.06287" lon="4.74682">
        <ele>337.60501098633</ele>
        <time>2009-06-17T15:33:56Z</time>
      </trkpt>
      <trkpt lat="45.06282" lon="4.74682">
        <ele>337.47500610352</ele>
        <time>2009-06-17T15:33:58Z</time>
      </trkpt>
      <trkpt lat="45.06269" lon="4.74693">
        <ele>336.14300537109</ele>
        <time>2009-06-17T15:34:09Z</time>
      </trkpt>
      <trkpt lat="45.06268" lon="4.74698">
        <ele>336.20599365234</ele>
        <time>2009-06-17T15:34:20Z</time>
      </trkpt>
      <trkpt lat="45.06269" lon="4.74692">
        <ele>336.55700683594</ele>
        <time>2009-06-17T15:34:23Z</time>
      </trkpt>
      <trkpt lat="45.06278" lon="4.74682">
        <ele>337.18600463867</ele>
        <time>2009-06-17T15:34:27Z</time>
      </trkpt>
      <trkpt lat="45.06284" lon="4.74682">
        <ele>337.64498901367</ele>
        <time>2009-06-17T15:34:32Z</time>
      </trkpt>
      <trkpt lat="45.06289" lon="4.74683">
        <ele>338.22601318359</ele>
        <time>2009-06-17T15:37:32Z</time>
      </trkpt>
      <trkpt lat="45.06305" lon="4.74705">
        <ele>339.77899169922</ele>
        <time>2009-06-17T15:37:45Z</time>
      </trkpt>
      <trkpt lat="45.063" lon="4.74712">
        <ele>339.4880065918</ele>
        <time>2009-06-17T15:37:51Z</time>
      </trkpt>
      <trkpt lat="45.06331" lon="4.74757">
        <ele>338.05801391602</ele>
        <time>2009-06-17T15:38:00Z</time>
      </trkpt>
      <trkpt lat="45.06335" lon="4.7477">
        <ele>337.81600952148</ele>
        <time>2009-06-17T15:38:02Z</time>
      </trkpt>
      <trkpt lat="45.06345" lon="4.74802">
        <ele>336.46701049805</ele>
        <time>2009-06-17T15:38:06Z</time>
      </trkpt>
      <trkpt lat="45.06363" lon="4.74877">
        <ele>334.11700439453</ele>
        <time>2009-06-17T15:38:14Z</time>
      </trkpt>
      <trkpt lat="45.06387" lon="4.7494">
        <ele>332.29598999023</ele>
        <time>2009-06-17T15:38:20Z</time>
      </trkpt>
      <trkpt lat="45.0641" lon="4.74958">
        <ele>331.45401000977</ele>
        <time>2009-06-17T15:38:23Z</time>
      </trkpt>
      <trkpt lat="45.06436" lon="4.74974">
        <ele>330.00799560547</ele>
        <time>2009-06-17T15:38:26Z</time>
      </trkpt>
      <trkpt lat="45.06468" lon="4.75019">
        <ele>328.02499389648</ele>
        <time>2009-06-17T15:38:31Z</time>
      </trkpt>
      <trkpt lat="45.06477" lon="4.7506">
        <ele>326.94799804688</ele>
        <time>2009-06-17T15:38:34Z</time>
      </trkpt>
      <trkpt lat="45.06511" lon="4.75122">
        <ele>324.63101196289</ele>
        <time>2009-06-17T15:38:40Z</time>
      </trkpt>
      <trkpt lat="45.06536" lon="4.75143">
        <ele>323.16799926758</ele>
        <time>2009-06-17T15:38:43Z</time>
      </trkpt>
      <trkpt lat="45.06543" lon="4.75151">
        <ele>322.48901367188</ele>
        <time>2009-06-17T15:38:44Z</time>
      </trkpt>
      <trkpt lat="45.06566" lon="4.75197">
        <ele>321.07998657227</ele>
        <time>2009-06-17T15:38:48Z</time>
      </trkpt>
      <trkpt lat="45.06586" lon="4.75284">
        <ele>318.24301147461</ele>
        <time>2009-06-17T15:38:55Z</time>
      </trkpt>
      <trkpt lat="45.06626" lon="4.75311">
        <ele>315.79598999023</ele>
        <time>2009-06-17T15:39:00Z</time>
      </trkpt>
      <trkpt lat="45.06642" lon="4.75357">
        <ele>313.99600219727</ele>
        <time>2009-06-17T15:39:04Z</time>
      </trkpt>
      <trkpt lat="45.06623" lon="4.75415">
        <ele>312.30801391602</ele>
        <time>2009-06-17T15:39:09Z</time>
      </trkpt>
      <trkpt lat="45.06613" lon="4.75451">
        <ele>311.10699462891</ele>
        <time>2009-06-17T15:39:12Z</time>
      </trkpt>
      <trkpt lat="45.06613" lon="4.75493">
        <ele>310.02801513672</ele>
        <time>2009-06-17T15:39:15Z</time>
      </trkpt>
      <trkpt lat="45.066" lon="4.75556">
        <ele>307.91299438477</ele>
        <time>2009-06-17T15:39:20Z</time>
      </trkpt>
      <trkpt lat="45.06584" lon="4.75575">
        <ele>307.16799926758</ele>
        <time>2009-06-17T15:39:22Z</time>
      </trkpt>
      <trkpt lat="45.06564" lon="4.75647">
        <ele>305.34698486328</ele>
        <time>2009-06-17T15:39:28Z</time>
      </trkpt>
      <trkpt lat="45.06569" lon="4.75674">
        <ele>304.27301025391</ele>
        <time>2009-06-17T15:39:30Z</time>
      </trkpt>
      <trkpt lat="45.0658" lon="4.75779">
        <ele>301.98599243164</ele>
        <time>2009-06-17T15:39:37Z</time>
      </trkpt>
      <trkpt lat="45.06581" lon="4.75809">
        <ele>301.41000366211</ele>
        <time>2009-06-17T15:39:39Z</time>
      </trkpt>
      <trkpt lat="45.06592" lon="4.75862">
        <ele>299.65701293945</ele>
        <time>2009-06-17T15:39:43Z</time>
      </trkpt>
      <trkpt lat="45.06597" lon="4.75878">
        <ele>299.33700561523</ele>
        <time>2009-06-17T15:39:44Z</time>
      </trkpt>
      <trkpt lat="45.0659" lon="4.75958">
        <ele>295.35900878906</ele>
        <time>2009-06-17T15:39:50Z</time>
      </trkpt>
      <trkpt lat="45.06541" lon="4.75993">
        <ele>289.97299194336</ele>
        <time>2009-06-17T15:39:55Z</time>
      </trkpt>
      <trkpt lat="45.06515" lon="4.75989">
        <ele>287.8869934082</ele>
        <time>2009-06-17T15:39:57Z</time>
      </trkpt>
      <trkpt lat="45.0649" lon="4.75987">
        <ele>286.61401367188</ele>
        <time>2009-06-17T15:39:59Z</time>
      </trkpt>
      <trkpt lat="45.06427" lon="4.75944">
        <ele>283.3630065918</ele>
        <time>2009-06-17T15:40:05Z</time>
      </trkpt>
      <trkpt lat="45.06379" lon="4.75947">
        <ele>281.33401489258</ele>
        <time>2009-06-17T15:40:10Z</time>
      </trkpt>
      <trkpt lat="45.06371" lon="4.75955">
        <ele>280.83099365234</ele>
        <time>2009-06-17T15:40:11Z</time>
      </trkpt>
      <trkpt lat="45.06337" lon="4.75992">
        <ele>278.31698608398</ele>
        <time>2009-06-17T15:40:15Z</time>
      </trkpt>
      <trkpt lat="45.06222" lon="4.76078">
        <ele>273.73400878906</ele>
        <time>2009-06-17T15:40:27Z</time>
      </trkpt>
      <trkpt lat="45.06207" lon="4.76099">
        <ele>272.74398803711</ele>
        <time>2009-06-17T15:40:29Z</time>
      </trkpt>
      <trkpt lat="45.06175" lon="4.76142">
        <ele>271.19000244141</ele>
        <time>2009-06-17T15:40:33Z</time>
      </trkpt>
      <trkpt lat="45.0615" lon="4.76198">
        <ele>269.52301025391</ele>
        <time>2009-06-17T15:40:37Z</time>
      </trkpt>
      <trkpt lat="45.06144" lon="4.76212">
        <ele>269.05899047852</ele>
        <time>2009-06-17T15:40:38Z</time>
      </trkpt>
      <trkpt lat="45.06113" lon="4.76336">
        <ele>265.65399169922</ele>
        <time>2009-06-17T15:40:46Z</time>
      </trkpt>
      <trkpt lat="45.06108" lon="4.76386">
        <ele>264.29098510742</ele>
        <time>2009-06-17T15:40:49Z</time>
      </trkpt>
      <trkpt lat="45.06107" lon="4.76469">
        <ele>261.86099243164</ele>
        <time>2009-06-17T15:40:54Z</time>
      </trkpt>
      <trkpt lat="45.06111" lon="4.76516">
        <ele>260.15100097656</ele>
        <time>2009-06-17T15:40:57Z</time>
      </trkpt>
      <trkpt lat="45.06107" lon="4.76566">
        <ele>258.50900268555</ele>
        <time>2009-06-17T15:41:01Z</time>
      </trkpt>
      <trkpt lat="45.06056" lon="4.76566">
        <ele>254.95399475098</ele>
        <time>2009-06-17T15:41:06Z</time>
      </trkpt>
      <trkpt lat="45.06035" lon="4.76557">
        <ele>253.86000061035</ele>
        <time>2009-06-17T15:41:08Z</time>
      </trkpt>
      <trkpt lat="45.05991" lon="4.76549">
        <ele>251.29499816894</ele>
        <time>2009-06-17T15:41:12Z</time>
      </trkpt>
      <trkpt lat="45.05967" lon="4.76579">
        <ele>249.79699707031</ele>
        <time>2009-06-17T15:41:15Z</time>
      </trkpt>
      <trkpt lat="45.05942" lon="4.76626">
        <ele>248.59599304199</ele>
        <time>2009-06-17T15:41:19Z</time>
      </trkpt>
      <trkpt lat="45.05919" lon="4.76677">
        <ele>246.30900573731</ele>
        <time>2009-06-17T15:41:23Z</time>
      </trkpt>
      <trkpt lat="45.05889" lon="4.76697">
        <ele>244.99800109863</ele>
        <time>2009-06-17T15:41:26Z</time>
      </trkpt>
      <trkpt lat="45.05878" lon="4.76701">
        <ele>244.48399353027</ele>
        <time>2009-06-17T15:41:27Z</time>
      </trkpt>
      <trkpt lat="45.05836" lon="4.76715">
        <ele>242.87399291992</ele>
        <time>2009-06-17T15:41:31Z</time>
      </trkpt>
      <trkpt lat="45.05798" lon="4.76727">
        <ele>241.03900146484</ele>
        <time>2009-06-17T15:41:36Z</time>
      </trkpt>
      <trkpt lat="45.05794" lon="4.76811">
        <ele>238.8450012207</ele>
        <time>2009-06-17T15:41:41Z</time>
      </trkpt>
      <trkpt lat="45.05788" lon="4.76826">
        <ele>238.57499694824</ele>
        <time>2009-06-17T15:41:42Z</time>
      </trkpt>
      <trkpt lat="45.05765" lon="4.76868">
        <ele>237.22900390625</ele>
        <time>2009-06-17T15:41:45Z</time>
      </trkpt>
      <trkpt lat="45.05709" lon="4.76942">
        <ele>234.08299255371</ele>
        <time>2009-06-17T15:41:52Z</time>
      </trkpt>
      <trkpt lat="45.05702" lon="4.76953">
        <ele>233.81599426269</ele>
        <time>2009-06-17T15:41:53Z</time>
      </trkpt>
      <trkpt lat="45.05679" lon="4.76988">
        <ele>232.43299865723</ele>
        <time>2009-06-17T15:41:56Z</time>
      </trkpt>
      <trkpt lat="45.05628" lon="4.77041">
        <ele>229.57899475098</ele>
        <time>2009-06-17T15:42:02Z</time>
      </trkpt>
      <trkpt lat="45.05614" lon="4.77088">
        <ele>228.0359954834</ele>
        <time>2009-06-17T15:42:06Z</time>
      </trkpt>
      <trkpt lat="45.05618" lon="4.77135">
        <ele>226.93600463867</ele>
        <time>2009-06-17T15:42:09Z</time>
      </trkpt>
      <trkpt lat="45.05614" lon="4.77165">
        <ele>225.78799438477</ele>
        <time>2009-06-17T15:42:11Z</time>
      </trkpt>
      <trkpt lat="45.05605" lon="4.7724">
        <ele>224.18600463867</ele>
        <time>2009-06-17T15:42:16Z</time>
      </trkpt>
      <trkpt lat="45.05611" lon="4.77309">
        <ele>222.2380065918</ele>
        <time>2009-06-17T15:42:21Z</time>
      </trkpt>
      <trkpt lat="45.05634" lon="4.77413">
        <ele>218.99899291992</ele>
        <time>2009-06-17T15:42:28Z</time>
      </trkpt>
      <trkpt lat="45.05672" lon="4.77474">
        <ele>216.76400756836</ele>
        <time>2009-06-17T15:42:34Z</time>
      </trkpt>
      <trkpt lat="45.05678" lon="4.7748">
        <ele>216.15699768066</ele>
        <time>2009-06-17T15:42:35Z</time>
      </trkpt>
      <trkpt lat="45.05708" lon="4.77531">
        <ele>214.53799438477</ele>
        <time>2009-06-17T15:42:39Z</time>
      </trkpt>
      <trkpt lat="45.05746" lon="4.77579">
        <ele>212.30099487305</ele>
        <time>2009-06-17T15:42:45Z</time>
      </trkpt>
      <trkpt lat="45.05791" lon="4.7761">
        <ele>211.1609954834</ele>
        <time>2009-06-17T15:42:49Z</time>
      </trkpt>
      <trkpt lat="45.0584" lon="4.77631">
        <ele>207.88200378418</ele>
        <time>2009-06-17T15:42:54Z</time>
      </trkpt>
      <trkpt lat="45.0587" lon="4.77683">
        <ele>206.16299438477</ele>
        <time>2009-06-17T15:42:59Z</time>
      </trkpt>
      <trkpt lat="45.0587" lon="4.77697">
        <ele>205.92199707031</ele>
        <time>2009-06-17T15:43:00Z</time>
      </trkpt>
      <trkpt lat="45.05865" lon="4.77737">
        <ele>204.33000183106</ele>
        <time>2009-06-17T15:43:03Z</time>
      </trkpt>
      <trkpt lat="45.05851" lon="4.7782">
        <ele>202.47500610352</ele>
        <time>2009-06-17T15:43:09Z</time>
      </trkpt>
      <trkpt lat="45.05841" lon="4.77845">
        <ele>201.78700256348</ele>
        <time>2009-06-17T15:43:11Z</time>
      </trkpt>
      <trkpt lat="45.05833" lon="4.77884">
        <ele>200.375</ele>
        <time>2009-06-17T15:43:14Z</time>
      </trkpt>
      <trkpt lat="45.05807" lon="4.77941">
        <ele>198.22200012207</ele>
        <time>2009-06-17T15:43:19Z</time>
      </trkpt>
      <trkpt lat="45.05805" lon="4.77976">
        <ele>197.59100341797</ele>
        <time>2009-06-17T15:43:22Z</time>
      </trkpt>
      <trkpt lat="45.05809" lon="4.7805">
        <ele>195.68899536133</ele>
        <time>2009-06-17T15:43:27Z</time>
      </trkpt>
      <trkpt lat="45.05807" lon="4.78093">
        <ele>194.2440032959</ele>
        <time>2009-06-17T15:43:30Z</time>
      </trkpt>
      <trkpt lat="45.05804" lon="4.78121">
        <ele>193.55099487305</ele>
        <time>2009-06-17T15:43:32Z</time>
      </trkpt>
      <trkpt lat="45.0577" lon="4.78195">
        <ele>191.55000305176</ele>
        <time>2009-06-17T15:43:39Z</time>
      </trkpt>
      <trkpt lat="45.05719" lon="4.78216">
        <ele>189.65800476074</ele>
        <time>2009-06-17T15:43:45Z</time>
      </trkpt>
      <trkpt lat="45.05701" lon="4.78223">
        <ele>189.22300720215</ele>
        <time>2009-06-17T15:43:48Z</time>
      </trkpt>
      <trkpt lat="45.05687" lon="4.78238">
        <ele>188.86500549316</ele>
        <time>2009-06-17T15:43:52Z</time>
      </trkpt>
      <trkpt lat="45.05686" lon="4.7824">
        <ele>188.3630065918</ele>
        <time>2009-06-17T15:43:55Z</time>
      </trkpt>
      <trkpt lat="45.05681" lon="4.78275">
        <ele>188.32899475098</ele>
        <time>2009-06-17T15:43:57Z</time>
      </trkpt>
      <trkpt lat="45.05646" lon="4.7842">
        <ele>185.30099487305</ele>
        <time>2009-06-17T15:44:13Z</time>
      </trkpt>
      <trkpt lat="45.05657" lon="4.78476">
        <ele>183.71000671387</ele>
        <time>2009-06-17T15:44:19Z</time>
      </trkpt>
      <trkpt lat="45.05671" lon="4.78486">
        <ele>183.17799377441</ele>
        <time>2009-06-17T15:44:21Z</time>
      </trkpt>
      <trkpt lat="45.05685" lon="4.78497">
        <ele>182.56799316406</ele>
        <time>2009-06-17T15:44:23Z</time>
      </trkpt>
      <trkpt lat="45.05727" lon="4.78502">
        <ele>180.86000061035</ele>
        <time>2009-06-17T15:44:28Z</time>
      </trkpt>
      <trkpt lat="45.05744" lon="4.78491">
        <ele>180.52900695801</ele>
        <time>2009-06-17T15:44:30Z</time>
      </trkpt>
      <trkpt lat="45.05787" lon="4.78472">
        <ele>178.85000610352</ele>
        <time>2009-06-17T15:44:35Z</time>
      </trkpt>
      <trkpt lat="45.05814" lon="4.7848">
        <ele>178.1549987793</ele>
        <time>2009-06-17T15:44:38Z</time>
      </trkpt>
      <trkpt lat="45.05848" lon="4.78483">
        <ele>177.12600708008</ele>
        <time>2009-06-17T15:44:42Z</time>
      </trkpt>
      <trkpt lat="45.0589" lon="4.78494">
        <ele>175.51499938965</ele>
        <time>2009-06-17T15:44:47Z</time>
      </trkpt>
      <trkpt lat="45.05958" lon="4.78615">
        <ele>172.94299316406</ele>
        <time>2009-06-17T15:44:59Z</time>
      </trkpt>
      <trkpt lat="45.05988" lon="4.78643">
        <ele>171.97500610352</ele>
        <time>2009-06-17T15:45:03Z</time>
      </trkpt>
      <trkpt lat="45.06032" lon="4.7867">
        <ele>170.32699584961</ele>
        <time>2009-06-17T15:45:08Z</time>
      </trkpt>
      <trkpt lat="45.06126" lon="4.78674">
        <ele>167.5119934082</ele>
        <time>2009-06-17T15:45:18Z</time>
      </trkpt>
      <trkpt lat="45.06154" lon="4.78667">
        <ele>166.41000366211</ele>
        <time>2009-06-17T15:45:21Z</time>
      </trkpt>
      <trkpt lat="45.06197" lon="4.78648">
        <ele>164.44700622559</ele>
        <time>2009-06-17T15:45:28Z</time>
      </trkpt>
      <trkpt lat="45.06234" lon="4.78621">
        <ele>164.21499633789</ele>
        <time>2009-06-17T15:45:30Z</time>
      </trkpt>
      <trkpt lat="45.06314" lon="4.78525">
        <ele>162.11700439453</ele>
        <time>2009-06-17T15:45:41Z</time>
      </trkpt>
      <trkpt lat="45.06347" lon="4.78459">
        <ele>160.62699890137</ele>
        <time>2009-06-17T15:45:47Z</time>
      </trkpt>
      <trkpt lat="45.06356" lon="4.78391">
        <ele>159.72500610352</ele>
        <time>2009-06-17T15:45:52Z</time>
      </trkpt>
      <trkpt lat="45.06361" lon="4.78337">
        <ele>158.70199584961</ele>
        <time>2009-06-17T15:45:56Z</time>
      </trkpt>
      <trkpt lat="45.06382" lon="4.78277">
        <ele>157.95300292969</ele>
        <time>2009-06-17T15:46:01Z</time>
      </trkpt>
      <trkpt lat="45.06391" lon="4.78253">
        <ele>157.42500305176</ele>
        <time>2009-06-17T15:46:03Z</time>
      </trkpt>
      <trkpt lat="45.06409" lon="4.78205">
        <ele>156.50399780273</ele>
        <time>2009-06-17T15:46:07Z</time>
      </trkpt>
      <trkpt lat="45.06425" lon="4.78172">
        <ele>155.82400512695</ele>
        <time>2009-06-17T15:46:10Z</time>
      </trkpt>
      <trkpt lat="45.06467" lon="4.78135">
        <ele>154.76699829102</ele>
        <time>2009-06-17T15:46:16Z</time>
      </trkpt>
      <trkpt lat="45.0652" lon="4.78136">
        <ele>154.09199523926</ele>
        <time>2009-06-17T15:46:22Z</time>
      </trkpt>
      <trkpt lat="45.06537" lon="4.78139">
        <ele>153.78300476074</ele>
        <time>2009-06-17T15:46:24Z</time>
      </trkpt>
      <trkpt lat="45.0658" lon="4.78151">
        <ele>152.80599975586</ele>
        <time>2009-06-17T15:46:29Z</time>
      </trkpt>
      <trkpt lat="45.06598" lon="4.78157">
        <ele>152.25300598144</ele>
        <time>2009-06-17T15:46:31Z</time>
      </trkpt>
      <trkpt lat="45.06628" lon="4.7821">
        <ele>151.63400268555</ele>
        <time>2009-06-17T15:46:36Z</time>
      </trkpt>
      <trkpt lat="45.06634" lon="4.78281">
        <ele>149.75500488281</ele>
        <time>2009-06-17T15:46:41Z</time>
      </trkpt>
      <trkpt lat="45.06629" lon="4.78364">
        <ele>148.73899841309</ele>
        <time>2009-06-17T15:46:47Z</time>
      </trkpt>
      <trkpt lat="45.06632" lon="4.78445">
        <ele>146.7799987793</ele>
        <time>2009-06-17T15:46:53Z</time>
      </trkpt>
      <trkpt lat="45.06638" lon="4.78515">
        <ele>145.57600402832</ele>
        <time>2009-06-17T15:46:58Z</time>
      </trkpt>
      <trkpt lat="45.06605" lon="4.78622">
        <ele>144.80999755859</ele>
        <time>2009-06-17T15:47:07Z</time>
      </trkpt>
      <trkpt lat="45.06549" lon="4.78746">
        <ele>142.32400512695</ele>
        <time>2009-06-17T15:47:19Z</time>
      </trkpt>
      <trkpt lat="45.06528" lon="4.78799">
        <ele>142.27699279785</ele>
        <time>2009-06-17T15:47:24Z</time>
      </trkpt>
      <trkpt lat="45.0651" lon="4.78859">
        <ele>141.78900146484</ele>
        <time>2009-06-17T15:47:29Z</time>
      </trkpt>
      <trkpt lat="45.06495" lon="4.78921">
        <ele>140.73399353027</ele>
        <time>2009-06-17T15:47:34Z</time>
      </trkpt>
      <trkpt lat="45.06479" lon="4.79009">
        <ele>140.80799865723</ele>
        <time>2009-06-17T15:47:41Z</time>
      </trkpt>
      <trkpt lat="45.06445" lon="4.79117">
        <ele>139.97099304199</ele>
        <time>2009-06-17T15:47:50Z</time>
      </trkpt>
      <trkpt lat="45.06436" lon="4.79153">
        <ele>139.9940032959</ele>
        <time>2009-06-17T15:47:53Z</time>
      </trkpt>
      <trkpt lat="45.06438" lon="4.79218">
        <ele>140.17799377441</ele>
        <time>2009-06-17T15:47:59Z</time>
      </trkpt>
      <trkpt lat="45.06506" lon="4.79332">
        <ele>138.89999389648</ele>
        <time>2009-06-17T15:48:12Z</time>
      </trkpt>
      <trkpt lat="45.06514" lon="4.7934">
        <ele>138.83099365234</ele>
        <time>2009-06-17T15:48:13Z</time>
      </trkpt>
      <trkpt lat="45.06535" lon="4.79377">
        <ele>138.52799987793</ele>
        <time>2009-06-17T15:48:17Z</time>
      </trkpt>
      <trkpt lat="45.06606" lon="4.79567">
        <ele>136.80799865723</ele>
        <time>2009-06-17T15:48:35Z</time>
      </trkpt>
      <trkpt lat="45.06634" lon="4.79645">
        <ele>136.10800170898</ele>
        <time>2009-06-17T15:48:43Z</time>
      </trkpt>
      <trkpt lat="45.06689" lon="4.79781">
        <ele>132.81100463867</ele>
        <time>2009-06-17T15:48:56Z</time>
      </trkpt>
      <trkpt lat="45.06695" lon="4.79914">
        <ele>132.12399291992</ele>
        <time>2009-06-17T15:49:07Z</time>
      </trkpt>
      <trkpt lat="45.06693" lon="4.80128">
        <ele>132.00300598144</ele>
        <time>2009-06-17T15:49:26Z</time>
      </trkpt>
      <trkpt lat="45.06687" lon="4.80361">
        <ele>131.88299560547</ele>
        <time>2009-06-17T15:49:47Z</time>
      </trkpt>
      <trkpt lat="45.06686" lon="4.80521">
        <ele>131.90400695801</ele>
        <time>2009-06-17T15:50:01Z</time>
      </trkpt>
      <trkpt lat="45.06691" lon="4.80694">
        <ele>133.85400390625</ele>
        <time>2009-06-17T15:50:17Z</time>
      </trkpt>
      <trkpt lat="45.06701" lon="4.80803">
        <ele>134.67300415039</ele>
        <time>2009-06-17T15:50:27Z</time>
      </trkpt>
      <trkpt lat="45.06704" lon="4.80832">
        <ele>134.875</ele>
        <time>2009-06-17T15:50:30Z</time>
      </trkpt>
      <trkpt lat="45.06702" lon="4.80867">
        <ele>134.97099304199</ele>
        <time>2009-06-17T15:50:34Z</time>
      </trkpt>
      <trkpt lat="45.06722" lon="4.80992">
        <ele>136.28199768066</ele>
        <time>2009-06-17T15:50:46Z</time>
      </trkpt>
      <trkpt lat="45.06732" lon="4.81068">
        <ele>137.61000061035</ele>
        <time>2009-06-17T15:50:54Z</time>
      </trkpt>
      <trkpt lat="45.06768" lon="4.8119">
        <ele>136.18299865723</ele>
        <time>2009-06-17T15:51:07Z</time>
      </trkpt>
      <trkpt lat="45.06777" lon="4.81209">
        <ele>136.22799682617</ele>
        <time>2009-06-17T15:51:09Z</time>
      </trkpt>
      <trkpt lat="45.0681" lon="4.81287">
        <ele>134.80200195312</ele>
        <time>2009-06-17T15:51:17Z</time>
      </trkpt>
      <trkpt lat="45.06876" lon="4.81454">
        <ele>133.14799499512</ele>
        <time>2009-06-17T15:51:33Z</time>
      </trkpt>
      <trkpt lat="45.06929" lon="4.81656">
        <ele>132.23199462891</ele>
        <time>2009-06-17T15:51:50Z</time>
      </trkpt>
      <trkpt lat="45.06999" lon="4.81884">
        <ele>130.73500061035</ele>
        <time>2009-06-17T15:52:10Z</time>
      </trkpt>
      <trkpt lat="45.07059" lon="4.8199">
        <ele>129.37100219727</ele>
        <time>2009-06-17T15:52:21Z</time>
      </trkpt>
      <trkpt lat="45.07112" lon="4.82047">
        <ele>128.78199768066</ele>
        <time>2009-06-17T15:52:30Z</time>
      </trkpt>
      <trkpt lat="45.07148" lon="4.82087">
        <ele>128.57099914551</ele>
        <time>2009-06-17T15:52:37Z</time>
      </trkpt>
      <trkpt lat="45.07167" lon="4.82108">
        <ele>127.99900054932</ele>
        <time>2009-06-17T15:52:41Z</time>
      </trkpt>
      <trkpt lat="45.07175" lon="4.82119">
        <ele>127.93099975586</ele>
        <time>2009-06-17T15:52:43Z</time>
      </trkpt>
      <trkpt lat="45.07198" lon="4.82145">
        <ele>127.37799835205</ele>
        <time>2009-06-17T15:52:53Z</time>
      </trkpt>
      <trkpt lat="45.07209" lon="4.82157">
        <ele>127.50099945068</ele>
        <time>2009-06-17T15:53:01Z</time>
      </trkpt>
      <trkpt lat="45.07226" lon="4.82178">
        <ele>128.21200561523</ele>
        <time>2009-06-17T15:53:06Z</time>
      </trkpt>
      <trkpt lat="45.0723" lon="4.8224">
        <ele>127.94200134277</ele>
        <time>2009-06-17T15:53:12Z</time>
      </trkpt>
      <trkpt lat="45.07228" lon="4.82248">
        <ele>127.72799682617</ele>
        <time>2009-06-17T15:53:13Z</time>
      </trkpt>
      <trkpt lat="45.07209" lon="4.82307">
        <ele>126.48000335693</ele>
        <time>2009-06-17T15:53:20Z</time>
      </trkpt>
      <trkpt lat="45.07183" lon="4.82383">
        <ele>125.35900115967</ele>
        <time>2009-06-17T15:53:28Z</time>
      </trkpt>
      <trkpt lat="45.07162" lon="4.82444">
        <ele>124.93499755859</ele>
        <time>2009-06-17T15:53:35Z</time>
      </trkpt>
      <trkpt lat="45.07123" lon="4.82562">
        <ele>124.24900054932</ele>
        <time>2009-06-17T15:53:47Z</time>
      </trkpt>
      <trkpt lat="45.07082" lon="4.82684">
        <ele>124.49800109863</ele>
        <time>2009-06-17T15:54:01Z</time>
      </trkpt>
      <trkpt lat="45.07068" lon="4.82718">
        <ele>124.48600006103</ele>
        <time>2009-06-17T15:54:06Z</time>
      </trkpt>
      <trkpt lat="45.0706" lon="4.82737">
        <ele>124.42500305176</ele>
        <time>2009-06-17T15:54:09Z</time>
      </trkpt>
      <trkpt lat="45.0705" lon="4.82761">
        <ele>124.43699645996</ele>
        <time>2009-06-17T15:54:13Z</time>
      </trkpt>
      <trkpt lat="45.07034" lon="4.82789">
        <ele>124.36199951172</ele>
        <time>2009-06-17T15:54:23Z</time>
      </trkpt>
      <trkpt lat="45.06985" lon="4.82843">
        <ele>124.33000183106</ele>
        <time>2009-06-17T15:54:35Z</time>
      </trkpt>
      <trkpt lat="45.06976" lon="4.82856">
        <ele>124.36599731445</ele>
        <time>2009-06-17T15:54:39Z</time>
      </trkpt>
      <trkpt lat="45.06935" lon="4.82912">
        <ele>124.59100341797</ele>
        <time>2009-06-17T15:54:50Z</time>
      </trkpt>
      <trkpt lat="45.06931" lon="4.82917">
        <ele>124.43499755859</ele>
        <time>2009-06-17T15:54:51Z</time>
      </trkpt>
      <trkpt lat="45.06923" lon="4.82928">
        <ele>124.62300109863</ele>
        <time>2009-06-17T15:54:53Z</time>
      </trkpt>
      <trkpt lat="45.06898" lon="4.82978">
        <ele>124.51399993897</ele>
        <time>2009-06-17T15:55:01Z</time>
      </trkpt>
      <trkpt lat="45.06883" lon="4.83037">
        <ele>125.21800231934</ele>
        <time>2009-06-17T15:55:07Z</time>
      </trkpt>
      <trkpt lat="45.06875" lon="4.83115">
        <ele>125.625</ele>
        <time>2009-06-17T15:55:14Z</time>
      </trkpt>
      <trkpt lat="45.06875" lon="4.83178">
        <ele>125.7320022583</ele>
        <time>2009-06-17T15:55:20Z</time>
      </trkpt>
      <trkpt lat="45.06857" lon="4.83308">
        <ele>125.15200042725</ele>
        <time>2009-06-17T15:55:32Z</time>
      </trkpt>
      <trkpt lat="45.06817" lon="4.8339">
        <ele>125.20899963379</ele>
        <time>2009-06-17T15:55:42Z</time>
      </trkpt>
      <trkpt lat="45.06789" lon="4.83444">
        <ele>126.18399810791</ele>
        <time>2009-06-17T15:55:52Z</time>
      </trkpt>
      <trkpt lat="45.06789" lon="4.83444">
        <ele>125.94300079346</ele>
        <time>2009-06-17T15:55:53Z</time>
      </trkpt>
      <trkpt lat="45.06789" lon="4.83443">
        <ele>126.15599822998</ele>
        <time>2009-06-17T15:55:59Z</time>
      </trkpt>
      <trkpt lat="45.06788" lon="4.83445">
        <ele>126.34899902344</ele>
        <time>2009-06-17T15:56:03Z</time>
      </trkpt>
      <trkpt lat="45.06786" lon="4.8345">
        <ele>126.58100128174</ele>
        <time>2009-06-17T15:56:10Z</time>
      </trkpt>
      <trkpt lat="45.06781" lon="4.83457">
        <ele>126.88500213623</ele>
        <time>2009-06-17T15:56:17Z</time>
      </trkpt>
      <trkpt lat="45.06781" lon="4.83459">
        <ele>127.15899658203</ele>
        <time>2009-06-17T15:56:40Z</time>
      </trkpt>
      <trkpt lat="45.06799" lon="4.83466">
        <ele>127.12400054932</ele>
        <time>2009-06-17T15:56:45Z</time>
      </trkpt>
      <trkpt lat="45.0681" lon="4.83473">
        <ele>127.41899871826</ele>
        <time>2009-06-17T15:57:18Z</time>
      </trkpt>
      <trkpt lat="45.06823" lon="4.8348">
        <ele>127.6549987793</ele>
        <time>2009-06-17T15:57:22Z</time>
      </trkpt>
      <trkpt lat="45.06833" lon="4.83487">
        <ele>128.09100341797</ele>
        <time>2009-06-17T15:57:25Z</time>
      </trkpt>
      <trkpt lat="45.06882" lon="4.83515">
        <ele>128.76800537109</ele>
        <time>2009-06-17T15:57:40Z</time>
      </trkpt>
      <trkpt lat="45.06897" lon="4.83523">
        <ele>128.23199462891</ele>
        <time>2009-06-17T15:57:44Z</time>
      </trkpt>
      <trkpt lat="45.06913" lon="4.83532">
        <ele>127.65100097656</ele>
        <time>2009-06-17T15:57:48Z</time>
      </trkpt>
      <trkpt lat="45.06952" lon="4.83557">
        <ele>126.61599731445</ele>
        <time>2009-06-17T15:58:01Z</time>
      </trkpt>
      <trkpt lat="45.06952" lon="4.83557">
        <ele>126.66100311279</ele>
        <time>2009-06-17T15:58:03Z</time>
      </trkpt>
      <trkpt lat="45.06952" lon="4.83557">
        <ele>126.46900177002</ele>
        <time>2009-06-17T15:58:07Z</time>
      </trkpt>
      <trkpt lat="45.06974" lon="4.83574">
        <ele>125.85099792481</ele>
        <time>2009-06-17T15:58:20Z</time>
      </trkpt>
      <trkpt lat="45.06994" lon="4.83584">
        <ele>125.28299713135</ele>
        <time>2009-06-17T15:58:25Z</time>
      </trkpt>
      <trkpt lat="45.07036" lon="4.83629">
        <ele>123.85199737549</ele>
        <time>2009-06-17T15:58:36Z</time>
      </trkpt>
      <trkpt lat="45.07038" lon="4.83632">
        <ele>123.84700012207</ele>
        <time>2009-06-17T15:58:37Z</time>
      </trkpt>
      <trkpt lat="45.07041" lon="4.83636">
        <ele>123.84400177002</ele>
        <time>2009-06-17T15:58:39Z</time>
      </trkpt>
      <trkpt lat="45.07047" lon="4.83643">
        <ele>123.93699645996</ele>
        <time>2009-06-17T15:58:43Z</time>
      </trkpt>
      <trkpt lat="45.07059" lon="4.83669">
        <ele>123.73000335693</ele>
        <time>2009-06-17T15:58:49Z</time>
      </trkpt>
      <trkpt lat="45.0712" lon="4.83691">
        <ele>123.83000183106</ele>
        <time>2009-06-17T15:59:03Z</time>
      </trkpt>
      <trkpt lat="45.07139" lon="4.83698">
        <ele>123.84799957275</ele>
        <time>2009-06-17T15:59:08Z</time>
      </trkpt>
      <trkpt lat="45.07146" lon="4.83742">
        <ele>123.50700378418</ele>
        <time>2009-06-17T15:59:16Z</time>
      </trkpt>
      <trkpt lat="45.07141" lon="4.83763">
        <ele>123.44000244141</ele>
        <time>2009-06-17T15:59:22Z</time>
      </trkpt>
      <trkpt lat="45.07141" lon="4.83763">
        <ele>123.44000244141</ele>
        <time>2009-06-17T15:59:25Z</time>
      </trkpt>
      <trkpt lat="45.07177" lon="4.8377">
        <ele>123.72899627685</ele>
        <time>2009-06-17T15:59:29Z</time>
      </trkpt>
      <trkpt lat="45.07238" lon="4.83781">
        <ele>124.25700378418</ele>
        <time>2009-06-17T15:59:41Z</time>
      </trkpt>
      <trkpt lat="45.07253" lon="4.83783">
        <ele>124.30899810791</ele>
        <time>2009-06-17T15:59:44Z</time>
      </trkpt>
      <trkpt lat="45.07315" lon="4.8379">
        <ele>126.74800109863</ele>
        <time>2009-06-17T15:59:57Z</time>
      </trkpt>
      <trkpt lat="45.07333" lon="4.83792">
        <ele>127.6309967041</ele>
        <time>2009-06-17T16:00:01Z</time>
      </trkpt>
      <trkpt lat="45.07347" lon="4.83805">
        <ele>128.02400207519</ele>
        <time>2009-06-17T16:00:05Z</time>
      </trkpt>
      <trkpt lat="45.07349" lon="4.83841">
        <ele>126.4820022583</ele>
        <time>2009-06-17T16:00:11Z</time>
      </trkpt>
      <trkpt lat="45.07348" lon="4.83952">
        <ele>123.55300140381</ele>
        <time>2009-06-17T16:00:24Z</time>
      </trkpt>
      <trkpt lat="45.07332" lon="4.84131">
        <ele>122.91999816894</ele>
        <time>2009-06-17T16:00:44Z</time>
      </trkpt>
      <trkpt lat="45.07316" lon="4.8427">
        <ele>122.82499694824</ele>
        <time>2009-06-17T16:01:01Z</time>
      </trkpt>
      <trkpt lat="45.0731" lon="4.84327">
        <ele>123.32199859619</ele>
        <time>2009-06-17T16:01:11Z</time>
      </trkpt>
      <trkpt lat="45.07309" lon="4.8433">
        <ele>123.3570022583</ele>
        <time>2009-06-17T16:01:14Z</time>
      </trkpt>
      <trkpt lat="45.07306" lon="4.84371">
        <ele>123.6190032959</ele>
        <time>2009-06-17T16:01:24Z</time>
      </trkpt>
      <trkpt lat="45.07301" lon="4.84431">
        <ele>124.05799865723</ele>
        <time>2009-06-17T16:01:34Z</time>
      </trkpt>
      <trkpt lat="45.07293" lon="4.84538">
        <ele>126.70300292969</ele>
        <time>2009-06-17T16:01:50Z</time>
      </trkpt>
      <trkpt lat="45.07288" lon="4.84602">
        <ele>128.4640045166</ele>
        <time>2009-06-17T16:02:00Z</time>
      </trkpt>
      <trkpt lat="45.07287" lon="4.84639">
        <ele>129.71200561523</ele>
        <time>2009-06-17T16:02:06Z</time>
      </trkpt>
      <trkpt lat="45.07287" lon="4.8466">
        <ele>130.06500244141</ele>
        <time>2009-06-17T16:02:13Z</time>
      </trkpt>
      <trkpt lat="45.07286" lon="4.84687">
        <ele>129.8450012207</ele>
        <time>2009-06-17T16:02:15Z</time>
      </trkpt>
      <trkpt lat="45.07261" lon="4.84837">
        <ele>126.32499694824</ele>
        <time>2009-06-17T16:02:32Z</time>
      </trkpt>
      <trkpt lat="45.07257" lon="4.84876">
        <ele>125.78099822998</ele>
        <time>2009-06-17T16:02:36Z</time>
      </trkpt>
      <trkpt lat="45.07257" lon="4.84913">
        <ele>125.62999725342</ele>
        <time>2009-06-17T16:02:40Z</time>
      </trkpt>
      <trkpt lat="45.07254" lon="4.84947">
        <ele>125.56700134277</ele>
        <time>2009-06-17T16:02:43Z</time>
      </trkpt>
      <trkpt lat="45.0725" lon="4.84985">
        <ele>125.69799804688</ele>
        <time>2009-06-17T16:02:47Z</time>
      </trkpt>
      <trkpt lat="45.07242" lon="4.85052">
        <ele>125.70600128174</ele>
        <time>2009-06-17T16:02:54Z</time>
      </trkpt>
      <trkpt lat="45.07231" lon="4.85154">
        <ele>125.9700012207</ele>
        <time>2009-06-17T16:03:05Z</time>
      </trkpt>
      <trkpt lat="45.07225" lon="4.85198">
        <ele>126.05300140381</ele>
        <time>2009-06-17T16:03:10Z</time>
      </trkpt>
      <trkpt lat="45.07207" lon="4.85335">
        <ele>126.30000305176</ele>
        <time>2009-06-17T16:03:26Z</time>
      </trkpt>
      <trkpt lat="45.07188" lon="4.85505">
        <ele>127.50199890137</ele>
        <time>2009-06-17T16:03:46Z</time>
      </trkpt>
      <trkpt lat="45.07174" lon="4.85631">
        <ele>128.85099792481</ele>
        <time>2009-06-17T16:04:01Z</time>
      </trkpt>
      <trkpt lat="45.07173" lon="4.8564">
        <ele>129.17300415039</ele>
        <time>2009-06-17T16:04:02Z</time>
      </trkpt>
      <trkpt lat="45.07168" lon="4.85696">
        <ele>129.71800231934</ele>
        <time>2009-06-17T16:04:09Z</time>
      </trkpt>
      <trkpt lat="45.07166" lon="4.8572">
        <ele>130.30299377441</ele>
        <time>2009-06-17T16:04:12Z</time>
      </trkpt>
      <trkpt lat="45.07164" lon="4.85752">
        <ele>130.77099609375</ele>
        <time>2009-06-17T16:04:16Z</time>
      </trkpt>
      <trkpt lat="45.07158" lon="4.85808">
        <ele>131.29600524902</ele>
        <time>2009-06-17T16:04:23Z</time>
      </trkpt>
      <trkpt lat="45.07154" lon="4.85822">
        <ele>131.70899963379</ele>
        <time>2009-06-17T16:04:25Z</time>
      </trkpt>
      <trkpt lat="45.07146" lon="4.85854">
        <ele>133.20899963379</ele>
        <time>2009-06-17T16:04:35Z</time>
      </trkpt>
      <trkpt lat="45.07154" lon="4.85868">
        <ele>132.98599243164</ele>
        <time>2009-06-17T16:04:39Z</time>
      </trkpt>
      <trkpt lat="45.07162" lon="4.85878">
        <ele>133.31100463867</ele>
        <time>2009-06-17T16:04:42Z</time>
      </trkpt>
      <trkpt lat="45.07228" lon="4.85962">
        <ele>134.59399414062</ele>
        <time>2009-06-17T16:05:01Z</time>
      </trkpt>
      <trkpt lat="45.07248" lon="4.85989">
        <ele>134.97999572754</ele>
        <time>2009-06-17T16:05:07Z</time>
      </trkpt>
      <trkpt lat="45.07253" lon="4.85995">
        <ele>134.95899963379</ele>
        <time>2009-06-17T16:05:09Z</time>
      </trkpt>
      <trkpt lat="45.07285" lon="4.8609">
        <ele>136.11700439453</ele>
        <time>2009-06-17T16:05:24Z</time>
      </trkpt>
      <trkpt lat="45.07322" lon="4.86158">
        <ele>137.20399475098</ele>
        <time>2009-06-17T16:05:35Z</time>
      </trkpt>
      <trkpt lat="45.07352" lon="4.86284">
        <ele>138.45599365234</ele>
        <time>2009-06-17T16:05:52Z</time>
      </trkpt>
      <trkpt lat="45.0739" lon="4.86377">
        <ele>139.41900634766</ele>
        <time>2009-06-17T16:06:07Z</time>
      </trkpt>
      <trkpt lat="45.07463" lon="4.86497">
        <ele>140.68800354004</ele>
        <time>2009-06-17T16:06:26Z</time>
      </trkpt>
      <trkpt lat="45.07555" lon="4.86591">
        <ele>141.01300048828</ele>
        <time>2009-06-17T16:06:41Z</time>
      </trkpt>
      <trkpt lat="45.07635" lon="4.86675">
        <ele>142.45700073242</ele>
        <time>2009-06-17T16:06:57Z</time>
      </trkpt>
      <trkpt lat="45.07684" lon="4.86764">
        <ele>143.37399291992</ele>
        <time>2009-06-17T16:07:10Z</time>
      </trkpt>
      <trkpt lat="45.07757" lon="4.8693">
        <ele>145.7559967041</ele>
        <time>2009-06-17T16:07:33Z</time>
      </trkpt>
      <trkpt lat="45.07774" lon="4.86967">
        <ele>146.36099243164</ele>
        <time>2009-06-17T16:07:38Z</time>
      </trkpt>
      <trkpt lat="45.07782" lon="4.86978">
        <ele>146.73599243164</ele>
        <time>2009-06-17T16:07:40Z</time>
      </trkpt>
      <trkpt lat="45.07859" lon="4.87045">
        <ele>148.74099731445</ele>
        <time>2009-06-17T16:07:55Z</time>
      </trkpt>
      <trkpt lat="45.0794" lon="4.87098">
        <ele>151.79699707031</ele>
        <time>2009-06-17T16:08:12Z</time>
      </trkpt>
      <trkpt lat="45.08017" lon="4.87201">
        <ele>155.54200744629</ele>
        <time>2009-06-17T16:08:33Z</time>
      </trkpt>
      <trkpt lat="45.08088" lon="4.87318">
        <ele>157.84300231934</ele>
        <time>2009-06-17T16:08:54Z</time>
      </trkpt>
      <trkpt lat="45.08105" lon="4.87351">
        <ele>157.95500183106</ele>
        <time>2009-06-17T16:08:59Z</time>
      </trkpt>
      <trkpt lat="45.08161" lon="4.87416">
        <ele>158.4700012207</ele>
        <time>2009-06-17T16:09:12Z</time>
      </trkpt>
      <trkpt lat="45.08194" lon="4.87455">
        <ele>159.82200622559</ele>
        <time>2009-06-17T16:09:22Z</time>
      </trkpt>
      <trkpt lat="45.08241" lon="4.87503">
        <ele>161.82699584961</ele>
        <time>2009-06-17T16:09:36Z</time>
      </trkpt>
      <trkpt lat="45.08257" lon="4.87517">
        <ele>162.49099731445</ele>
        <time>2009-06-17T16:09:40Z</time>
      </trkpt>
      <trkpt lat="45.08325" lon="4.87567">
        <ele>163.65899658203</ele>
        <time>2009-06-17T16:09:56Z</time>
      </trkpt>
      <trkpt lat="45.08372" lon="4.87595">
        <ele>162.60299682617</ele>
        <time>2009-06-17T16:10:06Z</time>
      </trkpt>
      <trkpt lat="45.08384" lon="4.87602">
        <ele>161.99099731445</ele>
        <time>2009-06-17T16:10:08Z</time>
      </trkpt>
      <trkpt lat="45.08408" lon="4.87622">
        <ele>160.39599609375</ele>
        <time>2009-06-17T16:10:12Z</time>
      </trkpt>
      <trkpt lat="45.08432" lon="4.87667">
        <ele>157.62199401856</ele>
        <time>2009-06-17T16:10:17Z</time>
      </trkpt>
      <trkpt lat="45.08444" lon="4.87719">
        <ele>157.27400207519</ele>
        <time>2009-06-17T16:10:22Z</time>
      </trkpt>
      <trkpt lat="45.08454" lon="4.87794">
        <ele>157.78700256348</ele>
        <time>2009-06-17T16:10:29Z</time>
      </trkpt>
      <trkpt lat="45.08459" lon="4.87837">
        <ele>158.03999328613</ele>
        <time>2009-06-17T16:10:34Z</time>
      </trkpt>
      <trkpt lat="45.08472" lon="4.87926">
        <ele>159.22200012207</ele>
        <time>2009-06-17T16:10:45Z</time>
      </trkpt>
      <trkpt lat="45.08476" lon="4.87939">
        <ele>159.35499572754</ele>
        <time>2009-06-17T16:10:47Z</time>
      </trkpt>
      <trkpt lat="45.08485" lon="4.87957">
        <ele>159.5299987793</ele>
        <time>2009-06-17T16:10:50Z</time>
      </trkpt>
      <trkpt lat="45.08494" lon="4.87975">
        <ele>159.78199768066</ele>
        <time>2009-06-17T16:10:53Z</time>
      </trkpt>
      <trkpt lat="45.08505" lon="4.87987">
        <ele>159.85000610352</ele>
        <time>2009-06-17T16:10:56Z</time>
      </trkpt>
      <trkpt lat="45.08572" lon="4.88036">
        <ele>160.39799499512</ele>
        <time>2009-06-17T16:11:12Z</time>
      </trkpt>
      <trkpt lat="45.08631" lon="4.88078">
        <ele>161.24899291992</ele>
        <time>2009-06-17T16:11:26Z</time>
      </trkpt>
      <trkpt lat="45.08729" lon="4.88124">
        <ele>161.99200439453</ele>
        <time>2009-06-17T16:11:48Z</time>
      </trkpt>
      <trkpt lat="45.08827" lon="4.88131">
        <ele>161.3690032959</ele>
        <time>2009-06-17T16:12:06Z</time>
      </trkpt>
      <trkpt lat="45.08913" lon="4.88149">
        <ele>161.81199645996</ele>
        <time>2009-06-17T16:12:23Z</time>
      </trkpt>
      <trkpt lat="45.09041" lon="4.88153">
        <ele>162.85400390625</ele>
        <time>2009-06-17T16:12:44Z</time>
      </trkpt>
      <trkpt lat="45.09135" lon="4.88174">
        <ele>165.1369934082</ele>
        <time>2009-06-17T16:13:03Z</time>
      </trkpt>
      <trkpt lat="45.09182" lon="4.88188">
        <ele>166.62399291992</ele>
        <time>2009-06-17T16:13:13Z</time>
      </trkpt>
      <trkpt lat="45.09271" lon="4.88189">
        <ele>168.34300231934</ele>
        <time>2009-06-17T16:13:31Z</time>
      </trkpt>
      <trkpt lat="45.09306" lon="4.88179">
        <ele>168.9700012207</ele>
        <time>2009-06-17T16:13:38Z</time>
      </trkpt>
      <trkpt lat="45.09356" lon="4.88164">
        <ele>169.82200622559</ele>
        <time>2009-06-17T16:13:48Z</time>
      </trkpt>
      <trkpt lat="45.09469" lon="4.88137">
        <ele>171.72999572754</ele>
        <time>2009-06-17T16:14:10Z</time>
      </trkpt>
      <trkpt lat="45.09609" lon="4.88107">
        <ele>172.04200744629</ele>
        <time>2009-06-17T16:14:34Z</time>
      </trkpt>
      <trkpt lat="45.09711" lon="4.88085">
        <ele>172.32400512695</ele>
        <time>2009-06-17T16:14:51Z</time>
      </trkpt>
      <trkpt lat="45.09838" lon="4.8812">
        <ele>173.19599914551</ele>
        <time>2009-06-17T16:15:12Z</time>
      </trkpt>
      <trkpt lat="45.09974" lon="4.88193">
        <ele>174.67900085449</ele>
        <time>2009-06-17T16:15:36Z</time>
      </trkpt>
      <trkpt lat="45.10135" lon="4.88278">
        <ele>176.42100524902</ele>
        <time>2009-06-17T16:16:04Z</time>
      </trkpt>
      <trkpt lat="45.10263" lon="4.88362">
        <ele>178.15299987793</ele>
        <time>2009-06-17T16:16:27Z</time>
      </trkpt>
      <trkpt lat="45.10359" lon="4.88483">
        <ele>179.31100463867</ele>
        <time>2009-06-17T16:16:48Z</time>
      </trkpt>
      <trkpt lat="45.10404" lon="4.88578">
        <ele>180.56799316406</ele>
        <time>2009-06-17T16:17:02Z</time>
      </trkpt>
      <trkpt lat="45.10463" lon="4.88717">
        <ele>181.55200195312</ele>
        <time>2009-06-17T16:17:23Z</time>
      </trkpt>
      <trkpt lat="45.1052" lon="4.88857">
        <ele>181.96200561523</ele>
        <time>2009-06-17T16:17:43Z</time>
      </trkpt>
      <trkpt lat="45.10582" lon="4.88955">
        <ele>183.24299621582</ele>
        <time>2009-06-17T16:18:00Z</time>
      </trkpt>
      <trkpt lat="45.1062" lon="4.89003">
        <ele>183.55700683594</ele>
        <time>2009-06-17T16:18:10Z</time>
      </trkpt>
      <trkpt lat="45.10675" lon="4.89061">
        <ele>183.2440032959</ele>
        <time>2009-06-17T16:18:22Z</time>
      </trkpt>
      <trkpt lat="45.10743" lon="4.89132">
        <ele>183.48399353027</ele>
        <time>2009-06-17T16:18:36Z</time>
      </trkpt>
      <trkpt lat="45.10809" lon="4.89211">
        <ele>185.84100341797</ele>
        <time>2009-06-17T16:18:51Z</time>
      </trkpt>
      <trkpt lat="45.1089" lon="4.89322">
        <ele>186.74499511719</ele>
        <time>2009-06-17T16:19:10Z</time>
      </trkpt>
      <trkpt lat="45.10916" lon="4.89355">
        <ele>187.75199890137</ele>
        <time>2009-06-17T16:19:16Z</time>
      </trkpt>
      <trkpt lat="45.10929" lon="4.8937">
        <ele>188.20399475098</ele>
        <time>2009-06-17T16:19:19Z</time>
      </trkpt>
      <trkpt lat="45.10952" lon="4.89385">
        <ele>189.01800537109</ele>
        <time>2009-06-17T16:19:24Z</time>
      </trkpt>
      <trkpt lat="45.11007" lon="4.89466">
        <ele>190.15100097656</ele>
        <time>2009-06-17T16:19:38Z</time>
      </trkpt>
      <trkpt lat="45.11022" lon="4.89489">
        <ele>190.59800720215</ele>
        <time>2009-06-17T16:19:42Z</time>
      </trkpt>
      <trkpt lat="45.11032" lon="4.89509">
        <ele>190.57600402832</ele>
        <time>2009-06-17T16:19:45Z</time>
      </trkpt>
      <trkpt lat="45.11033" lon="4.8955">
        <ele>190.95700073242</ele>
        <time>2009-06-17T16:19:50Z</time>
      </trkpt>
      <trkpt lat="45.11017" lon="4.8962">
        <ele>191.91700744629</ele>
        <time>2009-06-17T16:19:59Z</time>
      </trkpt>
      <trkpt lat="45.11021" lon="4.89643">
        <ele>192.38499450684</ele>
        <time>2009-06-17T16:20:03Z</time>
      </trkpt>
      <trkpt lat="45.11033" lon="4.8967">
        <ele>192.68800354004</ele>
        <time>2009-06-17T16:20:07Z</time>
      </trkpt>
      <trkpt lat="45.11079" lon="4.89753">
        <ele>193.22300720215</ele>
        <time>2009-06-17T16:20:21Z</time>
      </trkpt>
      <trkpt lat="45.11108" lon="4.89775">
        <ele>193.38600158691</ele>
        <time>2009-06-17T16:20:28Z</time>
      </trkpt>
      <trkpt lat="45.11164" lon="4.89809">
        <ele>192.5950012207</ele>
        <time>2009-06-17T16:20:41Z</time>
      </trkpt>
      <trkpt lat="45.11186" lon="4.89826">
        <ele>192.91799926758</ele>
        <time>2009-06-17T16:20:46Z</time>
      </trkpt>
      <trkpt lat="45.112" lon="4.89849">
        <ele>193.02499389648</ele>
        <time>2009-06-17T16:20:50Z</time>
      </trkpt>
      <trkpt lat="45.11216" lon="4.89896">
        <ele>193.77099609375</ele>
        <time>2009-06-17T16:20:57Z</time>
      </trkpt>
      <trkpt lat="45.1123" lon="4.89949">
        <ele>194.79800415039</ele>
        <time>2009-06-17T16:21:05Z</time>
      </trkpt>
      <trkpt lat="45.11237" lon="4.89966">
        <ele>195.09800720215</ele>
        <time>2009-06-17T16:21:08Z</time>
      </trkpt>
      <trkpt lat="45.113" lon="4.90041">
        <ele>195.61099243164</ele>
        <time>2009-06-17T16:21:24Z</time>
      </trkpt>
      <trkpt lat="45.1136" lon="4.9011">
        <ele>195.21800231934</ele>
        <time>2009-06-17T16:21:38Z</time>
      </trkpt>
      <trkpt lat="45.11381" lon="4.90149">
        <ele>195.67900085449</ele>
        <time>2009-06-17T16:21:44Z</time>
      </trkpt>
      <trkpt lat="45.11394" lon="4.90209">
        <ele>196.80900573731</ele>
        <time>2009-06-17T16:21:52Z</time>
      </trkpt>
      <trkpt lat="45.11407" lon="4.90231">
        <ele>197.33399963379</ele>
        <time>2009-06-17T16:21:56Z</time>
      </trkpt>
      <trkpt lat="45.11471" lon="4.90287">
        <ele>197.89100646973</ele>
        <time>2009-06-17T16:22:11Z</time>
      </trkpt>
      <trkpt lat="45.11581" lon="4.90353">
        <ele>200.1609954834</ele>
        <time>2009-06-17T16:22:34Z</time>
      </trkpt>
      <trkpt lat="45.11644" lon="4.9039">
        <ele>203.04200744629</ele>
        <time>2009-06-17T16:22:49Z</time>
      </trkpt>
      <trkpt lat="45.11671" lon="4.90409">
        <ele>204.22399902344</ele>
        <time>2009-06-17T16:22:55Z</time>
      </trkpt>
      <trkpt lat="45.11682" lon="4.90425">
        <ele>204.34199523926</ele>
        <time>2009-06-17T16:22:58Z</time>
      </trkpt>
      <trkpt lat="45.11694" lon="4.90459">
        <ele>204.72399902344</ele>
        <time>2009-06-17T16:23:03Z</time>
      </trkpt>
      <trkpt lat="45.11694" lon="4.90512">
        <ele>204.67500305176</ele>
        <time>2009-06-17T16:23:10Z</time>
      </trkpt>
      <trkpt lat="45.11694" lon="4.90527">
        <ele>204.98399353027</ele>
        <time>2009-06-17T16:23:12Z</time>
      </trkpt>
      <trkpt lat="45.11691" lon="4.90549">
        <ele>205.45100402832</ele>
        <time>2009-06-17T16:23:15Z</time>
      </trkpt>
      <trkpt lat="45.11676" lon="4.90645">
        <ele>207.02099609375</ele>
        <time>2009-06-17T16:23:29Z</time>
      </trkpt>
      <trkpt lat="45.11675" lon="4.90651">
        <ele>207.06300354004</ele>
        <time>2009-06-17T16:23:30Z</time>
      </trkpt>
      <trkpt lat="45.11676" lon="4.90684">
        <ele>207.33500671387</ele>
        <time>2009-06-17T16:23:36Z</time>
      </trkpt>
      <trkpt lat="45.11687" lon="4.90688">
        <ele>207.09800720215</ele>
        <time>2009-06-17T16:23:39Z</time>
      </trkpt>
      <trkpt lat="45.11691" lon="4.90727">
        <ele>207.07200622559</ele>
        <time>2009-06-17T16:23:45Z</time>
      </trkpt>
      <trkpt lat="45.11685" lon="4.90739">
        <ele>207.43899536133</ele>
        <time>2009-06-17T16:23:47Z</time>
      </trkpt>
      <trkpt lat="45.11678" lon="4.90768">
        <ele>207.69299316406</ele>
        <time>2009-06-17T16:23:51Z</time>
      </trkpt>
      <trkpt lat="45.11677" lon="4.90804">
        <ele>208.13999938965</ele>
        <time>2009-06-17T16:23:56Z</time>
      </trkpt>
      <trkpt lat="45.11677" lon="4.90872">
        <ele>209.92999267578</ele>
        <time>2009-06-17T16:24:06Z</time>
      </trkpt>
      <trkpt lat="45.11667" lon="4.90994">
        <ele>211.48500061035</ele>
        <time>2009-06-17T16:24:24Z</time>
      </trkpt>
      <trkpt lat="45.11642" lon="4.91104">
        <ele>210.80799865723</ele>
        <time>2009-06-17T16:24:38Z</time>
      </trkpt>
      <trkpt lat="45.11592" lon="4.91225">
        <ele>211.01899719238</ele>
        <time>2009-06-17T16:24:54Z</time>
      </trkpt>
      <trkpt lat="45.11557" lon="4.91346">
        <ele>211.95899963379</ele>
        <time>2009-06-17T16:25:11Z</time>
      </trkpt>
      <trkpt lat="45.11536" lon="4.91492">
        <ele>206.8630065918</ele>
        <time>2009-06-17T16:25:25Z</time>
      </trkpt>
      <trkpt lat="45.11529" lon="4.91529">
        <ele>205.73599243164</ele>
        <time>2009-06-17T16:25:28Z</time>
      </trkpt>
      <trkpt lat="45.1149" lon="4.91613">
        <ele>203.60400390625</ele>
        <time>2009-06-17T16:25:36Z</time>
      </trkpt>
      <trkpt lat="45.11399" lon="4.91787">
        <ele>201.56500244141</ele>
        <time>2009-06-17T16:25:54Z</time>
      </trkpt>
      <trkpt lat="45.11295" lon="4.9193">
        <ele>198.27000427246</ele>
        <time>2009-06-17T16:26:12Z</time>
      </trkpt>
      <trkpt lat="45.11237" lon="4.92004">
        <ele>196.7380065918</ele>
        <time>2009-06-17T16:26:22Z</time>
      </trkpt>
      <trkpt lat="45.11215" lon="4.92047">
        <ele>196.19999694824</ele>
        <time>2009-06-17T16:26:27Z</time>
      </trkpt>
      <trkpt lat="45.11186" lon="4.92199">
        <ele>195.51899719238</ele>
        <time>2009-06-17T16:26:42Z</time>
      </trkpt>
      <trkpt lat="45.11175" lon="4.92273">
        <ele>196.45300292969</ele>
        <time>2009-06-17T16:26:50Z</time>
      </trkpt>
      <trkpt lat="45.11175" lon="4.92299">
        <ele>197.08799743652</ele>
        <time>2009-06-17T16:26:54Z</time>
      </trkpt>
      <trkpt lat="45.11175" lon="4.92299">
        <ele>196.94400024414</ele>
        <time>2009-06-17T16:26:56Z</time>
      </trkpt>
      <trkpt lat="45.11164" lon="4.92385">
        <ele>197.24800109863</ele>
        <time>2009-06-17T16:27:04Z</time>
      </trkpt>
      <trkpt lat="45.11065" lon="4.92482">
        <ele>196.36500549316</ele>
        <time>2009-06-17T16:27:22Z</time>
      </trkpt>
      <trkpt lat="45.10994" lon="4.92549">
        <ele>196.15100097656</ele>
        <time>2009-06-17T16:27:35Z</time>
      </trkpt>
      <trkpt lat="45.1099" lon="4.92588">
        <ele>196.62800598144</ele>
        <time>2009-06-17T16:27:42Z</time>
      </trkpt>
      <trkpt lat="45.10992" lon="4.92594">
        <ele>196.94299316406</ele>
        <time>2009-06-17T16:27:43Z</time>
      </trkpt>
      <trkpt lat="45.11005" lon="4.92638">
        <ele>198.05200195312</ele>
        <time>2009-06-17T16:27:50Z</time>
      </trkpt>
      <trkpt lat="45.11016" lon="4.92676">
        <ele>198.3450012207</ele>
        <time>2009-06-17T16:27:56Z</time>
      </trkpt>
      <trkpt lat="45.11042" lon="4.92775">
        <ele>198.39700317383</ele>
        <time>2009-06-17T16:28:12Z</time>
      </trkpt>
      <trkpt lat="45.11057" lon="4.92847">
        <ele>198.4940032959</ele>
        <time>2009-06-17T16:28:24Z</time>
      </trkpt>
      <trkpt lat="45.11061" lon="4.92879">
        <ele>198.82499694824</ele>
        <time>2009-06-17T16:28:29Z</time>
      </trkpt>
      <trkpt lat="45.11089" lon="4.93002">
        <ele>199.79400634766</ele>
        <time>2009-06-17T16:28:48Z</time>
      </trkpt>
      <trkpt lat="45.11115" lon="4.93135">
        <ele>201.02000427246</ele>
        <time>2009-06-17T16:29:07Z</time>
      </trkpt>
      <trkpt lat="45.11146" lon="4.93233">
        <ele>202.4700012207</ele>
        <time>2009-06-17T16:29:22Z</time>
      </trkpt>
      <trkpt lat="45.112" lon="4.9334">
        <ele>205.89300537109</ele>
        <time>2009-06-17T16:29:42Z</time>
      </trkpt>
      <trkpt lat="45.11202" lon="4.93345">
        <ele>206.10000610352</ele>
        <time>2009-06-17T16:29:43Z</time>
      </trkpt>
      <trkpt lat="45.11208" lon="4.93356">
        <ele>206.57499694824</ele>
        <time>2009-06-17T16:29:45Z</time>
      </trkpt>
      <trkpt lat="45.11231" lon="4.93395">
        <ele>208.20700073242</ele>
        <time>2009-06-17T16:29:53Z</time>
      </trkpt>
      <trkpt lat="45.11264" lon="4.93443">
        <ele>210.86599731445</ele>
        <time>2009-06-17T16:30:03Z</time>
      </trkpt>
      <trkpt lat="45.11305" lon="4.93507">
        <ele>214.41700744629</ele>
        <time>2009-06-17T16:30:13Z</time>
      </trkpt>
      <trkpt lat="45.1133" lon="4.93553">
        <ele>216.65400695801</ele>
        <time>2009-06-17T16:30:19Z</time>
      </trkpt>
      <trkpt lat="45.11353" lon="4.93599">
        <ele>218.37399291992</ele>
        <time>2009-06-17T16:30:25Z</time>
      </trkpt>
      <trkpt lat="45.11385" lon="4.9369">
        <ele>220.24800109863</ele>
        <time>2009-06-17T16:30:39Z</time>
      </trkpt>
      <trkpt lat="45.11394" lon="4.93715">
        <ele>219.6609954834</ele>
        <time>2009-06-17T16:30:49Z</time>
      </trkpt>
      <trkpt lat="45.11406" lon="4.93748">
        <ele>219.27400207519</ele>
        <time>2009-06-17T16:30:51Z</time>
      </trkpt>
      <trkpt lat="45.11413" lon="4.9377">
        <ele>218.75399780273</ele>
        <time>2009-06-17T16:30:55Z</time>
      </trkpt>
      <trkpt lat="45.11455" lon="4.93856">
        <ele>214.01800537109</ele>
        <time>2009-06-17T16:31:07Z</time>
      </trkpt>
      <trkpt lat="45.11497" lon="4.93909">
        <ele>212.5950012207</ele>
        <time>2009-06-17T16:31:14Z</time>
      </trkpt>
      <trkpt lat="45.11514" lon="4.9393">
        <ele>212.2200012207</ele>
        <time>2009-06-17T16:31:17Z</time>
      </trkpt>
      <trkpt lat="45.1153" lon="4.93949">
        <ele>212.05400085449</ele>
        <time>2009-06-17T16:31:20Z</time>
      </trkpt>
      <trkpt lat="45.11535" lon="4.93954">
        <ele>211.43299865723</ele>
        <time>2009-06-17T16:31:21Z</time>
      </trkpt>
      <trkpt lat="45.11546" lon="4.94005">
        <ele>210.75500488281</ele>
        <time>2009-06-17T16:31:26Z</time>
      </trkpt>
      <trkpt lat="45.11552" lon="4.94022">
        <ele>210.92799377441</ele>
        <time>2009-06-17T16:31:28Z</time>
      </trkpt>
      <trkpt lat="45.11566" lon="4.94051">
        <ele>210.27400207519</ele>
        <time>2009-06-17T16:31:32Z</time>
      </trkpt>
      <trkpt lat="45.11594" lon="4.94074">
        <ele>210.22300720215</ele>
        <time>2009-06-17T16:31:38Z</time>
      </trkpt>
      <trkpt lat="45.11619" lon="4.94089">
        <ele>210.50999450684</ele>
        <time>2009-06-17T16:31:45Z</time>
      </trkpt>
      <trkpt lat="45.11651" lon="4.9411">
        <ele>210.86999511719</ele>
        <time>2009-06-17T16:31:55Z</time>
      </trkpt>
      <trkpt lat="45.11652" lon="4.9411">
        <ele>211.28300476074</ele>
        <time>2009-06-17T16:31:59Z</time>
      </trkpt>
      <trkpt lat="45.11658" lon="4.94149">
        <ele>211.34800720215</ele>
        <time>2009-06-17T16:32:08Z</time>
      </trkpt>
      <trkpt lat="45.11655" lon="4.94201">
        <ele>211.23699951172</ele>
        <time>2009-06-17T16:32:21Z</time>
      </trkpt>
      <trkpt lat="45.11652" lon="4.9425">
        <ele>211.51400756836</ele>
        <time>2009-06-17T16:32:30Z</time>
      </trkpt>
      <trkpt lat="45.11652" lon="4.94252">
        <ele>211.69599914551</ele>
        <time>2009-06-17T16:32:34Z</time>
      </trkpt>
      <trkpt lat="45.11656" lon="4.94324">
        <ele>212.30499267578</ele>
        <time>2009-06-17T16:32:43Z</time>
      </trkpt>
      <trkpt lat="45.1167" lon="4.94408">
        <ele>215.76499938965</ele>
        <time>2009-06-17T16:33:00Z</time>
      </trkpt>
      <trkpt lat="45.11672" lon="4.94421">
        <ele>216.73699951172</ele>
        <time>2009-06-17T16:33:04Z</time>
      </trkpt>
      <trkpt lat="45.11671" lon="4.94429">
        <ele>217.09599304199</ele>
        <time>2009-06-17T16:33:08Z</time>
      </trkpt>
      <trkpt lat="45.11643" lon="4.94443">
        <ele>219.41000366211</ele>
        <time>2009-06-17T16:33:21Z</time>
      </trkpt>
      <trkpt lat="45.11621" lon="4.94456">
        <ele>220.85499572754</ele>
        <time>2009-06-17T16:33:29Z</time>
      </trkpt>
      <trkpt lat="45.11594" lon="4.94482">
        <ele>222.99600219727</ele>
        <time>2009-06-17T16:33:40Z</time>
      </trkpt>
      <trkpt lat="45.11566" lon="4.94523">
        <ele>225.66900634766</ele>
        <time>2009-06-17T16:33:54Z</time>
      </trkpt>
      <trkpt lat="45.11559" lon="4.94573">
        <ele>226.50799560547</ele>
        <time>2009-06-17T16:34:06Z</time>
      </trkpt>
      <trkpt lat="45.11555" lon="4.9463">
        <ele>227.11999511719</ele>
        <time>2009-06-17T16:34:19Z</time>
      </trkpt>
      <trkpt lat="45.11557" lon="4.94669">
        <ele>227.63499450684</ele>
        <time>2009-06-17T16:34:27Z</time>
      </trkpt>
      <trkpt lat="45.11557" lon="4.94705">
        <ele>227.86399841309</ele>
        <time>2009-06-17T16:34:34Z</time>
      </trkpt>
      <trkpt lat="45.11562" lon="4.94773">
        <ele>228.90299987793</ele>
        <time>2009-06-17T16:34:47Z</time>
      </trkpt>
      <trkpt lat="45.11578" lon="4.94863">
        <ele>231.32400512695</ele>
        <time>2009-06-17T16:35:04Z</time>
      </trkpt>
      <trkpt lat="45.11597" lon="4.94947">
        <ele>231.82600402832</ele>
        <time>2009-06-17T16:35:20Z</time>
      </trkpt>
      <trkpt lat="45.11606" lon="4.94973">
        <ele>231.57200622559</ele>
        <time>2009-06-17T16:35:25Z</time>
      </trkpt>
      <trkpt lat="45.11636" lon="4.95043">
        <ele>230.4640045166</ele>
        <time>2009-06-17T16:35:36Z</time>
      </trkpt>
      <trkpt lat="45.11653" lon="4.95084">
        <ele>229.64199829102</ele>
        <time>2009-06-17T16:35:42Z</time>
      </trkpt>
      <trkpt lat="45.11675" lon="4.95148">
        <ele>228.51699829102</ele>
        <time>2009-06-17T16:35:50Z</time>
      </trkpt>
      <trkpt lat="45.11694" lon="4.95217">
        <ele>227.28700256348</ele>
        <time>2009-06-17T16:35:58Z</time>
      </trkpt>
      <trkpt lat="45.11717" lon="4.95265">
        <ele>225.83999633789</ele>
        <time>2009-06-17T16:36:04Z</time>
      </trkpt>
      <trkpt lat="45.11724" lon="4.95305">
        <ele>223.73500061035</ele>
        <time>2009-06-17T16:36:08Z</time>
      </trkpt>
      <trkpt lat="45.11719" lon="4.9534">
        <ele>222.40699768066</ele>
        <time>2009-06-17T16:36:11Z</time>
      </trkpt>
      <trkpt lat="45.11734" lon="4.95413">
        <ele>217.71699523926</ele>
        <time>2009-06-17T16:36:17Z</time>
      </trkpt>
      <trkpt lat="45.11757" lon="4.95423">
        <ele>216.39700317383</ele>
        <time>2009-06-17T16:36:19Z</time>
      </trkpt>
      <trkpt lat="45.11791" lon="4.95432">
        <ele>213.25399780273</ele>
        <time>2009-06-17T16:36:22Z</time>
      </trkpt>
      <trkpt lat="45.11832" lon="4.95471">
        <ele>210.87600708008</ele>
        <time>2009-06-17T16:36:27Z</time>
      </trkpt>
      <trkpt lat="45.11813" lon="4.95525">
        <ele>212.63800048828</ele>
        <time>2009-06-17T16:36:32Z</time>
      </trkpt>
      <trkpt lat="45.11806" lon="4.95538">
        <ele>213.70799255371</ele>
        <time>2009-06-17T16:36:34Z</time>
      </trkpt>
      <trkpt lat="45.11798" lon="4.95553">
        <ele>215.17799377441</ele>
        <time>2009-06-17T16:36:37Z</time>
      </trkpt>
      <trkpt lat="45.118" lon="4.95583">
        <ele>217.0890045166</ele>
        <time>2009-06-17T16:36:43Z</time>
      </trkpt>
      <trkpt lat="45.11799" lon="4.95612">
        <ele>218.74000549316</ele>
        <time>2009-06-17T16:36:50Z</time>
      </trkpt>
      <trkpt lat="45.11786" lon="4.95623">
        <ele>220.06300354004</ele>
        <time>2009-06-17T16:36:55Z</time>
      </trkpt>
      <trkpt lat="45.11769" lon="4.95629">
        <ele>221.50700378418</ele>
        <time>2009-06-17T16:37:00Z</time>
      </trkpt>
      <trkpt lat="45.11753" lon="4.95637">
        <ele>222.44299316406</ele>
        <time>2009-06-17T16:37:05Z</time>
      </trkpt>
      <trkpt lat="45.11745" lon="4.95667">
        <ele>224.40400695801</ele>
        <time>2009-06-17T16:37:12Z</time>
      </trkpt>
      <trkpt lat="45.11745" lon="4.9569">
        <ele>225.78999328613</ele>
        <time>2009-06-17T16:37:17Z</time>
      </trkpt>
      <trkpt lat="45.11743" lon="4.95732">
        <ele>228.04100036621</ele>
        <time>2009-06-17T16:37:27Z</time>
      </trkpt>
      <trkpt lat="45.11748" lon="4.95811">
        <ele>229.58999633789</ele>
        <time>2009-06-17T16:37:44Z</time>
      </trkpt>
      <trkpt lat="45.11767" lon="4.95902">
        <ele>226.68899536133</ele>
        <time>2009-06-17T16:37:59Z</time>
      </trkpt>
      <trkpt lat="45.1178" lon="4.95974">
        <ele>223.64700317383</ele>
        <time>2009-06-17T16:38:06Z</time>
      </trkpt>
      <trkpt lat="45.11786" lon="4.96009">
        <ele>222.15899658203</ele>
        <time>2009-06-17T16:38:09Z</time>
      </trkpt>
      <trkpt lat="45.1179" lon="4.96034">
        <ele>220.88600158691</ele>
        <time>2009-06-17T16:38:11Z</time>
      </trkpt>
      <trkpt lat="45.11802" lon="4.96128">
        <ele>216.86700439453</ele>
        <time>2009-06-17T16:38:18Z</time>
      </trkpt>
      <trkpt lat="45.11807" lon="4.96172">
        <ele>214.55599975586</ele>
        <time>2009-06-17T16:38:21Z</time>
      </trkpt>
      <trkpt lat="45.11812" lon="4.96232">
        <ele>211.83399963379</ele>
        <time>2009-06-17T16:38:25Z</time>
      </trkpt>
      <trkpt lat="45.11816" lon="4.96262">
        <ele>210.68400573731</ele>
        <time>2009-06-17T16:38:27Z</time>
      </trkpt>
      <trkpt lat="45.11821" lon="4.96275">
        <ele>209.75799560547</ele>
        <time>2009-06-17T16:38:28Z</time>
      </trkpt>
      <trkpt lat="45.11831" lon="4.96321">
        <ele>208.09399414062</ele>
        <time>2009-06-17T16:38:31Z</time>
      </trkpt>
      <trkpt lat="45.11835" lon="4.96354">
        <ele>206.10699462891</ele>
        <time>2009-06-17T16:38:33Z</time>
      </trkpt>
      <trkpt lat="45.11844" lon="4.96401">
        <ele>204.20100402832</ele>
        <time>2009-06-17T16:38:36Z</time>
      </trkpt>
      <trkpt lat="45.11848" lon="4.96416">
        <ele>203.42100524902</ele>
        <time>2009-06-17T16:38:37Z</time>
      </trkpt>
      <trkpt lat="45.11864" lon="4.96442">
        <ele>202.18600463867</ele>
        <time>2009-06-17T16:38:39Z</time>
      </trkpt>
      <trkpt lat="45.11877" lon="4.96469">
        <ele>201.21299743652</ele>
        <time>2009-06-17T16:38:41Z</time>
      </trkpt>
      <trkpt lat="45.11878" lon="4.96529">
        <ele>200.43299865723</ele>
        <time>2009-06-17T16:38:45Z</time>
      </trkpt>
      <trkpt lat="45.11872" lon="4.96569">
        <ele>201.03199768066</ele>
        <time>2009-06-17T16:38:48Z</time>
      </trkpt>
      <trkpt lat="45.11818" lon="4.96734">
        <ele>197.31700134277</ele>
        <time>2009-06-17T16:39:03Z</time>
      </trkpt>
      <trkpt lat="45.11812" lon="4.96742">
        <ele>197.42999267578</ele>
        <time>2009-06-17T16:39:04Z</time>
      </trkpt>
      <trkpt lat="45.11779" lon="4.96772">
        <ele>196.80299377441</ele>
        <time>2009-06-17T16:39:09Z</time>
      </trkpt>
      <trkpt lat="45.11753" lon="4.96805">
        <ele>196.7619934082</ele>
        <time>2009-06-17T16:39:15Z</time>
      </trkpt>
      <trkpt lat="45.11751" lon="4.96818">
        <ele>196.50399780273</ele>
        <time>2009-06-17T16:39:22Z</time>
      </trkpt>
      <trkpt lat="45.1175" lon="4.96821">
        <ele>196.51699829102</ele>
        <time>2009-06-17T16:39:49Z</time>
      </trkpt>
      <trkpt lat="45.1175" lon="4.96822">
        <ele>196.36099243164</ele>
        <time>2009-06-17T16:39:50Z</time>
      </trkpt>
      <trkpt lat="45.11733" lon="4.96851">
        <ele>196.10899353027</ele>
        <time>2009-06-17T16:39:57Z</time>
      </trkpt>
      <trkpt lat="45.11742" lon="4.96867">
        <ele>196.19799804688</ele>
        <time>2009-06-17T16:40:01Z</time>
      </trkpt>
      <trkpt lat="45.11748" lon="4.96869">
        <ele>196.36999511719</ele>
        <time>2009-06-17T16:40:03Z</time>
      </trkpt>
      <trkpt lat="45.11766" lon="4.96879">
        <ele>196.68899536133</ele>
        <time>2009-06-17T16:40:06Z</time>
      </trkpt>
      <trkpt lat="45.11768" lon="4.96884">
        <ele>196.36700439453</ele>
        <time>2009-06-17T16:40:07Z</time>
      </trkpt>
      <trkpt lat="45.11792" lon="4.9693">
        <ele>196.84100341797</ele>
        <time>2009-06-17T16:40:15Z</time>
      </trkpt>
      <trkpt lat="45.11822" lon="4.96973">
        <ele>197.20500183106</ele>
        <time>2009-06-17T16:40:23Z</time>
      </trkpt>
      <trkpt lat="45.11856" lon="4.97024">
        <ele>197.24499511719</ele>
        <time>2009-06-17T16:40:32Z</time>
      </trkpt>
      <trkpt lat="45.11868" lon="4.9704">
        <ele>197.17300415039</ele>
        <time>2009-06-17T16:40:35Z</time>
      </trkpt>
      <trkpt lat="45.11883" lon="4.97093">
        <ele>196.97999572754</ele>
        <time>2009-06-17T16:40:43Z</time>
      </trkpt>
      <trkpt lat="45.11897" lon="4.97096">
        <ele>197.2440032959</ele>
        <time>2009-06-17T16:40:45Z</time>
      </trkpt>
      <trkpt lat="45.11942" lon="4.97138">
        <ele>198.40400695801</ele>
        <time>2009-06-17T16:40:58Z</time>
      </trkpt>
      <trkpt lat="45.11988" lon="4.97199">
        <ele>198.91700744629</ele>
        <time>2009-06-17T16:41:10Z</time>
      </trkpt>
      <trkpt lat="45.12" lon="4.97218">
        <ele>199.11799621582</ele>
        <time>2009-06-17T16:41:14Z</time>
      </trkpt>
      <trkpt lat="45.12054" lon="4.9733">
        <ele>200.33999633789</ele>
        <time>2009-06-17T16:41:35Z</time>
      </trkpt>
      <trkpt lat="45.12073" lon="4.97395">
        <ele>201.01899719238</ele>
        <time>2009-06-17T16:41:45Z</time>
      </trkpt>
      <trkpt lat="45.12098" lon="4.97504">
        <ele>201.61999511719</ele>
        <time>2009-06-17T16:42:01Z</time>
      </trkpt>
      <trkpt lat="45.12118" lon="4.97607">
        <ele>202.77200317383</ele>
        <time>2009-06-17T16:42:17Z</time>
      </trkpt>
      <trkpt lat="45.1213" lon="4.97723">
        <ele>203.55200195312</ele>
        <time>2009-06-17T16:42:33Z</time>
      </trkpt>
      <trkpt lat="45.12149" lon="4.97843">
        <ele>204.68299865723</ele>
        <time>2009-06-17T16:42:51Z</time>
      </trkpt>
      <trkpt lat="45.12158" lon="4.97926">
        <ele>205.03799438477</ele>
        <time>2009-06-17T16:43:03Z</time>
      </trkpt>
      <trkpt lat="45.12158" lon="4.97949">
        <ele>205.41999816894</ele>
        <time>2009-06-17T16:43:07Z</time>
      </trkpt>
      <trkpt lat="45.12175" lon="4.97967">
        <ele>205.95599365234</ele>
        <time>2009-06-17T16:43:11Z</time>
      </trkpt>
      <trkpt lat="45.12194" lon="4.98005">
        <ele>207.78399658203</ele>
        <time>2009-06-17T16:43:22Z</time>
      </trkpt>
      <trkpt lat="45.12207" lon="4.98032">
        <ele>208.7559967041</ele>
        <time>2009-06-17T16:43:32Z</time>
      </trkpt>
      <trkpt lat="45.1222" lon="4.98068">
        <ele>209.27699279785</ele>
        <time>2009-06-17T16:43:40Z</time>
      </trkpt>
      <trkpt lat="45.12237" lon="4.98076">
        <ele>210.875</ele>
        <time>2009-06-17T16:43:45Z</time>
      </trkpt>
      <trkpt lat="45.12265" lon="4.98054">
        <ele>212.9640045166</ele>
        <time>2009-06-17T16:43:54Z</time>
      </trkpt>
      <trkpt lat="45.12293" lon="4.98081">
        <ele>213.17399597168</ele>
        <time>2009-06-17T16:44:02Z</time>
      </trkpt>
      <trkpt lat="45.12339" lon="4.98146">
        <ele>211.00999450684</ele>
        <time>2009-06-17T16:44:16Z</time>
      </trkpt>
      <trkpt lat="45.12349" lon="4.98164">
        <ele>210.26499938965</ele>
        <time>2009-06-17T16:44:19Z</time>
      </trkpt>
      <trkpt lat="45.12364" lon="4.98205">
        <ele>209.40800476074</ele>
        <time>2009-06-17T16:44:24Z</time>
      </trkpt>
      <trkpt lat="45.12368" lon="4.98301">
        <ele>207.50100708008</ele>
        <time>2009-06-17T16:44:34Z</time>
      </trkpt>
      <trkpt lat="45.12368" lon="4.98347">
        <ele>207.0950012207</ele>
        <time>2009-06-17T16:44:39Z</time>
      </trkpt>
      <trkpt lat="45.12368" lon="4.9836">
        <ele>207.10899353027</ele>
        <time>2009-06-17T16:44:43Z</time>
      </trkpt>
      <trkpt lat="45.12368" lon="4.9837">
        <ele>207.29800415039</ele>
        <time>2009-06-17T16:44:48Z</time>
      </trkpt>
      <trkpt lat="45.12387" lon="4.98396">
        <ele>207.24099731445</ele>
        <time>2009-06-17T16:44:54Z</time>
      </trkpt>
      <trkpt lat="45.12413" lon="4.98475">
        <ele>208.83500671387</ele>
        <time>2009-06-17T16:45:09Z</time>
      </trkpt>
      <trkpt lat="45.12425" lon="4.98526">
        <ele>209.59700012207</ele>
        <time>2009-06-17T16:45:18Z</time>
      </trkpt>
      <trkpt lat="45.12432" lon="4.98543">
        <ele>210.57000732422</ele>
        <time>2009-06-17T16:45:22Z</time>
      </trkpt>
      <trkpt lat="45.12432" lon="4.98543">
        <ele>210.94000244141</ele>
        <time>2009-06-17T16:45:24Z</time>
      </trkpt>
      <trkpt lat="45.12454" lon="4.98556">
        <ele>212.15299987793</ele>
        <time>2009-06-17T16:45:29Z</time>
      </trkpt>
      <trkpt lat="45.125" lon="4.98559">
        <ele>214.32899475098</ele>
        <time>2009-06-17T16:45:36Z</time>
      </trkpt>
      <trkpt lat="45.12505" lon="4.9856">
        <ele>214.86500549316</ele>
        <time>2009-06-17T16:45:37Z</time>
      </trkpt>
      <trkpt lat="45.12534" lon="4.98569">
        <ele>217.09700012207</ele>
        <time>2009-06-17T16:45:43Z</time>
      </trkpt>
      <trkpt lat="45.12544" lon="4.98573">
        <ele>219.04200744629</ele>
        <time>2009-06-17T16:45:48Z</time>
      </trkpt>
      <trkpt lat="45.12572" lon="4.98591">
        <ele>220.24099731445</ele>
        <time>2009-06-17T16:45:51Z</time>
      </trkpt>
      <trkpt lat="45.12604" lon="4.98608">
        <ele>222.4940032959</ele>
        <time>2009-06-17T16:45:59Z</time>
      </trkpt>
      <trkpt lat="45.12635" lon="4.98624">
        <ele>225.25500488281</ele>
        <time>2009-06-17T16:46:08Z</time>
      </trkpt>
      <trkpt lat="45.12686" lon="4.98651">
        <ele>230.21899414062</ele>
        <time>2009-06-17T16:46:27Z</time>
      </trkpt>
      <trkpt lat="45.12713" lon="4.98706">
        <ele>233.66400146484</ele>
        <time>2009-06-17T16:46:42Z</time>
      </trkpt>
      <trkpt lat="45.12737" lon="4.98753">
        <ele>236.4049987793</ele>
        <time>2009-06-17T16:46:56Z</time>
      </trkpt>
      <trkpt lat="45.12776" lon="4.98788">
        <ele>239.42199707031</ele>
        <time>2009-06-17T16:47:12Z</time>
      </trkpt>
      <trkpt lat="45.12833" lon="4.98812">
        <ele>242.67399597168</ele>
        <time>2009-06-17T16:47:31Z</time>
      </trkpt>
      <trkpt lat="45.12894" lon="4.98832">
        <ele>244.7200012207</ele>
        <time>2009-06-17T16:47:47Z</time>
      </trkpt>
      <trkpt lat="45.12952" lon="4.98851">
        <ele>246.39700317383</ele>
        <time>2009-06-17T16:48:00Z</time>
      </trkpt>
      <trkpt lat="45.12991" lon="4.98863">
        <ele>247.17500305176</ele>
        <time>2009-06-17T16:48:13Z</time>
      </trkpt>
      <trkpt lat="45.12991" lon="4.98863">
        <ele>247.02099609375</ele>
        <time>2009-06-17T16:48:31Z</time>
      </trkpt>
      <trkpt lat="45.12991" lon="4.98863">
        <ele>247.03799438477</ele>
        <time>2009-06-17T16:48:32Z</time>
      </trkpt>
      <trkpt lat="45.12991" lon="4.98863">
        <ele>247.09700012207</ele>
        <time>2009-06-17T16:48:33Z</time>
      </trkpt>
      <trkpt lat="45.12991" lon="4.98863">
        <ele>246.49499511719</ele>
        <time>2009-06-17T16:48:38Z</time>
      </trkpt>
      <trkpt lat="45.12991" lon="4.98863">
        <ele>246.98100280762</ele>
        <time>2009-06-17T16:48:50Z</time>
      </trkpt>
      <trkpt lat="45.1299" lon="4.98836">
        <ele>246.97200012207</ele>
        <time>2009-06-17T16:48:57Z</time>
      </trkpt>
      <trkpt lat="45.12986" lon="4.98862">
        <ele>246.96800231934</ele>
        <time>2009-06-17T16:49:00Z</time>
      </trkpt>
      <trkpt lat="45.12993" lon="4.98844">
        <ele>251.77799987793</ele>
        <time>2009-06-17T17:19:16Z</time>
      </trkpt>
      <trkpt lat="45.12993" lon="4.98846">
        <ele>251.8809967041</ele>
        <time>2009-06-17T17:19:19Z</time>
      </trkpt>
      <trkpt lat="45.12992" lon="4.98845">
        <ele>252.01400756836</ele>
        <time>2009-06-17T17:19:29Z</time>
      </trkpt>
      <trkpt lat="45.12992" lon="4.98847">
        <ele>251.89199829102</ele>
        <time>2009-06-17T17:20:40Z</time>
      </trkpt>
      <trkpt lat="45.12991" lon="4.98847">
        <ele>251.95899963379</ele>
        <time>2009-06-17T17:20:41Z</time>
      </trkpt>
      <trkpt lat="45.12991" lon="4.98848">
        <ele>251.92300415039</ele>
        <time>2009-06-17T17:20:43Z</time>
      </trkpt>
      <trkpt lat="45.12986" lon="4.98862">
        <ele>251.83500671387</ele>
        <time>2009-06-17T17:21:37Z</time>
      </trkpt>
      <trkpt lat="45.12965" lon="4.98855">
        <ele>251.32200622559</ele>
        <time>2009-06-17T17:21:44Z</time>
      </trkpt>
      <trkpt lat="45.12902" lon="4.98835">
        <ele>249.57200622559</ele>
        <time>2009-06-17T17:21:56Z</time>
      </trkpt>
      <trkpt lat="45.1281" lon="4.98805">
        <ele>245.53999328613</ele>
        <time>2009-06-17T17:22:10Z</time>
      </trkpt>
      <trkpt lat="45.12767" lon="4.98784">
        <ele>242.84800720215</ele>
        <time>2009-06-17T17:22:14Z</time>
      </trkpt>
      <trkpt lat="45.12759" lon="4.98777">
        <ele>242.11799621582</ele>
        <time>2009-06-17T17:22:15Z</time>
      </trkpt>
      <trkpt lat="45.12729" lon="4.98738">
        <ele>239.55299377441</ele>
        <time>2009-06-17T17:22:19Z</time>
      </trkpt>
      <trkpt lat="45.12697" lon="4.98673">
        <ele>234.95799255371</ele>
        <time>2009-06-17T17:22:24Z</time>
      </trkpt>
      <trkpt lat="45.12646" lon="4.9863">
        <ele>230.46000671387</ele>
        <time>2009-06-17T17:22:29Z</time>
      </trkpt>
      <trkpt lat="45.12579" lon="4.98595">
        <ele>224.11399841309</ele>
        <time>2009-06-17T17:22:35Z</time>
      </trkpt>
      <trkpt lat="45.12544" lon="4.98573">
        <ele>220.07899475098</ele>
        <time>2009-06-17T17:22:39Z</time>
      </trkpt>
      <trkpt lat="45.12502" lon="4.9856">
        <ele>218.83000183106</ele>
        <time>2009-06-17T17:22:41Z</time>
      </trkpt>
      <trkpt lat="45.12489" lon="4.98559">
        <ele>217.7619934082</ele>
        <time>2009-06-17T17:22:42Z</time>
      </trkpt>
      <trkpt lat="45.12421" lon="4.98516">
        <ele>213.72200012207</ele>
        <time>2009-06-17T17:22:48Z</time>
      </trkpt>
      <trkpt lat="45.12394" lon="4.98416">
        <ele>212.44299316406</ele>
        <time>2009-06-17T17:22:55Z</time>
      </trkpt>
      <trkpt lat="45.12377" lon="4.98364">
        <ele>212.02699279785</ele>
        <time>2009-06-17T17:23:01Z</time>
      </trkpt>
      <trkpt lat="45.12377" lon="4.98364">
        <ele>212.00100708008</ele>
        <time>2009-06-17T17:23:03Z</time>
      </trkpt>
      <trkpt lat="45.12377" lon="4.98363">
        <ele>211.79899597168</ele>
        <time>2009-06-17T17:23:13Z</time>
      </trkpt>
      <trkpt lat="45.12351" lon="4.98397">
        <ele>211.59100341797</ele>
        <time>2009-06-17T17:23:19Z</time>
      </trkpt>
      <trkpt lat="45.12351" lon="4.98397">
        <ele>211.27200317383</ele>
        <time>2009-06-17T17:23:21Z</time>
      </trkpt>
      <trkpt lat="45.12321" lon="4.98418">
        <ele>210.91900634766</ele>
        <time>2009-06-17T17:23:25Z</time>
      </trkpt>
      <trkpt lat="45.12288" lon="4.98415">
        <ele>210.69599914551</ele>
        <time>2009-06-17T17:23:30Z</time>
      </trkpt>
      <trkpt lat="45.12196" lon="4.98412">
        <ele>209.52900695801</ele>
        <time>2009-06-17T17:23:44Z</time>
      </trkpt>
      <trkpt lat="45.12184" lon="4.9841">
        <ele>209.44799804688</ele>
        <time>2009-06-17T17:23:46Z</time>
      </trkpt>
      <trkpt lat="45.12184" lon="4.9841">
        <ele>209.51499938965</ele>
        <time>2009-06-17T17:23:49Z</time>
      </trkpt>
      <trkpt lat="45.12071" lon="4.9841">
        <ele>209.54600524902</ele>
        <time>2009-06-17T17:24:05Z</time>
      </trkpt>
      <trkpt lat="45.12048" lon="4.9838">
        <ele>209.12600708008</ele>
        <time>2009-06-17T17:24:11Z</time>
      </trkpt>
      <trkpt lat="45.12068" lon="4.98219">
        <ele>208.05299377441</ele>
        <time>2009-06-17T17:24:27Z</time>
      </trkpt>
      <trkpt lat="45.12042" lon="4.98058">
        <ele>206.44000244141</ele>
        <time>2009-06-17T17:24:42Z</time>
      </trkpt>
      <trkpt lat="45.12001" lon="4.97854">
        <ele>204.89100646973</ele>
        <time>2009-06-17T17:25:00Z</time>
      </trkpt>
      <trkpt lat="45.1195" lon="4.97577">
        <ele>203.48500061035</ele>
        <time>2009-06-17T17:25:25Z</time>
      </trkpt>
      <trkpt lat="45.11905" lon="4.97324">
        <ele>201.41499328613</ele>
        <time>2009-06-17T17:25:47Z</time>
      </trkpt>
      <trkpt lat="45.11879" lon="4.97165">
        <ele>201.75399780273</ele>
        <time>2009-06-17T17:26:02Z</time>
      </trkpt>
      <trkpt lat="45.11883" lon="4.97093">
        <ele>203.68899536133</ele>
        <time>2009-06-17T17:26:11Z</time>
      </trkpt>
      <trkpt lat="45.11892" lon="4.97056">
        <ele>203.36799621582</ele>
        <time>2009-06-17T17:26:16Z</time>
      </trkpt>
      <trkpt lat="45.11888" lon="4.97054">
        <ele>203.40899658203</ele>
        <time>2009-06-17T17:26:18Z</time>
      </trkpt>
      <trkpt lat="45.11779" lon="4.96906">
        <ele>203.03399658203</ele>
        <time>2009-06-17T17:26:38Z</time>
      </trkpt>
      <trkpt lat="45.11775" lon="4.96898">
        <ele>202.74899291992</ele>
        <time>2009-06-17T17:26:39Z</time>
      </trkpt>
      <trkpt lat="45.1176" lon="4.96867">
        <ele>202.93800354004</ele>
        <time>2009-06-17T17:26:43Z</time>
      </trkpt>
      <trkpt lat="45.11749" lon="4.96823">
        <ele>202.42599487305</ele>
        <time>2009-06-17T17:26:49Z</time>
      </trkpt>
      <trkpt lat="45.11718" lon="4.96809">
        <ele>202.32800292969</ele>
        <time>2009-06-17T17:26:53Z</time>
      </trkpt>
      <trkpt lat="45.11646" lon="4.96668">
        <ele>200.87300109863</ele>
        <time>2009-06-17T17:27:09Z</time>
      </trkpt>
      <trkpt lat="45.11584" lon="4.96518">
        <ele>200.53999328613</ele>
        <time>2009-06-17T17:27:24Z</time>
      </trkpt>
      <trkpt lat="45.1158" lon="4.9647">
        <ele>201.06100463867</ele>
        <time>2009-06-17T17:27:29Z</time>
      </trkpt>
      <trkpt lat="45.11581" lon="4.96445">
        <ele>201.71600341797</ele>
        <time>2009-06-17T17:27:35Z</time>
      </trkpt>
      <trkpt lat="45.11581" lon="4.96445">
        <ele>201.32099914551</ele>
        <time>2009-06-17T17:29:00Z</time>
      </trkpt>
      <trkpt lat="45.11581" lon="4.96445">
        <ele>201.43200683594</ele>
        <time>2009-06-17T17:29:01Z</time>
      </trkpt>
      <trkpt lat="45.11581" lon="4.96445">
        <ele>203.52499389648</ele>
        <time>2009-06-17T17:29:32Z</time>
      </trkpt>
      <trkpt lat="45.11581" lon="4.9645">
        <ele>203.63600158691</ele>
        <time>2009-06-17T17:29:40Z</time>
      </trkpt>
      <trkpt lat="45.11581" lon="4.96452">
        <ele>201.50500488281</ele>
        <time>2009-06-17T17:29:44Z</time>
      </trkpt>
      <trkpt lat="45.11558" lon="4.96472">
        <ele>201.03799438477</ele>
        <time>2009-06-17T17:31:43Z</time>
      </trkpt>
      <trkpt lat="45.1158" lon="4.96457">
        <ele>200.57600402832</ele>
        <time>2009-06-17T17:32:04Z</time>
      </trkpt>
      <trkpt lat="45.11548" lon="4.96455">
        <ele>200.50199890137</ele>
        <time>2009-06-17T17:32:12Z</time>
      </trkpt>
      <trkpt lat="45.11547" lon="4.96454">
        <ele>201.56100463867</ele>
        <time>2009-06-17T17:32:19Z</time>
      </trkpt>
      <trkpt lat="45.11547" lon="4.96454">
        <ele>201.36799621582</ele>
        <time>2009-06-17T17:32:20Z</time>
      </trkpt>
      <trkpt lat="45.11547" lon="4.96454">
        <ele>201.58999633789</ele>
        <time>2009-06-17T17:32:27Z</time>
      </trkpt>
      <trkpt lat="45.11547" lon="4.96454">
        <ele>201.07400512695</ele>
        <time>2009-06-17T17:35:30Z</time>
      </trkpt>
      <trkpt lat="45.11547" lon="4.96454">
        <ele>200.8869934082</ele>
        <time>2009-06-17T17:35:31Z</time>
      </trkpt>
    </trkseg>
  </trk>
</gpx>